[[{"header":{"parameterUnit":"m.s-1","parameterCategory":1,"la1":30.6,"la2":29.2853,"lo1":-89.7004,"lo2":-87.6739,"dy":0.0162,"dx":0.0183,"nx":112,"ny":82,"refTime":"2026-02-21T12:00:00:Z","depth":0,"parameterNumber":2,"parameterNumberName":"U-component_of_WINDS"},"data":[0.0,0.0,0.0,0.0,0.0,0.0,0.0,0.0,0.0,0.0,0.0,0.0,0.0,0.0,0.0,0.0,0.0,0.0,0.0,0.0,0.0,0.0,0.0,0.0,0.0,0.0,0.0,0.0,0.0,0.0,0.0,0.0,0.0,0.0,0.0,0.0,0.0,0.0,0.0,0.0,0.0,0.0,0.0,0.0,0.0,0.0,0.0,0.0,0.0,0.0,0.0,0.0,0.0,0.0,0.0,0.0,0.0,0.0,0.0,0.0,0.0,0.0,0.0,0.0,0.0,0.0,0.0,0.0,0.0,0.0,0.0,0.0,0.0,0.0,0.0,0.0,0.0,0.0,0.0,0.0,0.0,0.0,0.0,0.0,0.0,0.0,0.0,0.0,0.0,0.0,-2.9149,-3.0263,-3.5322,-3.8857,-3.9594,-4.0913,-3.9422,-3.4153,0.0,0.0,0.0,0.0,0.0,0.0,0.0,0.0,0.0,0.0,0.0,0.0,0.0,0.0,0.0,0.0,0.0,0.0,0.0,0.0,0.0,0.0,0.0,0.0,0.0,0.0,0.0,0.0,0.0,0.0,0.0,0.0,0.0,0.0,0.0,0.0,0.0,0.0,0.0,0.0,0.0,0.0,0.0,0.0,0.0,0.0,0.0,0.0,0.0,0.0,0.0,0.0,0.0,0.0,0.0,0.0,0.0,0.0,0.0,0.0,0.0,0.0,0.0,0.0,0.0,0.0,0.0,0.0,0.0,0.0,0.0,0.0,0.0,0.0,0.0,0.0,0.0,0.0,0.0,0.0,0.0,0.0,0.0,0.0,0.0,0.0,0.0,0.0,0.0,0.0,0.0,0.0,0.0,0.0,0.0,0.0,0.0,0.0,0.0,0.0,0.0,0.0,0.0,0.0,-2.9299,-3.483,-3.688,-3.8152,-3.8791,-3.9195,-3.7806,-3.4023,0.0,0.0,0.0,0.0,0.0,0.0,0.0,0.0,0.0,0.0,0.0,0.0,0.0,0.0,0.0,0.0,0.0,0.0,0.0,0.0,0.0,0.0,0.0,0.0,0.0,0.0,0.0,0.0,0.0,0.0,0.0,0.0,0.0,0.0,0.0,0.0,0.0,0.0,0.0,0.0,0.0,0.0,0.0,0.0,0.0,0.0,0.0,0.0,0.0,0.0,0.0,0.0,0.0,0.0,0.0,0.0,0.0,0.0,0.0,0.0,0.0,0.0,0.0,0.0,0.0,0.0,0.0,0.0,0.0,0.0,0.0,0.0,0.0,0.0,0.0,0.0,0.0,0.0,0.0,0.0,0.0,0.0,0.0,0.0,0.0,0.0,0.0,0.0,0.0,0.0,0.0,0.0,0.0,0.0,0.0,0.0,0.0,0.0,0.0,0.0,0.0,0.0,0.0,-2.7203,-3.0315,-3.5896,-3.6844,-3.7376,-3.8072,-3.8169,-3.677,-3.3427,-3.2278,0.0,0.0,0.0,0.0,0.0,0.0,0.0,0.0,0.0,0.0,0.0,0.0,0.0,0.0,0.0,0.0,0.0,0.0,0.0,0.0,0.0,0.0,0.0,0.0,0.0,0.0,0.0,0.0,0.0,0.0,0.0,0.0,0.0,0.0,0.0,0.0,0.0,0.0,0.0,0.0,0.0,0.0,0.0,0.0,0.0,0.0,0.0,0.0,0.0,0.0,0.0,0.0,0.0,0.0,0.0,0.0,0.0,0.0,0.0,0.0,0.0,0.0,0.0,0.0,0.0,0.0,0.0,0.0,0.0,0.0,0.0,0.0,0.0,0.0,0.0,0.0,0.0,0.0,0.0,0.0,0.0,0.0,0.0,0.0,0.0,0.0,0.0,0.0,0.0,0.0,0.0,0.0,0.0,0.0,0.0,0.0,0.0,0.0,0.0,0.0,0.0,0.0,-2.9933,-3.1782,-3.5821,-3.6252,-3.6486,-3.7042,-3.666,-3.5276,-3.2592,-3.0562,0.0,0.0,0.0,0.0,0.0,0.0,0.0,0.0,0.0,0.0,0.0,0.0,0.0,0.0,0.0,0.0,0.0,0.0,0.0,0.0,0.0,0.0,0.0,0.0,0.0,0.0,0.0,0.0,0.0,0.0,0.0,0.0,0.0,0.0,0.0,0.0,0.0,0.0,0.0,0.0,0.0,0.0,0.0,0.0,0.0,0.0,0.0,0.0,0.0,0.0,0.0,0.0,0.0,0.0,0.0,0.0,0.0,0.0,0.0,0.0,0.0,0.0,0.0,0.0,0.0,0.0,0.0,0.0,0.0,0.0,0.0,0.0,0.0,0.0,0.0,0.0,0.0,0.0,0.0,0.0,0.0,0.0,0.0,0.0,0.0,0.0,0.0,0.0,0.0,0.0,0.0,0.0,0.0,0.0,0.0,0.0,0.0,0.0,0.0,0.0,0.0,0.0,-3.084,-3.3631,-3.5409,-3.5579,-3.5564,-3.5629,-3.3905,-3.2481,-3.1627,-2.8015,0.0,0.0,0.0,0.0,0.0,0.0,0.0,0.0,0.0,0.0,0.0,0.0,0.0,0.0,0.0,0.0,0.0,0.0,0.0,0.0,0.0,0.0,0.0,0.0,0.0,0.0,0.0,0.0,0.0,0.0,0.0,0.0,0.0,0.0,0.0,0.0,0.0,0.0,0.0,0.0,0.0,0.0,0.0,0.0,0.0,0.0,0.0,0.0,0.0,0.0,0.0,0.0,0.0,0.0,0.0,0.0,0.0,0.0,0.0,0.0,0.0,0.0,0.0,0.0,0.0,0.0,0.0,0.0,0.0,0.0,0.0,0.0,0.0,0.0,0.0,0.0,0.0,0.0,0.0,0.0,0.0,0.0,0.0,0.0,0.0,0.0,0.0,0.0,0.0,0.0,0.0,0.0,0.0,0.0,0.0,0.0,0.0,0.0,0.0,0.0,0.0,0.0,-2.999,-3.2577,-3.523,-3.5504,-3.5504,-3.5504,-3.4816,-3.338,-3.1031,0.0,0.0,0.0,0.0,0.0,0.0,0.0,0.0,0.0,0.0,0.0,0.0,0.0,0.0,0.0,0.0,0.0,0.0,0.0,0.0,0.0,0.0,0.0,0.0,0.0,0.0,0.0,0.0,0.0,0.0,0.0,0.0,0.0,0.0,0.0,0.0,0.0,0.0,0.0,0.0,0.0,0.0,0.0,0.0,0.0,0.0,0.0,0.0,0.0,0.0,0.0,0.0,0.0,0.0,0.0,0.0,0.0,0.0,0.0,0.0,0.0,0.0,0.0,0.0,0.0,0.0,0.0,0.0,0.0,0.0,0.0,0.0,0.0,0.0,0.0,0.0,0.0,0.0,0.0,0.0,0.0,0.0,0.0,0.0,0.0,0.0,0.0,0.0,0.0,0.0,0.0,0.0,0.0,0.0,0.0,0.0,0.0,0.0,0.0,0.0,0.0,0.0,-2.6932,-2.976,-3.2518,-3.5499,-3.5624,-3.5594,-3.5804,-3.4846,-3.3095,-3.0372,0.0,0.0,0.0,0.0,0.0,0.0,0.0,0.0,0.0,0.0,0.0,0.0,0.0,0.0,0.0,0.0,0.0,0.0,0.0,0.0,0.0,0.0,0.0,0.0,0.0,0.0,0.0,0.0,0.0,0.0,0.0,0.0,0.0,0.0,0.0,0.0,0.0,0.0,0.0,0.0,0.0,0.0,0.0,0.0,0.0,0.0,0.0,0.0,0.0,0.0,0.0,0.0,0.0,0.0,0.0,0.0,0.0,0.0,0.0,0.0,0.0,0.0,0.0,0.0,0.0,0.0,0.0,0.0,0.0,0.0,0.0,0.0,0.0,0.0,0.0,0.0,0.0,0.0,0.0,0.0,0.0,0.0,0.0,0.0,0.0,0.0,0.0,0.0,0.0,0.0,0.0,0.0,0.0,0.0,0.0,0.0,0.0,0.0,0.0,0.0,0.0,0.0,-2.6554,-3.053,-3.4061,-3.6261,-3.5893,-3.5774,-3.6417,-3.3455,-3.1001,0.0,0.0,0.0,0.0,0.0,0.0,0.0,0.0,0.0,0.0,0.0,0.0,0.0,0.0,0.0,0.0,0.0,0.0,0.0,0.0,0.0,0.0,0.0,0.0,0.0,0.0,0.0,0.0,0.0,0.0,0.0,0.0,0.0,0.0,0.0,0.0,0.0,0.0,0.0,0.0,0.0,0.0,0.0,0.0,0.0,0.0,0.0,0.0,0.0,0.0,0.0,0.0,0.0,0.0,0.0,0.0,0.0,0.0,0.0,0.0,0.0,0.0,0.0,0.0,0.0,0.0,0.0,0.0,0.0,0.0,0.0,0.0,0.0,0.0,0.0,0.0,0.0,0.0,0.0,0.0,0.0,0.0,0.0,0.0,0.0,0.0,0.0,0.0,0.0,0.0,0.0,0.0,0.0,0.0,0.0,0.0,0.0,0.0,0.0,0.0,0.0,0.0,0.0,-2.6497,-3.0144,-3.3325,-3.5574,-3.5624,-3.5579,-3.5774,-3.4457,-3.2258,-2.9086,0.0,0.0,0.0,0.0,0.0,0.0,0.0,0.0,0.0,0.0,0.0,0.0,0.0,0.0,0.0,0.0,0.0,0.0,0.0,0.0,0.0,0.0,0.0,0.0,0.0,0.0,0.0,0.0,0.0,0.0,0.0,0.0,0.0,0.0,0.0,0.0,0.0,0.0,0.0,0.0,0.0,0.0,0.0,0.0,0.0,0.0,0.0,0.0,0.0,0.0,0.0,0.0,0.0,0.0,0.0,0.0,0.0,0.0,0.0,0.0,0.0,0.0,0.0,0.0,0.0,0.0,0.0,0.0,0.0,0.0,0.0,0.0,0.0,0.0,0.0,0.0,0.0,0.0,0.0,0.0,0.0,0.0,0.0,0.0,0.0,0.0,0.0,0.0,0.0,0.0,0.0,0.0,0.0,0.0,0.0,0.0,0.0,0.0,0.0,0.0,0.0,0.0,-2.6132,-2.9586,-3.2796,-3.5583,-3.5669,-3.5609,-3.5878,-3.4786,-3.2512,-2.8831,0.0,0.0,0.0,0.0,0.0,0.0,0.0,0.0,0.0,0.0,0.0,0.0,0.0,0.0,0.0,0.0,0.0,0.0,0.0,0.0,0.0,0.0,0.0,0.0,0.0,0.0,0.0,0.0,0.0,0.0,0.0,0.0,0.0,0.0,0.0,0.0,0.0,0.0,0.0,0.0,0.0,0.0,0.0,0.0,0.0,0.0,0.0,0.0,0.0,0.0,0.0,0.0,0.0,0.0,0.0,0.0,0.0,0.0,0.0,0.0,0.0,0.0,0.0,0.0,0.0,0.0,0.0,0.0,0.0,0.0,0.0,0.0,0.0,0.0,0.0,0.0,0.0,0.0,0.0,0.0,0.0,0.0,0.0,0.0,0.0,0.0,0.0,0.0,0.0,0.0,0.0,0.0,0.0,0.0,0.0,0.0,0.0,0.0,0.0,0.0,0.0,0.0,-2.564,-2.8979,-3.2449,-3.6045,-3.5863,-3.5744,-3.6342,-3.4622,-3.2123,-2.8891,0.0,0.0,0.0,0.0,0.0,0.0,0.0,0.0,0.0,0.0,0.0,0.0,0.0,0.0,0.0,0.0,0.0,0.0,0.0,0.0,0.0,0.0,0.0,0.0,0.0,0.0,0.0,0.0,0.0,0.0,0.0,0.0,0.0,0.0,0.0,0.0,0.0,0.0,0.0,0.0,0.0,0.0,0.0,0.0,0.0,0.0,0.0,0.0,0.0,0.0,0.0,0.0,0.0,0.0,0.0,0.0,0.0,0.0,0.0,0.0,-2.376,0.0,0.0,0.0,0.0,0.0,0.0,0.0,0.0,0.0,0.0,0.0,0.0,0.0,0.0,0.0,0.0,0.0,0.0,0.0,0.0,0.0,0.0,0.0,0.0,0.0,0.0,0.0,0.0,0.0,0.0,0.0,0.0,0.0,0.0,0.0,0.0,0.0,0.0,0.0,0.0,0.0,-2.5694,-2.948,-3.2898,-3.5419,-3.5594,-3.5564,-3.5699,-3.4352,-3.2317,-2.9549,-2.75,0.0,0.0,0.0,0.0,0.0,0.0,0.0,0.0,0.0,0.0,0.0,0.0,0.0,0.0,0.0,0.0,0.0,0.0,0.0,0.0,0.0,0.0,0.0,0.0,0.0,0.0,0.0,0.0,0.0,0.0,0.0,0.0,0.0,0.0,0.0,0.0,0.0,0.0,0.0,0.0,0.0,0.0,0.0,0.0,0.0,0.0,0.0,0.0,0.0,0.0,0.0,0.0,0.0,0.0,0.0,0.0,0.0,0.0,0.0,0.0,-2.5775,0.0,0.0,0.0,0.0,0.0,0.0,0.0,0.0,0.0,0.0,0.0,0.0,0.0,0.0,0.0,0.0,0.0,0.0,0.0,0.0,0.0,0.0,0.0,0.0,0.0,0.0,0.0,0.0,0.0,0.0,0.0,0.0,0.0,0.0,0.0,0.0,0.0,0.0,0.0,0.0,-2.6069,-2.9505,-3.2567,-3.4797,-3.5011,-3.5145,-3.5474,-3.4562,-3.2976,-3.0672,-2.8652,0.0,0.0,0.0,0.0,0.0,0.0,0.0,0.0,0.0,0.0,0.0,0.0,0.0,0.0,0.0,0.0,0.0,0.0,0.0,0.0,0.0,0.0,0.0,0.0,0.0,0.0,0.0,0.0,0.0,0.0,0.0,0.0,0.0,0.0,0.0,0.0,0.0,0.0,0.0,0.0,0.0,0.0,0.0,0.0,0.0,0.0,0.0,0.0,0.0,0.0,0.0,0.0,0.0,-2.901,-3.0011,-3.0642,-3.1135,-3.1749,-3.2213,-2.964,-2.9134,-2.9998,-2.8771,0.0,0.0,0.0,0.0,0.0,0.0,0.0,0.0,0.0,0.0,0.0,0.0,0.0,0.0,0.0,0.0,0.0,0.0,0.0,0.0,0.0,0.0,0.0,0.0,-2.585,-2.6062,-2.3015,0.0,0.0,0.0,0.0,0.0,0.0,0.0,0.0,0.0,0.0,0.0,-2.6625,-2.958,-3.2138,-3.411,-3.4307,-3.4532,-3.51,-3.4532,-3.338,-3.1586,-2.9804,-2.7979,0.0,0.0,0.0,0.0,0.0,0.0,0.0,0.0,0.0,0.0,0.0,0.0,0.0,0.0,0.0,0.0,0.0,0.0,0.0,0.0,0.0,0.0,0.0,0.0,0.0,0.0,0.0,0.0,0.0,0.0,0.0,0.0,-1.3174,-1.4859,0.0,0.0,0.0,0.0,0.0,0.0,0.0,0.0,0.0,0.0,0.0,0.0,0.0,-2.6785,-2.7859,-2.969,-3.1023,-3.1752,-3.3063,-3.4065,-3.4726,-3.4801,-3.5205,-3.5818,-3.5394,0.0,-3.2063,-3.133,0.0,0.0,0.0,0.0,0.0,0.0,0.0,0.0,0.0,0.0,0.0,0.0,0.0,0.0,0.0,0.0,0.0,0.0,0.0,0.0,0.0,0.0,-2.8523,-2.817,-2.8835,-2.943,0.0,-2.609,-2.3303,-2.254,-2.1611,0.0,0.0,0.0,0.0,0.0,0.0,0.0,-2.7423,-3.0393,-3.2661,-3.3544,-3.3619,-3.3664,-3.3754,-3.3155,-3.2422,-3.1526,-3.0223,-2.9086,-2.8248,-2.6288,0.0,0.0,0.0,0.0,0.0,0.0,0.0,0.0,0.0,0.0,0.0,0.0,0.0,0.0,0.0,0.0,0.0,0.0,0.0,0.0,0.0,0.0,0.0,0.0,0.0,0.0,0.0,0.0,0.0,-1.3296,-1.5865,-1.6867,-1.8192,-1.8667,0.0,0.0,0.0,0.0,0.0,0.0,0.0,0.0,0.0,-2.7508,-2.9151,-3.0436,-3.1324,-3.2974,-3.4098,-3.4756,-3.5325,-3.5953,-3.6582,-3.6582,-3.6926,-3.7554,-3.7554,-3.6896,-3.5684,-3.3918,-3.2243,-3.0672,0.0,0.0,0.0,0.0,-2.9315,-2.9952,-3.1187,-3.1767,-3.1647,-3.0075,0.0,0.0,0.0,0.0,0.0,0.0,0.0,0.0,0.0,0.0,-3.0351,-3.0419,-3.1374,-3.2212,-3.1886,-3.047,-2.8463,0.0,-2.4507,-2.33,-2.1069,0.0,0.0,0.0,0.0,-2.6506,-2.803,-3.0383,-3.2213,-3.2871,-3.2946,-3.3095,-3.3469,-3.323,-3.2781,-3.2123,-3.1195,-3.0372,-2.9699,-2.8143,-2.6662,0.0,0.0,0.0,0.0,0.0,0.0,0.0,0.0,0.0,0.0,0.0,0.0,0.0,0.0,0.0,0.0,0.0,0.0,0.0,0.0,0.0,0.0,0.0,0.0,0.0,0.0,0.0,0.0,-1.6091,-1.8385,-1.8859,-2.073,-2.1558,0.0,0.0,0.0,0.0,0.0,0.0,-2.7181,-2.8267,-2.9518,-3.1057,-3.2886,-3.406,-3.4487,-3.5489,-3.6327,-3.6971,-3.6971,-3.73,-3.7913,-3.7913,-3.8182,-3.8661,-3.8661,-3.8661,-3.8482,-3.6178,-3.4457,-3.3155,-3.1988,-3.124,-3.0956,-3.1928,-3.2497,-3.308,-3.507,-3.5415,-3.4782,-3.3554,-3.1907,-2.9944,-2.748,0.0,0.0,0.0,0.0,-2.9052,-2.9756,-3.0751,-3.1724,-3.2206,-3.3411,-3.4263,-3.3827,-3.3746,-3.2659,0.0,-2.7619,-2.6269,-2.3502,0.0,0.0,0.0,0.0,-2.7682,-2.8928,-3.0522,-3.1719,-3.2213,-3.2258,-3.2467,-3.2961,-3.2991,-3.2781,-3.2302,-3.1809,-3.13,-3.0791,-2.9669,-2.8353,-2.6871,0.0,0.0,0.0,0.0,0.0,0.0,0.0,0.0,0.0,0.0,0.0,0.0,0.0,0.0,0.0,0.0,0.0,0.0,0.0,0.0,0.0,0.0,0.0,0.0,0.0,0.0,0.0,0.0,0.0,-2.144,-2.452,0.0,0.0,0.0,0.0,-2.6533,-2.8216,-2.9841,-3.117,-3.3211,-3.4678,-3.5205,-3.6672,-3.733,-3.721,-3.7285,-3.7644,-3.8287,-3.8287,-3.8646,-3.932,-3.932,-3.9334,-3.9364,-3.9364,-3.9364,-3.926,-3.7838,-3.6507,-3.528,-3.4562,-3.4262,-3.4233,-3.4307,-3.5145,-3.6252,-3.6387,-3.6417,-3.6477,-3.6985,-3.4927,-3.2198,-3.1471,-2.9915,0.0,0.0,-2.9561,-3.0276,-3.139,-3.2362,-3.3192,-3.3758,-3.4677,-3.5424,-3.5394,-3.4906,-3.4008,0.0,-3.072,-2.9167,-2.8375,0.0,-2.6647,-2.723,-2.8023,-2.8996,-3.0253,-3.1061,-3.1482,-3.1526,-3.1526,-3.1541,-3.1571,-3.1571,-3.1556,-3.1526,-3.1497,-3.1452,-3.1422,-3.0788,-2.9484,-2.761,-2.6176,0.0,0.0,0.0,0.0,0.0,0.0,0.0,0.0,0.0,0.0,0.0,0.0,0.0,0.0,0.0,0.0,0.0,0.0,0.0,0.0,0.0,0.0,0.0,0.0,0.0,0.0,0.0,0.0,-2.4838,-2.71,0.0,-2.8381,-2.8813,-2.945,-3.0419,-3.1486,-3.2852,-3.4637,-3.5968,-3.669,-3.6701,-3.8238,-3.8683,-3.8033,-3.8482,-3.8826,-3.905,-3.905,-3.9185,-3.9424,-3.9424,-3.9424,-3.9424,-3.9424,-3.9424,-3.9379,-3.8901,-3.8182,-3.73,-3.6626,-3.6372,-3.6372,-3.6372,-3.6926,-3.7704,-3.7704,-3.7704,-3.7614,-3.7015,-3.603,-3.494,-3.4288,-3.3923,-3.3665,-3.3885,-3.4039,-3.4317,-3.4718,-3.4743,-3.4706,-3.4927,-3.5213,-3.5504,-3.5504,-3.531,-3.4996,-3.4532,-3.2497,-3.0492,-2.9415,-2.8831,-2.8293,-2.7715,-2.8861,-2.9998,-3.0447,-3.1106,-3.1482,-3.1482,-3.1482,-3.1482,-3.1482,-3.1482,-3.1319,-3.0878,-3.0878,-3.0659,-3.0322,-3.0057,-2.9371,-2.8242,-2.644,-2.4427,0.0,0.0,0.0,0.0,0.0,0.0,0.0,0.0,0.0,0.0,0.0,0.0,0.0,0.0,0.0,0.0,0.0,0.0,0.0,0.0,0.0,0.0,0.0,0.0,0.0,-2.2092,-2.5652,-2.7281,-2.9446,-3.1103,-3.1737,-3.2214,-3.2842,-3.3752,-3.4457,-3.5489,-3.7045,-3.7912,-3.8269,-3.8063,-3.9336,-3.9634,-3.8736,-3.9185,-3.9424,-3.9424,-3.9424,-3.9424,-3.9424,-3.9424,-3.9424,-3.9424,-3.9424,-3.9424,-3.9424,-3.9424,-3.9155,-3.8691,-3.8257,-3.8078,-3.8078,-3.8078,-3.8362,-3.8736,-3.8736,-3.8736,-3.8556,-3.7479,-3.7135,-3.7015,-3.6342,-3.6447,-3.6791,-3.6791,-3.6791,-3.6746,-3.6537,-3.6163,-3.5774,-3.5549,-3.5504,-3.5504,-3.5504,-3.5504,-3.5504,-3.5504,-3.3888,-3.2183,-3.1091,-3.0717,-3.0193,-2.9071,-3.0013,-3.0851,-3.0851,-3.1255,-3.1482,-3.1482,-3.1482,-3.1482,-3.1482,-3.1289,-3.0995,-3.0513,-3.0317,-2.9994,-2.9604,-2.9362,-2.8814,-2.7938,-2.5693,-2.3754,-2.2166,0.0,0.0,0.0,0.0,0.0,0.0,0.0,0.0,0.0,0.0,0.0,0.0,0.0,0.0,0.0,0.0,0.0,0.0,0.0,0.0,0.0,0.0,0.0,-1.9802,-2.3549,-2.6946,-2.8637,-3.1591,-3.372,-3.4569,-3.5759,-3.6522,-3.6552,-3.7105,-3.7719,-3.8392,-3.9259,-3.9634,-3.9394,-4.0239,-4.0309,-3.9424,-3.9424,-3.9424,-3.9424,-3.9424,-3.9424,-3.9424,-3.9424,-3.9424,-3.9424,-3.9424,-3.9424,-3.9424,-3.9424,-3.9424,-3.9424,-3.9424,-3.9424,-3.9424,-3.9424,-3.9424,-3.9424,-3.9424,-3.9424,-3.9305,-3.8631,-3.8422,-3.8302,-3.7659,-3.7464,-3.7464,-3.7464,-3.7464,-3.73,-3.6701,-3.6522,-3.6327,-3.5684,-3.5519,-3.5504,-3.5504,-3.5504,-3.5504,-3.5504,-3.4966,-3.4307,-3.3649,-3.2961,-3.2302,-3.1601,-3.1482,0.0,-3.1482,-3.1482,-3.1482,-3.1482,-3.1482,-3.1482,-3.1482,-3.0893,-3.0483,-3.0483,-2.9892,-2.9535,-2.952,-2.8924,-2.7968,-2.6646,-2.4046,-2.2076,-2.091,0.0,0.0,0.0,0.0,0.0,0.0,0.0,0.0,0.0,0.0,0.0,0.0,0.0,0.0,0.0,0.0,0.0,0.0,0.0,0.0,0.0,-1.8883,-2.2217,-2.217,-2.5625,-2.9218,-3.2031,-3.3404,-3.4947,-3.7148,-3.721,-3.7345,-3.7823,-3.8018,-3.8422,-3.9095,-3.9964,-4.0109,-3.9409,-4.0239,-4.0309,-3.9424,-3.9424,-3.9424,-3.9424,-3.9424,-3.9424,-3.9424,-3.9424,-3.9424,-3.9424,-3.9424,-3.9424,-3.9424,-3.9424,-3.9424,-3.9424,-3.9424,-3.9424,-3.9424,-3.9424,-3.9424,-3.9424,-3.9424,-3.9424,-3.9394,-3.92,-3.914,-3.911,-3.8931,-3.8871,-3.8871,-3.8871,-3.8512,-3.8078,-3.7913,-3.718,-3.6432,-3.6267,-3.5848,-3.5504,-3.5504,-3.5504,-3.5504,-3.5504,-3.5355,-3.5011,-3.4322,-3.326,-3.2452,-3.2273,-3.1839,0.0,-3.1482,-3.1482,-3.1482,-3.1482,-3.1482,-3.1482,-3.1482,-3.0893,-3.0322,-2.9856,-2.9241,-2.8686,-2.8195,-2.8442,-2.8165,-2.7292,-2.5253,-2.3774,0.0,0.0,0.0,0.0,0.0,0.0,0.0,0.0,0.0,0.0,0.0,0.0,0.0,0.0,0.0,0.0,0.0,0.0,0.0,0.0,0.0,0.0,-2.1018,-2.4306,-2.5164,-2.7797,-3.0625,-3.3463,-3.4574,-3.5911,-3.7916,-3.8169,-3.8407,-3.8796,-3.8826,-3.899,-3.9394,-3.9864,-3.992,-3.9424,-3.9864,-3.992,-3.9409,-3.9424,-3.9424,-3.9424,-3.9424,-3.9424,-3.9424,-3.9424,-3.9424,-3.9424,-3.9424,-3.9424,-3.9424,-3.9424,-3.9424,0.0,0.0,0.0,0.0,0.0,-3.9424,-3.9424,-3.9424,-3.9424,-3.9424,-3.9424,-3.9424,-3.9424,-3.9424,-3.9424,-3.9424,-3.9424,-3.9125,-3.8751,-3.8467,-3.7838,-3.715,-3.6611,-3.6193,-3.5833,-3.5564,-3.5504,-3.5504,-3.5504,-3.5504,0.0,-3.4981,-3.3799,-3.2826,-3.2557,-3.1958,-3.1482,-3.1482,-3.1482,-3.1482,-3.1482,-3.1482,-3.1482,-3.1482,-3.0893,0.0,0.0,0.0,-2.8157,-2.7199,-2.7275,0.0,0.0,0.0,0.0,0.0,0.0,0.0,0.0,-2.2505,-2.2721,0.0,0.0,0.0,0.0,0.0,0.0,0.0,0.0,0.0,0.0,0.0,0.0,0.0,0.0,0.0,0.0,-2.3005,-2.6073,-2.8143,-2.9757,-3.1605,-3.3728,-3.5287,-3.6682,-3.7829,-3.8855,-3.9424,-3.9424,-3.9424,-3.9424,-3.9424,0.0,0.0,0.0,0.0,-3.9424,-3.9424,-3.9424,-3.9424,-3.9424,-3.9424,-3.9424,-3.9424,-3.9424,-3.9424,-3.9424,-3.9424,-3.9424,-3.9424,-3.9424,-3.9424,-3.9424,-3.9424,-3.9424,-3.9424,-3.9424,-3.9424,-3.9424,-3.9424,0.0,0.0,-3.9424,-3.9424,-3.9424,-3.9424,-3.9424,-3.9424,-3.9424,-3.9424,-3.9275,-3.8661,-3.8467,-3.8068,-3.6903,-3.6567,-3.6334,-3.5639,-3.5504,-3.5504,-3.5504,-3.5504,-3.5504,-3.5504,-3.4442,-3.338,-3.2721,-3.2063,-3.1556,-3.1482,-3.1482,-3.1482,-3.1482,0.0,0.0,-3.1482,-3.0893,-3.0522,-3.05,-2.9368,-2.8188,-2.7075,-2.6394,-2.6313,-2.695,-2.6294,-2.6506,-2.7586,-2.7586,-2.7601,-2.7594,-2.4886,-2.4503,0.0,0.0,0.0,0.0,0.0,0.0,0.0,0.0,0.0,0.0,0.0,0.0,0.0,0.0,0.0,-2.0426,-2.391,-2.7103,-2.9225,-3.0864,-3.268,-3.4849,-3.5774,-3.693,-3.8929,-3.9265,-3.9424,-3.9424,-3.9424,-3.9424,-3.9424,-3.9424,-3.9424,-3.9424,-3.9424,-3.9424,-3.9424,-3.9424,-3.9424,-3.9424,0.0,0.0,-3.9424,-3.9424,-3.9424,-3.9424,-3.9424,-3.9424,-3.9424,-3.9424,-3.9424,-3.9424,-3.9424,-3.9424,-3.9424,-3.9424,-3.9424,-3.9424,-3.9424,-3.9424,-3.9424,-3.9424,-3.9424,-3.9424,-3.9424,-3.9424,0.0,-3.9424,-3.9424,-3.9394,-3.926,-3.8775,-3.8174,-3.7414,-3.688,-3.6321,-3.5659,-3.5504,-3.5504,-3.5504,-3.5504,-3.5504,-3.5504,-3.4831,-3.4068,-3.341,-3.2751,-3.2138,-3.1541,-3.1482,-3.1482,-3.1482,-3.1482,-3.1482,-3.1482,-3.0893,-3.051,-3.0529,-2.9796,-2.9535,-2.9724,-2.9164,-2.9097,-2.9709,-2.9139,-2.8939,-2.9183,-2.9183,-2.9427,-2.9862,-2.8125,-2.7825,0.0,0.0,0.0,0.0,0.0,0.0,0.0,0.0,0.0,0.0,0.0,-1.3692,-1.4889,0.0,-2.0148,-2.334,-2.5595,-2.7946,-3.0615,-3.1692,-3.2957,-3.4821,-3.5716,-3.6838,-3.8457,-3.9104,-3.9424,-3.9424,-3.9424,-3.9424,-3.9424,-3.9424,-3.9424,-3.9424,-3.9424,-3.9424,-3.9424,-3.9424,-3.9424,-3.9424,-3.9424,-3.9424,-3.9424,-3.9424,-3.9424,-3.9424,-3.9424,-3.9424,-3.9424,-3.9424,-3.9424,-3.9424,-3.9424,-3.9424,-3.9424,-3.9424,-3.9424,-3.9424,-3.9424,-3.9424,-3.9424,-3.9424,-3.9424,-3.9424,-3.9424,-3.9424,-3.9424,-3.9424,-3.9424,-3.9424,-3.9424,-3.913,-3.8733,-3.8074,-3.7421,-3.6782,-3.6135,-3.5719,-3.5504,-3.5504,-3.5504,-3.5504,-3.5504,-3.522,-3.4752,-3.4103,-3.3412,-3.291,-3.2518,-3.2473,-3.2473,-3.2473,-3.2473,-3.2473,-3.2473,-3.188,-3.1187,-3.0513,-3.0197,-3.0066,-3.0066,-2.9778,-2.9853,-3.0485,-3.0211,-3.0366,-3.104,-3.104,-3.1407,-3.1983,-3.1289,-3.0923,0.0,0.0,0.0,0.0,0.0,0.0,0.0,-0.7617,-0.8879,-1.0147,-1.2792,-1.5364,-1.7013,-1.8994,-2.184,-2.5909,-2.7049,-2.8599,-3.1717,-3.2303,-3.302,-3.4762,-3.5748,-3.6682,-3.7994,-3.887,-3.9424,-3.9424,-3.9424,-3.9424,-3.9424,-3.9538,-3.9666,-3.9666,-3.9666,-3.9666,-3.9666,-3.9481,-3.9424,-3.9424,-3.9424,-3.9424,-3.9424,-3.9424,-3.9424,-3.9424,-3.9424,-3.9424,-3.9424,-3.9424,-3.9424,-3.9424,-3.9424,-3.9424,-3.9424,-3.9424,-3.9424,-3.9424,-3.9424,-3.9424,-3.9424,-3.9424,-3.9424,-3.9424,-3.9424,-3.9424,-3.9424,-3.9424,-3.9424,-3.9424,-3.9424,-3.9424,-3.9247,-3.8572,-3.7916,-3.7231,-3.6642,-3.5984,-3.5504,-3.5504,-3.5504,-3.5504,-3.5504,-3.5504,-3.524,-3.4593,-3.4027,-3.3648,-3.3533,-3.3487,-3.3505,-3.3484,-3.3499,-3.3499,-3.3499,-3.3013,-3.2249,-3.1157,-3.1055,-3.0878,-3.0366,-3.0352,-3.06,-3.1055,-3.1055,-3.1599,-3.271,-3.2688,-3.2945,-3.3499,-3.3649,-3.3379,-0.5758,-0.5559,-0.541,-0.5511,-0.5538,-0.5744,0.0,-0.8181,-0.9865,-1.0319,-1.4255,-1.7615,-1.7821,-2.0243,-2.3177,-2.6113,-2.7426,-2.9005,-3.1767,-3.2654,-3.3791,-3.5801,-3.6119,-3.7007,-3.9017,-3.9337,-3.9424,-3.9424,-3.9424,-3.9424,-3.9424,-4.0115,-4.0554,-4.0554,-4.0554,-4.0554,-4.0554,-3.9793,-3.9424,-3.9424,-3.9424,-3.9424,-3.9424,-3.9424,-3.9424,-3.9424,-3.9424,-3.9424,-3.9424,-3.9424,-3.9424,-3.9424,-3.9424,-3.9424,-3.9424,-3.9424,-3.9424,-3.9424,-3.9424,-3.9424,-3.9424,-3.9424,-3.9424,-3.9424,-3.9424,-3.9424,-3.9424,-3.9424,-3.9424,-3.9424,-3.9424,-3.9424,-3.9247,-3.8572,-3.7927,-3.7219,-3.6652,-3.5984,-3.5504,-3.5504,-3.5504,-3.5504,-3.5504,-3.5504,-3.524,-3.4593,-3.4466,-3.4188,-3.3597,-3.3487,-3.3501,-3.3485,-3.3524,-3.3524,-3.3524,-3.3412,-3.3322,-3.3172,-3.3157,-3.3142,-3.3054,-3.3038,-3.3127,-3.3157,-3.3157,-3.3218,-3.3426,-3.3372,-3.3416,-3.3524,-3.4135,-3.4332,-0.6177,-0.604,-0.5901,-0.5966,-0.604,-0.6547,-0.806,-0.9336,-1.0751,-1.2278,-1.5212,-1.7715,-1.8514,-2.0912,-2.3861,-2.6934,-2.8878,-3.0864,-3.3354,-3.3584,-3.4285,-3.6304,-3.5228,-3.5697,-3.9103,-3.8855,-3.8708,-3.9337,-3.9424,-3.961,-4.0115,-4.05,-4.0946,-4.1462,-4.0946,-4.069,-4.069,-4.0378,-4.0185,-4.0185,-4.0638,-4.0894,-4.0909,-4.0378,-3.9864,-3.9424,-3.9424,-3.9424,-3.9424,-3.9424,-3.9424,-3.9424,-3.9424,-3.9424,-3.9424,-3.9424,-3.9424,-3.9424,-3.9424,-3.9424,-3.9424,-3.9424,-3.9424,-3.9424,-3.9424,-3.9424,-3.9424,-3.9424,-3.9424,-3.9424,-3.9424,-3.9424,-3.9307,-3.9071,-3.844,-3.7831,-3.7182,-3.6511,-3.5984,-3.5549,-3.5504,-3.5504,-3.5504,-3.5504,-3.5379,-3.5085,-3.507,-3.4976,-3.4725,-3.465,-3.4628,-3.4644,-3.4623,-3.4549,-3.4118,-3.4059,-3.3903,-3.354,-3.3526,-3.3526,-3.3526,-3.3526,-3.3526,-3.3526,-3.3526,-3.3707,-3.4055,-3.4076,-3.4286,-3.4623,-3.4316,-3.4242,-0.6321,-0.6308,-0.6433,-0.6827,-0.7079,-0.771,-0.957,-1.0653,-1.1798,-1.3389,-1.5521,-1.7377,-1.8274,-2.0649,-2.3531,-2.691,-2.9415,-3.1663,-3.4104,-3.4043,-3.4468,-3.631,-3.4388,-3.447,-3.8466,-3.8091,-3.8119,-3.9322,-3.961,-4.0045,-4.069,-4.1147,-4.1739,-4.2332,-4.1739,-4.1412,-4.1412,-4.1213,-4.108,-4.108,-4.1674,-4.1853,-4.1609,-4.0758,-3.999,-3.9424,-3.9424,-3.9424,-3.9424,-3.9424,-3.9424,-3.9424,-3.9424,-3.9424,-3.9424,-3.9424,-3.9424,-3.9424,-3.9424,-3.9424,-3.9424,-3.9424,-3.9424,-3.9424,-3.9424,-3.9424,-3.9424,-3.9424,-3.9424,-3.9424,-3.9424,-3.9424,-3.9424,-3.9424,-3.8909,-3.8258,-3.7805,-3.7041,-3.634,-3.5859,-3.5644,-3.5504,-3.5504,-3.5504,-3.5504,-3.5504,-3.5504,-3.5504,-3.5504,-3.5504,-3.5504,-3.5504,-3.5504,-3.532,-3.4857,-3.4762,-3.4579,-3.4103,-3.4024,-3.4024,-3.4024,-3.4024,-3.4024,-3.4024,-3.4024,-3.4286,-3.4762,-3.4762,-3.5041,-3.5489,-3.4747,-3.4288,-0.6098,-0.6156,-0.6638,-0.8141,-0.8755,-0.9283,-1.0484,-1.1993,-1.3105,-1.2845,-1.4946,-1.6866,-1.6866,-1.9141,-2.2073,-2.5358,-2.8019,-3.0692,-3.331,-3.3793,-3.4332,-3.5753,-3.4052,-3.4039,-3.7159,-3.7227,-3.7638,-3.9292,-4.0185,-4.069,-4.069,-4.2316,-4.3229,-4.3246,-4.3229,-4.3246,-4.3246,-4.2379,-4.1933,-4.1933,-4.1997,-4.1543,-4.069,-3.9864,-3.9424,-3.9424,-3.9424,-3.9424,-3.9424,-3.9424,-3.9424,-3.9424,-3.9424,-3.9424,-3.9424,-3.9424,-3.9424,-3.9424,-3.9424,-3.9424,-3.9424,-3.9424,-3.9424,-3.9424,-3.9424,-3.9424,-3.9424,-3.9424,-3.9424,-3.9424,-3.9424,-3.9424,-3.9424,-3.9424,-3.8909,-3.8396,-3.8352,-3.736,-3.6481,-3.6466,-3.5954,-3.5504,-3.5504,-3.5504,-3.5504,-3.5504,-3.5504,-3.5504,-3.5504,-3.5504,-3.5504,-3.5504,-3.5504,-3.5504,-3.5489,-3.5489,-3.5489,-3.5474,-3.5474,-3.5474,-3.5474,-3.5474,-3.5474,-3.5474,-3.5474,-3.5474,-3.5489,-3.5489,-3.5489,-3.5504,-3.5489,-3.4958,-0.6444,-0.7226,-0.8168,-0.8875,-0.986,-1.092,-1.1915,-1.2678,-1.3321,-1.3856,-1.4663,-1.5573,-1.6638,-1.8591,-2.1154,-2.4724,-2.8754,-3.224,-3.4492,-3.5495,-3.6177,-3.6825,-3.4792,-3.4262,-3.6573,-3.6497,-3.6982,-3.8605,-3.9566,-4.0462,-4.1512,-4.2661,-4.3562,-4.4138,-4.3621,-4.3306,-4.3306,-4.2986,-4.2847,-4.2847,-4.2847,-4.2395,-4.1543,-4.0638,-3.992,-3.9424,-3.9424,-3.9424,-3.9424,-3.9424,-3.9424,-3.9424,-3.9424,-3.9424,-3.9424,-3.9424,-3.9424,-3.9424,-3.9424,-3.9424,-3.9424,-3.9424,-3.9424,-3.9424,-3.9424,-3.9424,-3.9424,-3.9424,-3.9424,-3.9424,-3.9424,-3.9424,-3.9424,-3.9424,-3.9247,-3.8939,-3.8542,-3.8065,-3.7629,-3.7172,-3.6607,-3.6155,-3.6155,-3.5799,-3.5504,-3.5504,-3.5504,-3.5504,-3.5504,-3.5504,-3.5504,-3.5504,-3.5504,-3.5504,-3.5504,-3.5504,-3.5504,-3.5504,-3.5504,-3.5504,-3.5504,-3.5504,-3.5504,-3.5504,-3.5504,-3.5504,-3.5504,-3.5504,-3.518,-3.4469,-3.3856,-3.3097,-0.6702,-0.7808,-0.9147,-0.9972,-1.1196,-1.2534,-1.3373,-1.3727,-1.3906,-1.4137,-1.4208,-1.4477,-1.5389,-1.7466,-2.0212,-2.3525,-2.8492,-3.2651,-3.4741,-3.6202,-3.7243,-3.779,-3.6113,-3.5696,-3.7575,-3.7516,-3.7623,-3.8332,-3.9699,-4.0939,-4.1965,-4.3092,-4.4006,-4.457,-4.4064,-4.3756,-4.3756,-4.3756,-4.3621,-4.3306,-4.297,-4.2395,-4.1543,-4.0638,-3.9935,-3.9424,-3.9424,-3.9424,-3.9424,-3.9424,-3.9424,-3.9424,-3.9424,-3.9424,-3.9424,-3.9424,-3.9424,-3.9424,-3.9424,-3.9424,-3.9424,-3.9424,-3.9424,-3.9424,-3.9424,-3.9424,-3.9424,-3.9424,-3.9424,-3.9424,-3.9424,-3.9424,-3.9424,-3.9424,-3.9424,-3.9277,-3.888,-3.8572,-3.8273,-3.7873,-3.7083,-3.6485,-3.6491,-3.5954,-3.5504,-3.5504,-3.5504,-3.5504,-3.5504,-3.5504,-3.5504,-3.5504,-3.5504,-3.5504,-3.5504,-3.5504,-3.5504,-3.5504,-3.5504,-3.5504,-3.5504,-3.5504,-3.5504,-3.5504,-3.5504,-3.5504,-3.5504,-3.5504,-3.5011,-3.3994,-3.3343,-3.2417,-0.6878,-0.8016,-0.9584,-1.1278,-1.2758,-1.3914,-1.4843,-1.4943,-1.4669,-1.3801,-1.3512,-1.3494,-1.3213,-1.5886,-1.8979,-2.181,-2.7284,-3.1998,-3.4134,-3.5975,-3.7559,-3.8654,-3.7943,-3.8065,-3.9838,-4.0007,-3.9629,-3.8596,0.0,-4.2013,-4.1997,-4.3663,-4.4587,-4.4587,-4.4587,-4.4587,-4.4587,-4.457,-4.4121,-4.3306,-4.2395,-4.1478,-4.069,-3.9793,-3.9424,-3.9424,-3.9424,-3.9424,-3.9424,-3.9424,-3.9424,-3.9424,-3.9424,-3.9424,-3.9424,-3.9424,-3.9424,-3.9424,-3.9424,-3.9424,-3.9424,-3.9424,-3.9424,-3.9424,-3.9424,-3.9424,-3.9424,-3.9424,-3.9424,-3.9424,-3.9424,-3.9424,-3.9424,-3.9424,-3.9424,-3.9424,-3.9424,-3.8909,-3.844,-3.844,-3.7447,-3.6497,-3.6451,-3.5954,-3.5504,-3.5504,-3.5504,-3.5504,-3.5504,-3.5504,-3.5504,-3.5504,-3.5504,-3.5504,-3.5504,-3.5504,-3.5504,-3.5504,-3.5504,-3.5504,-3.5504,-3.5504,-3.5504,-3.5504,-3.5504,-3.5504,-3.5504,-3.5474,-3.4901,-3.3929,-3.3882,-3.293,-0.7413,-0.8544,-0.9943,-1.149,-1.2685,-1.371,-1.4753,-1.4623,-1.4122,-1.346,-1.2959,-1.2619,-1.2552,-1.4746,-1.7608,-2.0785,-2.6363,-3.1338,-3.4162,-3.6981,-3.8927,-3.9365,-3.9241,-3.9336,-3.9962,-4.0472,-4.0625,0.0,-4.1475,-4.2138,-4.2029,-4.3663,-4.4587,-4.4587,-4.4587,-4.4587,-4.4587,-4.3948,-4.3502,-4.3306,-4.1739,-4.0946,-4.069,-3.9793,-3.9424,-3.9424,-3.9424,-3.9424,-3.9424,-3.9424,-3.9424,-3.9424,-3.9424,-3.9424,-3.9424,-3.9424,-3.9424,-3.9424,-3.9424,-3.9424,-3.9424,-3.9424,-3.9424,-3.9424,-3.9424,-3.9424,-3.9424,-3.9424,-3.9424,-3.9424,-3.9424,-3.9424,-3.9424,-3.9424,-3.9424,-3.9424,-3.9424,-3.9277,-3.913,-3.913,-3.8057,-3.6908,-3.5934,-3.5629,-3.5504,-3.5504,-3.5504,-3.5504,-3.5504,-3.5504,-3.5504,-3.5504,-3.5504,-3.5504,-3.5504,-3.5504,-3.5504,-3.5504,-3.5504,-3.5504,-3.5504,-3.5504,-3.5504,-3.5504,-3.5504,-3.5504,-3.5504,-3.4747,-3.387,-3.2934,-3.2676,-3.1668,-0.7611,-0.9128,-1.0922,-1.1721,-1.3115,-1.4308,-1.452,-1.4322,-1.3808,-1.2826,-1.2452,-1.2225,-1.1964,-1.43,-1.7324,-2.0316,-2.6139,-3.1269,-3.4209,-3.7739,-4.0171,-4.0679,-4.1022,-4.1496,-4.197,-4.2374,-4.2425,-4.2061,-4.2485,-4.2665,-4.2567,-4.3873,-4.444,-4.4064,-4.4006,-4.3873,-4.3469,-4.297,-4.252,-4.2125,-4.1147,-4.05,-4.0115,-3.961,-3.9424,-3.9424,0.0,-3.9424,-3.9424,-3.9424,-3.9424,-3.9424,-3.9424,-3.9424,-3.9424,-3.9424,-3.9424,-3.9424,-3.9424,-3.9424,-3.9424,-3.9424,-3.9424,-3.9424,-3.9424,-3.9424,-3.9424,-3.9424,-3.9424,-3.9424,-3.9424,-3.9424,-3.9424,-3.9424,-3.9424,-3.9424,-3.9424,-3.9424,-3.9247,-3.8616,-3.7676,-3.6667,-3.5674,-3.5504,-3.5504,-3.5504,-3.5504,-3.5504,-3.5504,-3.5504,-3.5504,-3.5504,-3.5504,-3.5504,-3.5504,-3.5504,-3.5504,-3.5504,-3.5504,-3.5504,-3.5504,-3.5504,-3.5504,-3.5504,-3.5504,-3.5659,-3.5954,-3.4901,-3.4051,-3.3367,-3.271,-3.1679,-0.7831,-0.9714,-1.1688,-1.1858,-1.3478,-1.4942,-1.4329,-1.4021,-1.352,-1.2151,-1.2011,-1.1957,-1.141,-1.4034,-1.7167,-1.9855,-2.5733,-3.0949,-3.3963,-3.7849,-4.0754,-4.1853,-4.2785,-4.3621,-4.4514,-4.4514,-4.4121,-4.3366,-4.3169,-4.3108,-4.3108,-4.3931,-4.4006,-4.3185,-4.3108,-4.2785,-4.1997,-4.1869,-4.1478,-4.069,-4.0554,-4.0115,-3.9424,-3.9424,-3.9424,-3.9424,-3.9424,-3.9424,-3.9409,-3.9262,-3.9218,-3.9145,-3.9056,-3.8954,-3.8969,-3.9116,-3.9218,-3.9233,-3.9322,-3.9424,-3.9424,-3.9424,-3.9424,-3.9424,-3.9424,-3.9424,-3.9424,-3.9424,-3.9424,-3.9424,-3.9424,-3.9424,-3.9409,-3.9277,-3.9307,-3.9409,-3.9277,-3.9277,-3.885,-3.7517,-3.6888,-3.6295,-3.5644,-3.5504,-3.5504,-3.5504,-3.5504,-3.5504,-3.5504,-3.5504,-3.5504,-3.5504,-3.5504,-3.5504,-3.5504,-3.5504,-3.5504,-3.5504,-3.5504,-3.5534,-3.5644,-3.5644,-3.5674,-3.5719,-3.5719,-3.5984,-3.6436,-3.5368,-3.4582,-3.4176,-3.3159,-3.2235,-0.815,-0.9303,-1.0675,-1.1697,-1.2675,-1.3549,-1.4268,-1.3681,-1.2842,-1.2096,-1.1523,-1.1116,-1.0775,-1.2572,-1.5093,-1.8326,-2.3114,-2.7964,-3.2571,-3.6375,-3.9511,-4.1709,-4.2785,-4.3621,-4.4514,-4.3948,-4.3426,-4.3306,-4.2645,-4.2269,-4.2269,-4.3031,-4.3108,-4.2252,-4.2269,-4.2125,-4.1997,-4.128,-4.0878,-4.069,-3.999,-3.9553,-3.9424,-3.9424,-3.9424,-3.9424,-3.9424,0.0,-3.9307,-3.8426,-3.8074,-3.7958,-3.7099,-3.6765,-3.6881,-3.7753,-3.8074,-3.822,-3.9101,-3.9424,-3.9424,-3.9424,-3.9424,-3.9424,-3.9424,-3.9424,-3.9424,-3.9424,-3.9424,-3.9424,-3.9424,-3.9424,-3.9262,-3.8733,-3.8969,-3.9262,-3.8718,-3.8572,-3.8169,-3.6925,-3.6597,-3.6295,-3.5644,-3.5504,-3.5504,-3.5504,-3.5504,-3.5504,-3.5504,-3.5504,-3.5504,-3.5504,-3.5504,-3.5504,-3.5504,-3.5504,-3.5504,-3.5504,-3.5504,-3.5719,-3.631,-3.6325,-3.6591,-3.709,-3.709,-3.6747,-3.5999,-3.4984,-3.4032,-3.3068,-3.2516,-3.198,-0.9252,-1.034,-1.1539,-1.2827,-1.359,-1.4034,-1.3833,-1.3273,-1.2526,-1.1471,-1.1082,-1.0902,-1.0678,-1.2202,-1.4275,-1.6723,-2.0938,-2.5781,-3.081,-3.4907,-3.8539,-4.1645,-4.3169,-4.4138,-4.457,-4.3814,-4.3306,-4.3306,-4.252,-4.1997,-4.1997,-4.1997,-4.1739,-4.1346,-4.0894,-4.0653,-4.0653,-4.0255,-4.006,-3.999,-3.961,-3.9424,-3.9424,-3.9424,-3.9424,-3.9424,-3.9424,-3.9424,-3.9307,-3.8235,-3.7798,-3.7695,-3.6594,-3.6552,-3.7078,-3.7577,-3.8133,-3.8733,-3.9247,-3.9424,-3.9424,-3.9424,-3.9424,-3.9424,-3.9424,-3.9424,-3.9424,-3.9424,-3.9424,-3.9424,-3.9424,-3.9424,-3.9307,-3.8969,-3.8909,-3.8718,-3.8045,-3.7664,-3.7218,-3.6597,-3.6185,-3.5859,-3.5534,-3.5504,-3.5504,-3.5504,-3.5504,-3.5504,-3.5504,-3.5504,-3.5504,-3.5504,-3.5504,-3.5504,-3.5504,-3.5504,-3.5504,-3.5504,-3.5829,-3.6155,-3.6481,-3.6821,-3.7094,-3.7396,-3.6891,-3.6561,-3.6389,-3.4789,-3.3973,-3.3789,-3.3043,-3.25,-1.0298,-1.1453,-1.253,-1.3969,-1.4641,-1.4669,-1.3554,-1.2966,-1.2345,-1.0929,-1.0782,-1.0828,-1.0665,-1.1895,-1.3516,-1.5175,-1.8945,-2.3503,-2.8859,-3.3306,-3.7376,-4.1342,-4.3131,-4.4121,-4.431,-4.335,-4.2707,-4.2707,-4.1933,-4.1543,-4.1739,-4.0894,-4.0432,-4.0432,-3.9737,-3.9424,-3.9424,-3.9424,-3.9424,-3.9424,-3.9424,-3.9424,-3.9424,-3.9424,-3.9424,-3.9424,-3.9424,-3.9424,-3.9307,-3.8235,-3.7785,-3.7693,-3.6589,-3.6725,-3.7459,-3.7756,-3.8318,-3.9101,-3.9307,-3.9424,-3.9424,-3.9424,-3.9424,-3.9424,-3.9424,-3.9424,-3.9424,-3.9424,-3.9424,-3.9424,-3.9424,-3.9424,-3.9424,-3.9424,-3.8874,-3.8266,-3.7742,-3.7271,-3.6823,-3.6526,-3.6045,-3.5674,-3.5519,-3.5504,-3.5504,-3.5504,-3.5504,-3.5504,-3.5504,-3.5504,-3.5534,-3.5689,-3.5564,-3.5504,-3.5504,-3.5504,-3.5534,-3.5689,-3.6185,-3.6597,-3.6872,-3.7157,-3.7375,-3.7448,-3.6461,-3.6112,-3.6339,-3.4746,-3.4088,-3.4375,-3.3503,-3.3081,-1.0331,-1.1559,-1.2725,-1.4015,-1.4641,-1.4723,-1.3814,-1.2953,-1.2078,-1.1142,-1.0768,-1.0658,-1.0624,-1.0972,-1.1871,-1.393,0.0,-2.0833,-2.7003,-3.1325,-3.5683,-4.0547,-4.1803,-4.2583,-4.3366,-4.1933,-4.0946,-4.0946,-4.0115,-3.999,-4.0758,-3.999,-3.9553,-3.9553,-3.9409,-3.9424,-3.9424,-3.9424,-3.9424,-3.9424,-3.9424,-3.9424,-3.9424,-3.9424,-3.9424,-3.9424,-3.9424,-3.9424,0.0,-3.8235,-3.7833,-3.7731,-3.6623,-3.6292,-3.6485,-3.7458,-3.7886,-3.8089,-3.9071,-3.9424,-3.9424,-3.9424,-3.9424,-3.9424,-3.9424,-3.9424,-3.9424,-3.9424,-3.9424,-3.9424,-3.9424,-3.9424,-3.9424,-3.9424,-3.8864,-3.8365,-3.8335,-3.8277,-3.7855,-3.6747,-3.6466,-3.6185,-3.5629,-3.5504,-3.5504,-3.5504,-3.5504,-3.5504,-3.5504,-3.5504,-3.5704,-3.6325,-3.5844,-3.5504,-3.5504,-3.5504,-3.5784,-3.634,-3.6466,-3.7037,-3.8157,-3.7316,-3.7113,-3.7753,-3.6736,-3.5753,-3.492,-3.4697,-3.4114,-3.3217,-3.3179,-3.3081,-1.2827,-1.3426,-1.3807,-1.4412,-1.4766,-1.4546,-1.2822,-1.2388,-1.2051,-1.1176,-1.0762,-1.0624,-1.0624,-1.0795,-1.1489,0.0,0.0,0.0,-2.4131,-2.802,-3.2414,-3.8403,-4.0603,-4.2005,-4.3224,-4.2189,-4.1028,-3.999,-3.961,-3.9538,-3.9935,-3.961,-3.9424,-3.9424,-3.9424,-3.9424,-3.9424,-3.9424,-3.9424,-3.9424,-3.9424,-3.9424,-3.9424,-3.9424,-3.9424,-3.9424,-3.9424,-3.9424,0.0,-3.8235,-3.7825,-3.7692,-3.6584,-3.657,-3.7183,-3.7623,-3.822,-3.8792,-3.9262,-3.9424,-3.9424,-3.9424,-3.9424,-3.9424,-3.9424,-3.9424,-3.9424,-3.9424,-3.9424,-3.9424,-3.9424,-3.9424,-3.9292,-3.8909,-3.8616,-3.8262,-3.7883,-3.7769,-3.755,-3.6699,-3.647,-3.6295,-3.5644,-3.5504,-3.5504,-3.5504,-3.5504,-3.5504,-3.5504,-3.5504,-3.5784,-3.6451,-3.628,-3.628,-3.6622,-3.6637,-3.6622,-3.6496,-3.7203,-3.739,-3.6896,-3.7229,-3.7236,-3.6847,-3.5804,-3.5139,-3.4702,-3.4075,-3.3515,-3.3081,-3.3081,-3.3081,-1.4167,-1.4511,-1.4536,-1.5144,-1.5082,-1.4546,-1.2649,-1.2304,-1.2051,-1.1176,-1.0762,-1.0624,-1.0624,-1.0795,-1.1414,0.0,0.0,-1.7123,-2.2434,-2.61,-3.0369,-3.623,-3.8686,-4.0425,-4.1837,-4.1501,-4.0706,-3.9481,-3.9424,-3.9424,-3.9424,-3.9424,-3.9424,-3.9424,-3.9424,-3.9424,-3.9424,-3.9424,-3.9424,-3.9424,-3.9424,-3.9424,-3.9424,-3.9424,-3.9424,-3.9424,-3.9424,-3.9424,0.0,-3.8587,-3.8265,-3.822,-3.7433,-3.7593,-3.8265,-3.8265,-3.8616,-3.9116,-3.9307,-3.9277,-3.9116,-3.9307,-3.9277,-3.9101,-3.9101,-3.9101,-3.9101,-3.9101,-3.9262,-3.9424,-3.9424,-3.9424,-3.9277,-3.8792,-3.8718,-3.8572,-3.8089,-3.787,-3.7535,-3.691,-3.6639,-3.6295,-3.5644,-3.5504,-3.5379,-3.507,-3.5056,-3.5056,-3.5056,-3.5056,-3.5335,-3.5984,-3.6052,-3.6388,-3.733,-3.7143,-3.6843,-3.6559,-3.7168,-3.7005,-3.6057,-3.6593,-3.6526,-3.5746,-3.4727,-3.4238,-3.4238,-3.349,-3.3081,-3.3081,-3.3081,-3.3081,-1.3431,-1.3975,-1.4475,-1.5875,-1.5611,-1.473,-1.3758,-1.2946,-1.2051,-1.1176,-1.0762,-1.0624,-1.0624,-1.0795,-1.1414,-1.2721,0.0,0.0,-2.2514,-2.6312,-3.0135,-3.4068,-3.5709,-3.7116,-3.8614,-3.9146,-3.9409,-3.9424,-3.9424,0.0,-3.9424,-3.9424,-3.9424,-3.9424,-3.9424,-3.9424,-3.9424,-3.9424,-3.9424,-3.9424,-3.9424,-3.9424,-3.9424,-3.9424,-3.9424,-3.9424,-3.9424,-3.9424,0.0,-3.9409,-3.9409,-3.9409,-3.9394,-3.9394,-3.9409,-3.9409,-3.8954,-3.8542,-3.9145,-3.8954,-3.8542,-3.9145,-3.8939,-3.8411,-3.8411,-3.8411,-3.8411,-3.8411,-3.8909,-3.9424,-3.9424,-3.9424,-3.9424,-3.9409,-3.9409,-3.9409,-3.9409,-3.8894,-3.822,-3.7549,-3.6939,-3.6295,-3.5644,-3.5504,-3.518,-3.4147,-3.4009,-3.4009,-3.4009,-3.4009,-3.4271,-3.4916,-3.5001,-3.564,-3.7244,-3.6519,-3.6202,-3.6751,-3.5872,-3.5592,-3.6173,-3.5238,-3.4702,-3.4715,-3.3652,-3.3081,-3.3081,-3.3081,-3.3081,-3.3081,-3.3081,-3.3081,-1.4174,-1.4494,-1.4568,-1.3908,-1.3931,-1.3677,-1.2288,-1.2171,-1.2171,-1.169,-1.1356,-1.1089,-1.0895,-1.1685,-1.2863,-1.4449,-1.6775,0.0,-2.3235,-2.6591,-3.0201,-3.4177,-3.743,-3.957,-4.0024,-3.9677,-3.9424,-3.9424,-3.9424,-3.9424,-3.9424,-3.9424,-3.9424,-3.9424,-3.9424,-3.9424,-3.9424,-3.9424,-3.9424,-3.9424,-3.9424,-3.9424,-3.9424,-3.9424,-3.9424,-3.9424,-3.9424,-3.9424,-3.9424,-3.9424,-3.9424,-3.9424,-3.9424,-3.9424,-3.9424,-3.9424,-3.9277,-3.914,-3.9306,-3.9282,-3.9071,-3.8778,-3.8572,-3.8246,-3.7345,-3.7406,-3.7813,-3.8258,-3.8894,-3.9424,-3.9424,-3.9424,-3.9247,-3.8455,-3.8279,-3.8279,-3.8279,-3.7768,-3.711,-3.6588,-3.6445,-3.5859,-3.3841,-3.4024,-3.4147,-3.3216,-3.3031,-3.3001,-3.3001,-3.3067,-3.3274,-3.398,-3.4057,-3.4594,-3.5913,-3.5769,-3.5588,-3.5778,-3.583,-3.5452,-3.4537,-3.4666,-3.4388,-3.3639,-3.323,-3.3081,-3.3081,-3.3081,-3.3081,-3.3081,-3.3081,-3.3081,-1.4128,-1.4409,-1.4408,-1.3424,-1.3393,-1.3316,-1.2209,-1.2107,-1.2218,-1.1931,-1.1908,-1.1906,-1.1717,-1.304,-1.453,-1.6011,-1.8359,-2.0913,-2.3706,-2.6824,-3.0364,-3.4487,-3.7669,-3.9566,0.0,-3.9586,-3.9424,-3.9424,-3.9424,-3.9424,-3.9424,-3.9424,-3.9424,-3.9424,-3.9424,-3.9424,-3.9424,-3.9424,-3.9424,-3.9424,-3.9424,-3.9424,-3.9424,-3.9424,-3.9424,-3.9424,-3.9424,-3.9424,0.0,-3.9424,-3.9424,-3.9424,-3.9424,-3.9424,-3.9424,-3.9424,-3.9247,-3.9053,-3.9299,-3.9243,-3.8939,-3.8557,-3.808,-3.7515,-3.6712,-3.6778,-3.7167,-3.7556,-3.8119,-3.8616,-3.8616,-3.8616,-3.8426,-3.7608,-3.7572,-3.7579,-3.743,-3.7032,-3.6558,-3.6229,-3.5813,-3.5009,-3.3398,-3.335,-3.3115,-3.2222,-3.2085,-3.2083,-3.2083,-3.2096,-3.2236,-3.2654,-3.2658,-3.2974,-3.3526,-3.432,-3.4754,-3.4723,-3.4702,-3.4238,-3.3192,-3.3354,-3.3179,-3.2475,-3.2475,-3.2598,-3.2771,-3.3031,-3.3081,-3.3081,-3.3081,-3.3081,0.0,-1.3761,-1.3988,-1.3968,-1.3754,-1.3474,-1.3206,-1.2705,0.0,-1.2094,-1.2505,-1.2976,-1.3178,-1.4773,-1.6458,-1.7465,-1.9834,-2.2281,-2.4318,-2.7472,-3.1084,-3.5124,-3.6724,-3.7793,-3.8407,-3.9035,-3.9424,-3.9424,-3.9424,-3.9424,-3.9424,-3.9424,-3.9424,-3.9424,-3.9424,-3.9424,-3.9424,-3.9424,-3.9424,-3.9424,-3.9424,-3.9424,-3.9424,-3.9424,-3.9424,0.0,-3.9424,-3.9424,0.0,-3.9424,-3.9394,-3.9307,-3.9307,-3.9307,-3.9307,-3.9307,-3.8939,-3.8572,-3.9116,-3.8894,-3.825,-3.8204,-3.7342,-3.6426,-3.6401,-3.6466,-3.6511,-3.6526,-3.6981,-3.743,-3.7359,-3.7445,-3.7329,-3.6822,-3.7023,-3.7254,-3.6865,-3.6584,-3.6339,-3.631,-3.5039,-3.3928,-3.3734,-3.3018,-3.2213,-3.1255,-3.1113,-3.1113,-3.1113,-3.1113,-3.1113,-3.1113,-3.1113,-3.0971,-3.0585,-3.2377,-3.3611,-3.3639,-3.2648,-3.2129,-3.2128,-3.1675,-3.1394,-3.1394,-3.1394,-3.1626,-3.2191,-3.2771,-3.3056,-3.3081,-3.3081,-3.3081,-1.2579,0.0,-1.3006,-1.2779,-1.2665,-1.2599,0.0,-1.2405,-1.2498,-1.3143,-1.343,-1.3987,-1.5583,-1.6745,-1.8035,-1.9744,-2.2409,-2.4981,-2.7088,-3.164,-3.5184,-3.6387,-3.791,-3.9005,-3.917,-3.9334,-3.9424,-3.9424,-3.9424,-3.9424,-3.9424,-3.9424,-3.9424,-3.9424,-3.9424,-3.9424,-3.9424,-3.9424,-3.9424,-3.9424,-3.9424,-3.9424,-3.9424,-3.9424,-3.9424,-3.9424,-3.9424,-3.9424,-3.9424,-3.9424,-3.9101,-3.8616,-3.8616,-3.8616,-3.8616,-3.8616,-3.8894,-3.9101,-3.8763,-3.8074,-3.7126,-3.6132,-3.5771,-3.5732,-3.5762,-3.611,-3.6602,-3.7065,-3.7277,-3.7389,-3.7134,-3.7622,-3.7749,-3.6119,-3.6346,-3.6919,-3.6809,-3.5996,-3.5104,-3.4404,-3.4103,-3.3338,-3.1135,-3.1174,-3.1242,-3.0303,-3.0163,-3.0163,-3.0163,-3.0163,-3.0163,-3.0163,-3.0163,-3.0072,-3.0035,-3.0811,-3.1536,-3.1945,-3.1749,-3.1596,-3.1596,-3.1493,-3.1388,-3.1388,-3.1388,-3.1663,-3.2191,-3.2339,-3.2635,-3.3081,-3.3081,-3.3081,-1.2305,-1.2625,-1.2919,-1.2759,-1.2719,-1.2719,-1.2719,-1.2798,-1.3098,-1.36,-1.4704,-1.5939,-1.7086,-1.8808,-2.0555,-2.1799,-2.4494,-2.7524,-3.0609,-3.4059,-3.659,-3.7417,-3.8616,-3.9424,0.0,-3.9424,-3.9424,-3.9424,-3.9424,-3.9424,-3.9424,-3.9424,-3.9424,-3.9424,-3.9424,-3.9424,-3.9424,-3.9424,-3.9424,-3.9424,-3.9424,-3.9424,-3.9424,-3.9424,-3.9424,-3.9424,-3.9424,-3.9424,-3.9424,-3.9424,-3.9218,-3.8835,-3.8837,-3.8849,-3.8841,-3.8844,-3.8909,-3.8909,-3.8557,-3.7652,-3.6661,-3.6216,-3.5837,-3.5585,-3.5893,-3.6185,-3.6591,-3.6919,-3.7014,-3.6918,-3.6799,-3.6775,-3.6567,-3.5434,-3.5339,-3.5592,-3.5874,-3.5519,-3.5041,-3.4564,-3.3887,-3.2894,-3.1356,-3.0752,-3.0431,-2.9907,-2.9792,-2.9792,-2.9792,-2.9792,-2.9792,-2.9792,-2.9792,-3.0072,-3.0855,-3.0727,-3.0836,-3.1354,-3.1417,-3.1466,-3.1746,-3.1539,-3.141,-3.141,-3.1668,-3.19,-3.2237,-3.2444,-3.2771,-3.3081,-3.3081,-3.3081,-1.2412,-1.2886,-1.33,-1.312,-1.3218,-1.3416,-1.3321,-1.364,-1.4027,-1.4291,-1.6332,-1.8192,-1.8795,-2.1129,-2.3245,-2.4085,-2.6678,-2.9969,-3.3825,-3.5522,-3.6821,-3.8154,-3.8979,0.0,-3.9424,-3.9424,-3.9424,-3.9424,-3.9424,-3.9424,-3.9424,-3.9424,-3.9337,-3.9177,-3.9337,-3.9307,-3.913,-3.9307,-3.9424,-3.9424,-3.9424,-3.9424,-3.9424,-3.9424,-3.9424,-3.9424,0.0,0.0,-3.9424,-3.9424,-3.9307,-3.9245,-3.9229,-3.9276,-3.9252,-3.9274,-3.8909,-3.8352,-3.7982,-3.7201,-3.6408,-3.6761,-3.628,-3.5629,-3.617,-3.634,-3.6356,-3.631,-3.6438,-3.6589,-3.6246,-3.5767,-3.5222,-3.4829,-3.4524,-3.4538,-3.5037,-3.5335,-3.5474,-3.532,-3.3833,-3.2577,-3.242,-3.0971,-2.9792,-2.9792,-2.9792,-2.9804,-2.9919,-2.9919,-2.9932,-3.0047,-3.0047,-3.0598,-3.1967,-3.1216,-3.0933,-3.1485,-3.1406,-3.1628,-3.2071,-3.1654,-3.1393,-3.1393,-3.1823,-3.2097,-3.2215,-3.2726,-3.3043,-3.3081,-3.3081,-3.3081,-1.2933,-1.35,-1.3707,-1.2692,-1.3418,-1.4275,-1.3733,-1.4312,-1.5421,-1.6977,-1.7929,-1.9579,-2.2708,-2.3727,-2.4767,-2.7046,-3.0042,-3.2759,-3.4891,-3.6823,-3.8026,-3.7912,0.0,-3.9424,-3.9424,-3.9424,-3.9424,-3.9424,-3.9424,-3.9424,-3.9424,-3.9424,-3.8943,-3.8069,-3.8943,-3.8939,-3.806,-3.8939,-3.9424,-3.9424,-3.9424,-3.9424,-3.9424,-3.9424,-3.9424,-3.9424,0.0,-3.9424,-3.9424,-3.9424,-3.9086,-3.8557,-3.8522,-3.8534,-3.8549,-3.857,-3.8455,-3.8115,-3.6208,-3.5548,-3.5511,-3.4786,-3.4996,-3.5519,-3.5644,-3.5659,-3.5627,-3.5305,-3.6187,-3.6866,-3.5325,-3.5937,-3.6487,-3.4286,-3.5011,-3.6154,-3.623,-3.5844,-3.5225,-3.441,-3.3339,-3.2374,-3.1572,-3.0482,-2.9792,-2.9792,-2.9792,-2.9932,-3.0444,-3.047,-3.0611,-3.1126,-3.1139,-3.1268,-3.1526,-3.1378,-3.1509,-3.2072,-3.1685,-3.1429,-3.1538,-3.1429,-3.1417,-3.1417,-3.1441,-3.1722,-3.2247,-3.2301,-3.261,-3.3081,-3.3081,-3.3081,-1.3386,-1.4501,-1.5328,-1.4676,-1.5174,-1.6011,-1.7,-1.7769,-1.8654,-2.0083,-2.1328,-2.2714,-2.4435,-2.5654,-2.736,-3.056,-3.3007,-3.511,-3.6779,-3.7851,-3.8489,0.0,0.0,-3.9424,-3.9424,-3.9424,-3.9424,-3.9424,-3.9424,-3.9424,-3.9424,-3.9424,-3.8943,-3.7829,-3.8852,-3.8915,-3.7783,-3.8894,-3.9424,-3.9424,-3.9424,-3.9424,-3.9424,-3.9424,-3.9424,-3.9424,0.0,-3.9424,-3.9424,-3.9424,-3.9247,-3.8939,-3.8939,-3.8733,-3.8294,-3.7608,-3.7364,-3.7165,-3.5768,-3.5365,-3.5394,-3.4931,-3.5085,-3.5504,-3.5504,-3.5719,-3.5899,-3.5219,-3.5549,-3.5798,-3.4423,-3.4724,-3.5053,-3.4073,-3.4501,-3.532,-3.5829,-3.5704,-3.5365,-3.4901,-3.4009,-3.3239,-3.2787,-3.1707,-3.0997,-3.0997,-3.083,-3.0739,-3.0997,-3.1069,-3.1141,-3.1405,-3.1417,-3.1719,-3.258,-3.2137,-3.1902,-3.2215,-3.2314,-3.2327,-3.2327,-3.2327,-3.2327,-3.2327,-3.2327,-3.2462,-3.2648,-3.2648,-3.2796,-3.3081,-3.3081,-3.3081,-1.4332,-1.5483,-1.6616,-1.6894,-1.7009,-1.7705,-2.0062,-2.085,-2.1559,-2.349,-2.4748,-2.5804,-2.6611,-2.832,0.0,-3.3637,-3.5467,-3.691,-3.8415,-3.8631,-3.8826,-3.9364,-3.9424,-3.9424,-3.9424,-3.9424,-3.9424,-3.9424,-3.9424,-3.9424,-3.9424,-3.9424,-3.8943,-3.7829,-3.887,-3.8862,-3.7813,-3.8896,-3.9424,-3.9424,-3.9424,-3.9424,-3.9424,-3.9424,-3.9424,-3.9424,-3.9424,-3.9424,-3.9424,-3.9424,-3.9292,-3.9145,-3.9145,-3.8743,-3.8031,-3.6887,-3.6467,-3.6436,-3.5704,-3.5504,-3.5504,-3.5504,-3.5504,-3.5504,-3.5504,-3.5844,-3.6029,-3.5056,-3.4744,-3.457,-3.3799,-3.3793,-3.3937,-3.397,-3.4162,-3.4564,-3.5335,-3.5504,-3.5504,-3.5504,-3.4703,-3.4013,-3.4228,-3.2996,-3.2057,-3.2188,-3.178,-3.1481,-3.1532,-3.1589,-3.1626,-3.1773,-3.1773,-3.2327,-3.3515,-3.2895,-3.245,-3.245,-3.2796,-3.3081,-3.3081,-3.3081,-3.3081,-3.3081,-3.3081,-3.3081,-3.3081,-3.3081,-3.3081,-3.3081,-3.3081,-3.3081,-1.6321,-1.6236,-1.6418,-1.8118,-1.8276,-1.8641,-2.0987,-2.1607,-2.295,-2.7145,-2.7323,-2.7656,-3.0812,-3.2794,-3.433,-3.5583,-3.6878,-3.8028,-3.9175,0.0,-3.9364,-3.9409,-3.9424,-3.9424,-3.9424,-3.9424,-3.9424,-3.9424,-3.9424,-3.9424,-3.9424,-3.9424,-3.8943,-3.7829,-3.887,-3.888,-3.7787,-3.8841,-3.9424,-3.9424,-3.9424,-3.9424,-3.9424,-3.9424,-3.9424,-3.9424,-3.9424,-3.9424,-3.9424,-3.9424,-3.9056,-3.844,-3.844,-3.8087,-3.741,-3.6753,-3.6491,-3.6436,-3.5704,-3.5504,-3.5504,-3.5504,-3.5504,-3.5504,-3.5504,-3.5519,-3.5365,-3.4316,-3.4073,-3.3977,-3.3675,-3.4217,-3.4726,-3.4124,-3.4718,-3.5394,-3.5489,-3.5504,-3.5504,-3.5504,-3.4703,-3.4221,-3.4838,-3.3281,-3.222,-3.281,-3.2091,-3.1553,-3.2091,-3.2117,-3.2339,-3.292,-3.2945,-3.3043,-3.3179,-3.3068,-3.3056,-3.3056,-3.3068,-3.3081,-3.3081,-3.3081,-3.3081,-3.3081,-3.3081,-3.3081,-3.3081,-3.3081,-3.3081,-3.3081,-3.3081,-3.3081,-1.6942,-1.8202,-1.9727,-2.0639,-2.1763,-2.3048,-2.4534,-2.6083,-2.8093,-3.1151,-3.1711,-3.199,-3.3252,-3.4534,-3.5652,-3.6344,-3.7784,-3.8943,-3.9337,-3.9424,-3.9424,-3.9424,-3.9424,-3.9424,-3.9424,-3.9424,-3.9424,-3.9424,-3.9424,-3.9424,-3.9424,-3.9424,-3.8943,-3.7829,-3.8824,-3.8868,-3.7777,-3.89,-3.9424,-3.9424,-3.9424,-3.9424,-3.9424,-3.9424,-3.9424,-3.9424,-3.9424,-3.9424,-3.9394,-3.8939,-3.8894,-3.8937,-3.8121,-3.7389,-3.6778,-3.614,-3.5859,-3.5829,-3.5564,-3.5504,-3.5504,-3.5504,-3.5504,-3.5504,-3.5504,-3.5504,-3.532,-3.4286,-3.3975,-3.3818,-3.3127,-3.3712,-3.4318,-3.4069,-3.4762,-3.5504,-3.5504,-3.5504,-3.5644,-3.6014,-3.5814,-3.5534,-3.5534,-3.4695,-3.3886,-3.3462,-3.2895,-3.25,-3.2759,-3.2771,-3.2882,-3.3068,-3.3081,-3.3081,-3.3081,-3.3081,-3.3081,-3.3081,-3.3081,-3.3081,-3.3081,-3.3081,-3.3081,-3.3081,-3.3081,-3.3081,-3.3081,-3.3081,-3.3081,-3.3081,-3.3081,-3.3081,-1.8799,-2.0206,-2.1901,-2.2366,-2.4217,-2.6144,-2.7325,-2.9302,-3.1755,-3.4566,-3.5626,-3.5889,-3.5082,-3.5913,-3.6879,0.0,-3.85,-3.9424,-3.9424,-3.9424,-3.9424,-3.9424,-3.9424,-3.9424,-3.9424,-3.9424,-3.9424,-3.9424,-3.9424,-3.9424,-3.9424,-3.9424,-3.9031,-3.8308,-3.9017,-3.9031,-3.8308,-3.9017,-3.9424,-3.9424,-3.9424,-3.9424,-3.9424,-3.9424,-3.9424,-3.9424,-3.9424,-3.9424,-3.9322,-3.8718,-3.8426,-3.835,-3.7225,-3.6526,-3.614,-3.5674,-3.5504,-3.5504,-3.5504,-3.5504,-3.5504,-3.5504,-3.5504,-3.5504,-3.5504,-3.5504,-3.5365,-3.4703,-3.4454,-3.4347,-3.3715,-3.3758,-3.4103,-3.441,-3.5026,-3.5504,-3.5504,-3.5504,-3.5689,-3.634,-3.6505,-3.6432,-3.6246,-3.5726,-3.5002,-3.4165,-3.3503,-3.3081,-3.3081,-3.3081,-3.3081,-3.3081,-3.3081,-3.3081,-3.3081,-3.3081,-3.3081,-3.3081,-3.3081,-3.3081,-3.3081,-3.3081,-3.3081,-3.3081,-3.3081,-3.3081,-3.3081,-3.3081,-3.3081,-3.3081,-3.3081,-3.3081,-2.217,-2.2115,-2.2388,-2.2956,-2.5022,-2.7296,-2.8988,-3.0655,-3.3075,-3.7195,-3.8784,-3.8703,-3.6446,-3.7337,-3.8392,-3.8392,-3.8975,-3.9424,-3.9424,-3.9424,-3.9424,-3.9424,-3.9424,-3.9424,-3.9424,-3.9424,-3.9424,-3.9424,-3.9424,-3.9424,-3.9424,-3.9424,-3.9424,-3.9424,-3.9424,-3.9424,-3.9424,-3.9424,-3.9424,-3.9424,-3.9424,-3.9424,-3.9424,-3.9424,-3.9424,-3.9409,-3.9409,-3.9409,-3.9307,-3.8689,-3.7665,-3.646,-3.5755,-3.5504,-3.5504,-3.5504,-3.5504,-3.5504,-3.5504,-3.5504,-3.5504,-3.5504,-3.5504,-3.5504,-3.5504,-3.5504,-3.5504,-3.5504,-3.5504,-3.5504,-3.5504,-3.4747,-3.4271,-3.524,-3.5504,-3.5504,-3.5504,-3.5504,-3.5689,-3.6356,-3.6507,-3.6577,-3.6765,-3.5963,-3.5167,-3.4727,-3.3789,-3.3081,-3.3081,-3.3081,-3.3081,-3.3081,-3.3081,-3.3081,-3.3081,-3.3081,-3.3081,-3.3081,-3.3081,-3.3081,-3.3081,-3.3081,-3.3081,-3.3081,-3.3081,-3.3081,-3.3081,-3.3081,-3.3081,-3.3081,-3.3081,-3.3081,-2.1688,-2.2846,-2.4425,-2.5016,-2.7585,-3.0412,-3.1692,-3.3597,-3.5912,-3.904,-3.9521,-3.9068,-3.7875,-3.8102,-3.8392,-3.8392,-3.8975,-3.9424,-3.9424,-3.9424,-3.9424,-3.9424,-3.9424,-3.9424,-3.9424,-3.9424,-3.9424,-3.9424,-3.9424,-3.9424,-3.9424,-3.9424,-3.9424,-3.9424,-3.9424,-3.9424,-3.9424,-3.9424,-3.9424,-3.9424,-3.9424,-3.9424,-3.9424,-3.9424,-3.9116,-3.8718,-3.8718,-3.8426,-3.7956,-3.7781,-3.697,-3.5815,-3.6114,-3.5954,-3.5504,-3.5504,-3.5504,-3.5504,-3.5504,-3.5504,-3.5504,-3.5504,-3.5504,-3.5504,-3.5504,-3.5504,-3.5504,-3.5504,-3.5504,-3.5504,-3.5504,-3.5305,-3.5165,-3.5394,-3.5504,-3.5504,-3.5504,-3.5504,-3.5829,-3.6934,-3.6537,-3.6129,-3.6317,-3.5518,-3.4564,-3.3677,-3.3328,-3.3081,-3.3081,-3.3081,-3.3081,-3.3081,-3.3081,-3.3081,-3.3081,-3.3081,-3.3081,-3.3081,-3.3081,-3.3081,-3.3081,-3.3081,-3.3081,-3.3081,-3.3081,-3.3081,-3.3081,-3.3081,-3.3081,-3.3081,-3.3081,-3.3081,-2.3356,-2.4785,-2.6541,-2.7299,-2.9427,-3.1972,-3.4204,-3.6087,-3.8154,-4.0677,-4.0651,-3.9993,-3.932,-3.8975,0.0,-3.8796,-3.9155,-3.9424,-3.9424,-3.9424,-3.9424,-3.9424,-3.9424,-3.9424,-3.9424,-3.9424,-3.9424,-3.9424,-3.9424,-3.9424,-3.9424,-3.9424,-3.9424,-3.9424,-3.9424,-3.9424,-3.9424,-3.9424,-3.9424,-3.9424,-3.9424,-3.9424,-3.9424,-3.9424,-3.9056,-3.8381,-3.8142,-3.7679,-3.707,-3.702,-3.6451,-3.5534,-3.5954,-3.5844,-3.5504,-3.5504,-3.5504,-3.5504,-3.5504,-3.5504,-3.5504,-3.5504,-3.5504,-3.5504,-3.5504,-3.5504,-3.5504,-3.5504,-3.5504,-3.5504,-3.5504,-3.5504,-3.5504,-3.5504,-3.5504,-3.5504,-3.5504,-3.5689,-3.611,-3.6667,-3.6507,-3.6096,-3.5648,-3.5139,-3.4375,-3.323,-3.3081,-3.3081,-3.3081,-3.3081,-3.3081,-3.3081,-3.3081,-3.3081,-3.3081,-3.3081,-3.3081,-3.3081,-3.3081,-3.3081,-3.3081,-3.3081,-3.3081,-3.3081,-3.3081,-3.3081,-3.3081,-3.3081,-3.3081,-3.3081,-3.3081,-3.3081,-2.6101,-2.7218,-2.8398,-2.9578,-3.0708,-3.2585,-3.6429,-3.8117,-3.9465,-4.1759,-4.1713,-4.1085,-4.0427,-3.9828,-3.9424,-3.9424,-3.9424,-3.9424,-3.9424,-3.9424,-3.9424,-3.9424,-3.9424,-3.9424,-3.9424,-3.9424,-3.9424,-3.9424,-3.9424,-3.9424,-3.9424,-3.9424,-3.9424,-3.9424,-3.9424,-3.9424,-3.9424,-3.9424,-3.9424,-3.9424,-3.9424,-3.9424,-3.9424,-3.9424,-3.8981,-3.8273,-3.7585,-3.6964,-3.6436,-3.6436,-3.6029,-3.5504,-3.5504,-3.5504,-3.5504,-3.5504,-3.5504,-3.5504,-3.5504,-3.5504,-3.5504,-3.5504,-3.5504,-3.5504,-3.5504,-3.5504,-3.5504,-3.5504,-3.5504,-3.5504,-3.5504,-3.5504,-3.5489,-3.5379,-3.5394,-3.5504,-3.5504,-3.5969,-3.6245,-3.5974,-3.6219,-3.6136,-3.4894,-3.4577,-3.4238,-3.323,-3.3081,-3.3081,-3.3081,-3.3081,-3.3081,-3.3081,-3.3081,-3.3081,-3.3081,-3.3081,-3.3081,-3.3081,-3.3081,-3.3081,-3.3081,-3.3081,-3.3081,-3.3081,-3.3081,-3.3081,-3.3081,-3.3081,-3.3081,-3.3081,-3.3081,-3.3081,-2.5598,-2.6917,0.0,-3.0055,-3.1587,-3.3674,-3.7139,-3.7771,-3.8187,-4.041,-4.0711,-4.0412,-3.9753,-3.9514,-3.9424,-3.9424,-3.9424,-3.9424,-3.9424,-3.9424,-3.9424,-3.9424,-3.9424,-3.9424,-3.9424,-3.9424,-3.9424,-3.9424,-3.9424,-3.9424,-3.9424,-3.9424,-3.9424,-3.9424,-3.9424,-3.9424,-3.9424,-3.9424,-3.9424,0.0,-3.9424,-3.9424,-3.9424,-3.9424,-3.8782,-3.7597,-3.694,-3.631,-3.5704,-3.5704,-3.5644,-3.5504,-3.5504,-3.5504,-3.5504,-3.5504,-3.5504,-3.5504,-3.5504,-3.5504,-3.5504,-3.5504,-3.5504,-3.5504,-3.5504,-3.5504,-3.5504,-3.5504,-3.5504,-3.5504,-3.5504,-3.5504,-3.532,-3.4549,-3.4916,-3.5504,-3.5504,-3.5365,-3.5355,-3.579,-3.5104,-3.4476,-3.4697,-3.3977,-3.3366,-3.3093,-3.3081,-3.3081,-3.3081,-3.3081,-3.3081,-3.3081,-3.3081,-3.3081,-3.3081,-3.3081,-3.3081,-3.3081,-3.3081,-3.3081,-3.3081,-3.3081,-3.3081,-3.3081,-3.3081,-3.3081,-3.3081,-3.3081,-3.3081,-3.3081,-3.3081,-3.3081,-2.5649,-2.7431,0.0,-3.1311,0.0,-3.4601,-3.6139,-3.6606,-3.7014,-3.8136,-3.9444,-4.0292,-3.9948,-3.9634,-3.9424,-3.9424,-3.9424,-3.9424,-3.9424,-3.9424,-3.9424,-3.9424,-3.9424,-3.9424,-3.9424,-3.9424,-3.9424,-3.9424,-3.9424,-3.9424,-3.9424,-3.9424,-3.9424,-3.9424,-3.9424,-3.9424,-3.9424,-3.9424,-3.9424,-3.9424,-3.9424,-3.9424,-3.9409,-3.9086,-3.8352,-3.7338,-3.6778,-3.614,-3.5504,-3.5504,-3.5504,-3.5504,-3.5504,-3.5504,-3.5504,-3.5504,-3.5504,-3.5504,-3.5504,-3.5504,-3.5504,-3.5504,-3.5504,-3.5504,-3.5504,-3.5504,-3.5504,-3.5504,-3.5504,-3.5504,-3.5504,-3.5165,-3.4623,-3.4118,-3.441,-3.4623,-3.4242,-3.441,-3.4627,-3.4412,-3.4271,-3.4114,-3.3951,-3.349,-3.3081,-3.3081,-3.3081,-3.3081,-3.3081,-3.3081,-3.3081,-3.3081,-3.3081,-3.3081,-3.3081,-3.3081,-3.3081,-3.3081,-3.3081,-3.3081,-3.3081,-3.3081,-3.3081,-3.3081,-3.3081,-3.3081,-3.3081,-3.3081,-3.3081,-3.3081,-3.3081,-3.3081,-2.5485,0.0,-3.0319,-3.2528,-3.4059,0.0,-3.4901,-3.544,-3.5974,-3.6119,-3.8217,-3.9981,-3.9981,-3.9622,-3.9424,-3.9424,-3.9424,-3.9424,-3.9424,-3.9424,-3.9424,-3.9424,-3.9424,-3.9424,-3.9424,-3.9424,-3.9424,-3.9424,-3.9265,-3.9104,-3.9104,-3.9104,-3.9104,-3.9104,-3.9265,-3.9424,-3.9424,-3.9424,-3.9424,-3.9424,-3.9424,-3.9424,-3.9409,-3.8792,-3.8227,-3.7521,-3.7021,-3.6356,-3.5674,-3.5674,-3.5629,-3.5504,-3.5504,-3.5504,-3.5504,-3.5504,-3.5504,-3.5504,-3.5504,-3.5504,-3.5504,-3.5504,-3.5504,-3.5504,-3.5504,-3.5504,-3.5504,-3.5504,-3.5365,-3.5225,-3.5225,-3.4469,-3.3725,-3.3561,-3.3595,-3.3456,-3.2734,-3.3413,-3.3832,-3.2982,-3.3665,-3.4114,-3.323,-3.3081,-3.3081,-3.3081,-3.3081,-3.3081,-3.3081,-3.3081,-3.3081,-3.3081,-3.3081,-3.3081,-3.3081,-3.3081,-3.3081,-3.3081,-3.3081,-3.3081,-3.3081,-3.3081,-3.3081,-3.3081,-3.3081,-3.3081,-3.3081,-3.3081,-3.3081,-3.3081,-3.3081,-3.3081,-2.3979,0.0,-3.0319,0.0,-3.329,-3.3773,0.0,0.0,-3.5129,0.0,-3.7246,-3.8124,-3.8124,-3.8841,-3.9424,-3.9424,-3.9424,-3.9424,-3.9424,-3.9424,-3.9424,-3.9424,-3.9424,-3.9424,-3.9424,-3.9424,-3.9424,-3.9424,-3.8546,-3.7994,-3.7994,-3.7994,-3.7994,-3.7994,-3.8943,-3.9424,-3.9424,-3.9424,-3.9424,-3.9424,-3.9424,-3.9424,-3.9424,-3.9292,-3.8907,-3.827,-3.8172,-3.7464,-3.634,-3.634,-3.6014,-3.5504,-3.5504,-3.5504,-3.5504,-3.5504,-3.5504,-3.5504,-3.5504,-3.5504,-3.5504,-3.5504,-3.5504,-3.5504,-3.5504,-3.5504,-3.5504,-3.5504,-3.4872,-3.4177,-3.4177,-3.3521,-3.2577,-3.179,-3.1955,-3.2368,-3.2537,-3.2823,-3.2972,-3.2836,-3.3068,-3.323,-3.3081,-3.3081,-3.3081,-3.3081,-3.3081,-3.3081,-3.3081,-3.3081,-3.3081,-3.3081,-3.3081,-3.3081,-3.3081,-3.3081,-3.3081,-3.3081,-3.3081,-3.3081,-3.3081,-3.3081,-3.3081,-3.3081,-3.3081,-3.3081,-3.3081,-3.3081,-3.3081,-3.3081,-3.3081,-3.3081,-2.5109,-2.7544,-2.9842,0.0,-3.283,-3.3303,-3.4033,-3.3977,-3.3953,-3.4332,-3.5292,-3.6411,-3.7601,-3.8708,-3.9177,-3.862,-3.8472,-3.8472,-3.8472,-3.8472,-3.8708,-3.9337,-3.9424,-3.9424,-3.9424,-3.887,-3.8472,-3.8472,-3.7496,-3.693,-3.693,-3.751,-3.7829,-3.7829,-3.8855,-3.9424,-3.9424,-3.9424,-3.9424,-3.9424,-3.9424,-3.9424,-3.9424,-3.9424,-3.9023,-3.837,-3.8382,-3.7661,-3.6507,-3.6486,-3.6125,-3.5504,-3.5504,-3.5504,-3.5504,-3.5504,-3.5504,-3.5504,-3.5504,-3.5504,-3.5504,-3.5504,-3.5504,-3.5379,-3.4857,-3.4623,-3.4564,-3.4009,-3.355,-3.3215,-3.3184,-3.2726,-3.215,-3.1743,-3.1668,-3.1733,-3.1902,-3.2197,-3.2541,-3.2912,-3.3056,-3.3081,-3.3081,-3.3081,-3.3081,-3.3081,-3.3081,-3.3081,-3.3081,-3.3081,-3.3081,-3.3081,-3.3081,-3.3081,-3.3081,-3.3081,-3.3081,-3.3081,-3.3081,-3.3081,-3.3081,-3.3081,-3.3081,-3.3081,-3.3081,-3.3081,-3.3081,-3.3081,-3.3081,-3.3081,-3.3081,-3.3081,0.0,0.0,-2.8235,-3.0583,-3.1913,-3.2679,0.0,0.0,-3.3081,0.0,-3.3953,-3.5142,-3.6724,-3.8069,-3.8708,-3.7919,-3.7829,-3.7677,-3.742,-3.742,-3.7663,-3.8457,-3.862,-3.862,-3.862,-3.789,-3.742,-3.742,-3.6383,-3.5814,-3.5814,-3.6788,-3.742,-3.742,-3.8694,-3.9424,-3.9424,-3.9424,-3.9424,-3.9424,-3.9424,-3.9424,-3.9424,-3.9424,-3.902,-3.8417,-3.8567,-3.7905,-3.6704,-3.6727,-3.6265,-3.5504,-3.5504,-3.5504,-3.5504,-3.5504,-3.5504,-3.5504,-3.5504,-3.5504,-3.5504,-3.5504,-3.5335,-3.5011,-3.4257,-3.3833,-3.3511,-3.28,-3.2398,-3.2222,-3.2253,-3.1954,-3.1669,-3.1611,-3.1596,-3.161,-3.1577,-3.1921,-3.2371,-3.3013,-3.3081,-3.3081,-3.3081,-3.3081,-3.3081,-3.3081,-3.3081,-3.3081,-3.3081,-3.3081,-3.3081,-3.3081,-3.3081,-3.3081,-3.3081,-3.3081,-3.3081,-3.3081,-3.3081,-3.3081,-3.3081,-3.3081,-3.3081,-3.3081,-3.3081,-3.3081,-3.3081,-3.3081,-3.3081,-3.3081,-3.3081,-3.3081,0.0,-2.3791,0.0,-2.7632,-2.9905,-3.1612,0.0,0.0,-3.3081,-3.3081,-3.3953,-3.4746,-3.4828,-3.6489,-3.7829,-3.7829,-3.7829,-3.742,-3.6448,-3.6277,-3.6277,-3.6369,-3.6369,-3.6369,-3.6369,-3.629,-3.6277,-3.6277,-3.5359,-3.4746,-3.4746,-3.5734,-3.6277,-3.6277,-3.8294,-3.9424,-3.9424,-3.9424,-3.9424,-3.9424,-3.9424,-3.9424,-3.9424,-3.9424,-3.9035,-3.8422,-3.9095,-3.8594,-3.7337,-3.7364,-3.6622,-3.5504,-3.5504,-3.5504,-3.5504,-3.5504,-3.5504,-3.5504,-3.5504,-3.5504,-3.5504,-3.5504,-3.4872,-3.4103,-3.4009,-3.3353,-3.2678,-3.2651,-3.1964,-3.1305,-3.1242,-3.0984,-3.0694,-3.07,-3.1455,-3.2178,-3.2167,-3.2215,-3.2363,-3.3018,-3.3081,-3.3081,-3.3081,-3.3081,-3.3081,-3.3081,-3.3081,-3.3081,-3.3081,-3.3081,-3.3081,-3.3081,-3.3081,-3.3081,-3.3081,-3.3081,-3.3081,-3.3081,-3.3081,-3.3081,-3.3081,-3.3081,-3.3081,-3.3081,-3.3081,-3.3081,-3.3081,-3.3081,-3.3081,-3.3081,-3.3081,-3.3081,-2.1179,0.0,0.0,-2.5988,-2.7896,-2.9528,-3.0444,-3.1625,-3.2516,-3.2516,-3.3132,-3.3869,-3.4594,-3.5842,-3.654,-3.5935,-3.5775,-3.5695,-3.5292,-3.521,-3.5521,-3.6119,-3.6198,-3.6198,-3.6198,-3.5588,-3.521,-3.521,-3.4262,-3.3953,-3.4664,-3.5668,-3.6526,-3.719,-3.862,-3.9424,-3.9424,-3.9424,-3.9424,-3.9424,-3.9424,-3.9424,-3.9409,-3.896,-3.8616,-3.8377,-3.8197,-3.763,-3.6832,-3.6848,-3.631,-3.5504,-3.5504,-3.5504,-3.5504,-3.5504,-3.5504,-3.5504,-3.5504,-3.5504,-3.5379,-3.4747,-3.4286,-3.3769,-3.2563,-3.196,-3.1565,-3.0984,-3.0573,-3.0316,-3.0316,-3.0714,-3.1302,-3.199,-3.2487,-3.2771,-3.2771,-3.2771,-3.2796,-3.3056,-3.3081,-3.3081,-3.3081,-3.3081,-3.3081,-3.3081,-3.3081,-3.3081,-3.3081,-3.3081,-3.3081,-3.3081,-3.3081,-3.3081,-3.3081,-3.3081,-3.3081,-3.3081,-3.3081,-3.3081,-3.3081,-3.3081,-3.3081,-3.3081,-3.3081,-3.3081,-3.3081,-3.3081,-3.3081,-3.3081,-3.3081,-3.3081,-1.9786,-2.1041,0.0,0.0,0.0,-2.7306,-2.9566,0.0,-3.1323,-3.2064,-3.2516,-3.3085,-3.3998,-3.4733,-3.5034,-3.4746,-3.4664,-3.4594,-3.4191,-3.4191,-3.4415,-3.5116,-3.5183,-3.5183,-3.5183,-3.4581,-3.4191,-3.4191,-3.3471,0.0,-3.4664,-3.5668,-3.6852,-3.8308,-3.9017,-3.9265,-3.887,-3.9192,-3.9192,-3.887,-3.9265,-3.929,-3.905,-3.8601,-3.8153,-3.7734,-3.7285,-3.6909,-3.6502,-3.6484,-3.6069,-3.5504,-3.5504,-3.5504,-3.5504,-3.5504,-3.5504,-3.5504,-3.5504,-3.5305,-3.4887,-3.4242,-3.359,-3.2863,-3.1557,-3.0984,-3.0598,-2.9945,-2.9919,-3.006,-3.006,-3.0874,-3.1932,-3.2865,-3.3081,-3.3081,-3.3081,-3.3081,-3.3081,-3.3081,-3.3081,-3.3081,-3.3081,-3.3081,-3.3081,-3.3081,-3.3081,-3.3081,-3.3081,-3.3081,-3.3081,-3.3081,-3.3081,-3.3081,-3.3081,-3.3081,-3.3081,-3.3081,-3.3081,-3.3081,-3.3081,-3.3081,-3.3081,-3.3081,-3.3081,-3.3081,-3.3081,-3.3081,-3.3081,-3.3081,-3.3081,-3.3081,0.0,0.0,0.0,0.0,0.0,0.0,-2.9402,0.0,-2.944,-3.1662,-3.2127,-3.2328,-3.2943,-3.3068,-3.3484,-3.4511,-3.4664,-3.4275,-3.324,-3.3081,-3.3081,-3.3081,-3.3081,-3.3081,-3.3081,-3.3081,-3.3081,-3.3154,-3.3154,-3.3641,-3.4746,-3.5748,-3.7147,-3.9235,-3.9307,-3.8752,-3.7695,-3.8738,-3.8796,-3.7771,-3.8811,-3.9005,-3.8362,-3.8347,-3.7659,-3.6492,-3.6462,-3.6462,-3.6462,-3.6462,-3.6088,-3.5504,-3.5504,-3.5504,-3.5504,-3.5504,-3.5504,-3.5504,-3.5504,-3.4857,-3.3994,-3.3973,-3.2735,-3.1151,-3.1151,-3.0482,-2.9792,-2.9792,-3.0188,-3.0611,-3.0662,-3.1449,-3.2339,-3.2932,-3.3081,-3.3081,-3.3081,-3.3081,-3.3081,-3.3081,-3.3081,-3.3081,-3.3081,-3.3081,-3.3081,-3.3081,-3.3081,-3.3081,-3.3081,-3.3081,-3.3081,-3.3081,-3.3081,-3.3081,-3.3081,-3.3081,-3.3081,-3.3081,-3.3081,-3.3081,-3.3081,-3.3081,-3.3081,-3.3081,-3.3081,-3.3081,-3.3081,-3.3081,-3.3081,-3.3081,-3.3081,-3.3081,-1.8355,0.0,0.0,0.0,0.0,0.0,0.0,0.0,-2.6703,-2.9302,-3.0168,-3.0871,-3.2202,-3.2792,-3.324,-3.3471,-3.3556,-3.3484,-3.3154,-3.3081,-3.3081,-3.3081,-3.3081,-3.3081,-3.3081,-3.3081,-3.3398,0.0,-3.4275,-3.5061,-3.688,-3.719,-3.7462,-3.7638,-3.6914,-3.616,-3.5484,-3.6446,-3.6808,-3.6505,-3.7508,-3.7868,-3.7659,-3.721,-3.6821,-3.6462,-3.5983,-3.5774,-3.5774,-3.5774,-3.5669,-3.5504,-3.5504,-3.5504,-3.5504,-3.5504,-3.5504,-3.5504,-3.5504,-3.4857,-3.3893,-3.319,-3.2173,-3.11,-3.0431,-3.0035,-2.9792,-2.9792,-3.0188,-3.0813,-3.158,-3.2015,-3.2339,-3.2932,-3.3081,-3.3081,-3.3081,-3.3081,-3.3081,-3.3081,-3.3081,-3.3081,-3.3081,-3.3081,-3.3081,-3.3081,-3.3081,-3.3081,-3.3081,-3.3081,-3.3081,-3.3081,-3.3081,-3.3081,-3.3081,-3.3081,-3.3081,-3.3081,-3.3081,-3.3081,-3.3081,-3.3081,-3.3081,-3.3081,-3.3081,-3.3081,-3.3081,-3.3081,-3.3081,-3.3081,-3.3081,-3.3081,-1.8819,-1.9346,-2.02,-2.0363,0.0,0.0,-2.3477,-2.3954,0.0,0.0,-2.885,-2.9591,-3.1235,-3.1825,-3.219,-3.2641,-3.2717,-3.2805,-3.3043,-3.3081,-3.3081,-3.3081,-3.3081,-3.3081,-3.3081,-3.3471,-3.4037,-3.4664,-3.5047,-3.5732,-3.6745,-3.6807,-3.6524,-3.5989,-3.5362,-3.4727,-3.3927,-3.5319,-3.5755,-3.5378,-3.6737,-3.727,-3.7015,-3.6619,-3.6372,-3.6058,-3.5669,-3.5504,-3.5504,-3.5504,-3.5504,-3.5504,-3.5504,-3.5504,-3.5504,-3.5504,-3.5504,-3.5474,-3.5026,-3.4257,-3.3235,-3.234,-3.1397,-3.0482,-2.9945,-2.9792,-2.9792,-2.9792,-3.0328,-3.1185,-3.2287,-3.261,-3.2635,-3.3043,-3.3081,-3.3081,-3.3081,-3.3081,-3.3081,-3.3081,-3.3081,-3.3081,-3.3081,-3.3081,-3.3081,-3.3081,-3.3081,-3.3081,-3.3081,-3.3081,-3.3081,-3.3081,-3.3081,-3.3081,-3.3081,-3.3081,-3.3081,-3.3081,-3.3081,-3.3081,-3.3081,-3.3081,-3.3081,-3.3081,-3.3081,-3.3081,-3.3081,-3.3081,-3.3081,-3.3081,-3.3081,-3.3081,-1.9698,-2.0012,-2.0966,-2.182,-2.0288,0.0,-2.3904,-2.3452,-2.315,0.0,-2.7507,-2.8072,-2.9754,-3.0168,-3.0532,-3.1424,-3.1775,-3.2215,-3.2968,-3.3081,-3.3081,-3.3081,-3.3081,-3.3081,-3.3081,-3.4037,-3.4746,-3.4815,-3.576,-3.6009,-3.5363,-3.5168,-3.4892,-3.4375,-3.4197,-3.3715,-3.2828,-3.4668,-3.5165,-3.4344,-3.6292,-3.6911,-3.6387,-3.641,-3.6066,-3.5504,-3.5504,-3.5504,-3.5504,-3.5504,-3.5504,-3.5504,-3.5504,-3.5504,-3.5504,-3.5365,-3.5335,-3.5195,-3.4162,-3.3245,-3.2337,-3.1497,-3.0573,-2.9792,-2.9792,-2.9792,-2.9792,-2.9894,-3.0654,-3.1638,-3.2746,-3.3056,-3.3081,-3.3081,-3.3081,-3.3081,-3.3081,-3.3081,-3.3081,-3.3081,-3.3081,-3.3081,-3.3081,-3.3081,-3.3081,-3.3081,-3.3081,-3.3081,-3.3081,-3.3081,-3.3081,-3.3081,-3.3081,-3.3081,-3.3081,-3.3081,-3.3081,-3.3081,-3.3081,-3.3081,-3.3081,-3.3081,-3.3081,-3.3081,-3.3081,-3.3081,-3.3081,-3.3081,-3.3081,-3.3081,-3.3081,-3.3081,-2.1091,-2.1167,-2.1154,-2.0464,-2.0564,0.0,-2.0388,-2.0665,-2.1455,0.0,-2.3803,-2.4607,-2.6276,-2.7318,-2.7858,-2.762,-2.9089,-3.0922,-3.2817,-3.3081,-3.3081,-3.3081,-3.3081,-3.3081,-3.3081,-3.4037,-3.5047,-3.5814,-3.6479,-3.6258,-3.4802,-3.395,-3.3232,-3.272,-3.1811,-3.1436,-3.1523,-3.2663,-3.3522,-3.4096,-3.5288,-3.5818,-3.5699,-3.5729,-3.5639,-3.5504,-3.5504,-3.5504,-3.5504,-3.5504,-3.5504,-3.5504,-3.5504,-3.5504,-3.5379,-3.4593,-3.4286,-3.4147,-3.3216,-3.225,-3.1461,-3.1228,-3.0573,-2.9792,-2.9792,-2.9792,-2.9907,-3.0316,-3.0929,-3.1504,-3.2204,-3.2759,-3.3081,-3.3081,-3.3081,-3.3081,-3.3081,-3.3081,-3.3081,-3.3081,-3.3081,-3.3081,-3.3081,-3.3081,-3.3081,-3.3081,-3.3081,-3.3081,-3.3081,-3.3081,-3.3081,-3.3081,-3.3081,-3.3081,-3.3081,-3.3081,-3.3081,-3.3081,-3.3081,-3.3081,-3.3081,-3.3081,-3.3081,-3.3081,-3.3081,-3.3081,-3.3081,-3.3081,-3.3081,-3.3081,-3.3081,-3.3081,-2.2046,-2.1895,-2.1832,-2.1531,-2.1054,0.0,0.0,-2.0238,-2.0401,-2.2322,-2.2284,-2.2498,-2.4443,-2.5021,-2.5485,-2.6395,-2.7632,-2.9126,-3.0771,-3.1712,-3.2227,-3.2227,-3.2227,-3.2478,-3.2937,-3.3496,-3.4259,-3.5328,-3.5142,-3.4561,-3.3444,-3.2371,-3.159,-3.1022,-3.092,-3.0981,-3.118,-3.2593,-3.3518,-3.4027,-3.4986,-3.5504,-3.5504,-3.5504,-3.5504,-3.5504,-3.5504,-3.5504,-3.5504,-3.5504,-3.5195,-3.4777,-3.532,-3.5195,-3.4703,-3.4162,-3.37,-3.3197,-3.2228,-3.1596,-3.1126,-3.0611,-3.0188,-2.9792,-2.9792,-2.9792,-2.9919,-3.0457,-3.0985,-3.153,-3.2054,-3.2635,-3.3081,-3.3081,-3.3081,-3.3081,-3.3081,-3.3081,-3.3081,-3.3081,-3.3081,-3.3081,-3.3081,-3.3081,-3.3081,-3.3081,-3.3081,-3.3081,-3.3081,-3.3081,-3.3081,-3.3081,-3.3081,-3.3081,-3.3081,-3.3081,-3.3081,-3.3081,-3.3081,-3.3081,-3.3081,-3.3081,-3.3081,-3.3081,-3.3081,-3.3081,-3.3081,-3.3392,-3.3368,-3.3081,-3.3081,-3.3244,-2.3075,-2.2949,-2.3088,-2.3,-2.1933,-2.1108,0.0,0.0,0.0,0.0,0.0,0.0,0.0,0.0,0.0,0.0,0.0,0.0,0.0,-2.9164,0.0,-3.0871,-3.1158,-3.1634,-3.2568,-3.2707,-3.3127,-3.4039,-3.306,-3.217,-3.1793,-3.0904,-3.0322,-3.0088,-3.0833,-3.1389,-3.1742,-3.3241,-3.4095,-3.4312,-3.5133,-3.5504,-3.5504,-3.5504,-3.5504,-3.5504,-3.5504,-3.5504,-3.5489,-3.532,-3.4732,-3.4103,-3.4887,-3.4593,-3.3682,-3.3547,-3.2982,-3.2226,-3.1268,-3.0971,-3.0842,-3.0047,-2.9792,-2.9792,-2.9792,-2.9792,-2.9907,-3.0316,-3.0881,-3.1511,-3.1928,-3.2598,-3.3081,-3.3081,-3.3081,-3.3081,-3.3081,-3.3081,-3.3081,-3.3081,-3.3081,-3.3081,-3.3081,-3.3081,-3.3081,-3.3081,-3.3081,-3.3081,-3.3081,-3.3081,-3.3081,-3.3081,-3.3081,-3.3081,-3.3081,-3.3081,-3.3081,-3.3081,-3.3081,-3.3081,-3.3081,-3.3205,-3.323,-3.323,-3.3333,-3.3396,-3.3408,-3.3814,-3.3771,-3.3269,-3.3395,-3.3621,-2.4695,-2.5247,-2.541,-2.3,-2.369,-2.414,-2.0977,0.0,-2.1838,-2.1295,0.0,0.0,0.0,0.0,0.0,0.0,0.0,0.0,-2.3113,-2.4908,-2.6992,-2.8976,-3.0277,-3.1287,0.0,-3.2074,-3.2113,-3.2471,-3.101,-3.0066,-3.0049,-2.9957,-3.0279,-3.1044,-3.1106,-3.2033,-3.3671,-3.3876,-3.4461,-3.5359,-3.5439,-3.5504,-3.5504,-3.5504,-3.5504,-3.5504,-3.5504,-3.5504,-3.5394,-3.4564,-3.4118,-3.3994,-3.4133,-3.3565,-3.2672,-3.185,-3.1472,-3.1242,-3.0303,-2.9932,-2.9932,-2.9804,-2.9792,-2.9792,-2.9792,-2.9792,-2.9792,-2.9894,-3.0598,-3.1393,-3.1489,-3.2314,-3.3081,-3.3081,-3.3081,-3.3081,-3.3081,-3.3081,-3.3081,-3.3081,-3.3081,-3.3081,-3.3081,-3.3081,-3.3081,-3.3081,-3.3081,-3.3081,-3.3081,-3.3081,-3.3081,-3.3081,-3.3081,-3.3081,-3.3081,-3.3081,-3.3081,-3.3081,-3.3081,-3.3081,-3.3081,-3.3528,-3.3801,-3.3801,-3.4235,-3.4544,-3.4544,-3.4613,-3.4313,-3.3859,-3.4255,-3.457,-2.4494,-2.4908,-2.5071,-2.3238,-2.3,-2.2723,-2.0794,-2.043,-2.0625,0.0,0.0,0.0,0.0,0.0,0.0,0.0,-2.1296,0.0,0.0,0.0,-2.4406,0.0,0.0,0.0,0.0,0.0,0.0,0.0,-2.8885,-2.8592,-2.9227,-2.9616,-3.0203,-3.118,-3.1742,-3.2664,-3.4027,-3.461,-3.4758,-3.4624,-3.5213,-3.5195,-3.4623,-3.5225,-3.5504,-3.5489,-3.4887,-3.4608,-3.4564,-3.3565,-3.2894,-3.2386,-3.2386,-3.2119,-3.1734,-3.1315,-3.0855,-3.0329,-2.9932,-2.9792,-2.9792,-2.9792,-2.9792,-2.9792,-2.9792,-2.9792,-2.9792,-2.9792,-3.0585,-3.1393,-3.1368,-3.2216,-3.3081,-3.3081,-3.3081,-3.3081,-3.3081,-3.3081,-3.3081,-3.3081,-3.3081,-3.3081,-3.3081,-3.3081,-3.3081,-3.3081,-3.3081,-3.3081,-3.3081,-3.3081,-3.3081,-3.3081,-3.3081,-3.3081,-3.3081,-3.3081,-3.3081,-3.3081,-3.245,-3.2179,-3.2487,-3.2759,-3.3346,-3.4326,-3.46,-3.4703,-3.4737,-3.5028,-3.5077,-3.4823,-3.4773,-3.4886,-2.4582,0.0,0.0,0.0,0.0,0.0,0.0,0.0,-2.0588,-2.2105,0.0,0.0,0.0,0.0,-2.012,-2.097,0.0,-2.0376,0.0,-2.0903,0.0,0.0,0.0,0.0,0.0,0.0,0.0,-2.7927,-2.6954,-2.713,-2.8837,-2.9543,-3.0478,-3.1523,-3.2249,-3.3031,-3.4027,-3.4476,-3.4341,-3.3602,-3.4389,-3.4347,-3.3659,-3.4395,-3.4718,-3.4623,-3.395,-3.3607,-3.3514,-3.2607,-3.1843,-3.1151,-3.0881,-3.0842,-3.0842,-3.0842,-3.0431,-2.9792,-2.9792,-2.9792,-2.9792,-2.9792,-2.9792,-2.9792,-2.9792,-2.9792,-2.9792,-2.9792,-3.0585,-3.1393,-3.1368,-3.2216,-3.3081,-3.3081,-3.3081,-3.3081,-3.3081,-3.3081,-3.3081,-3.3081,-3.3081,-3.3081,-3.3081,-3.3081,-3.3081,-3.3081,-3.3081,-3.3081,-3.3081,-3.3081,-3.3081,-3.3081,-3.3081,-3.3081,-3.3081,-3.3081,-3.3192,-3.3341,-3.2621,-3.2338,-3.2775,-3.2904,-3.3633,-3.4887,-3.5067,-3.5145,-3.5207,-3.5587,-3.5794,-3.5755,-3.5366,-3.5194,0.0,0.0,0.0,-2.2485,0.0,0.0,0.0,0.0,-2.3116,0.0,-2.5003,-2.545,-2.5456,-2.3428,-2.1743,-2.1835,-2.0746,0.0,0.0,0.0,0.0,0.0,0.0,0.0,0.0,-2.5628,-2.5476,0.0,-2.5322,-2.5523,-2.875,-2.9805,-3.1047,-3.2508,-3.2593,-3.3031,-3.4027,-3.3101,-3.2678,-3.2664,-3.2654,-3.267,-3.2652,-3.2667,-3.2681,-3.2681,-3.2667,-3.2626,-3.2537,-3.1654,-3.1203,-3.1126,-3.0188,-2.9804,-2.9804,-2.9804,-2.9804,-2.9792,-2.9792,-2.9792,-2.9792,-2.9792,-2.9792,-2.9792,-2.9792,-2.9792,-2.9792,-2.9792,-3.0585,-3.1393,-3.1368,-3.2216,-3.3081,-3.3081,-3.3081,-3.3081,-3.3081,-3.3081,-3.3081,-3.3081,-3.3081,-3.3081,-3.3081,-3.3081,-3.3081,-3.3081,-3.3081,-3.3081,-3.3081,-3.3081,-3.3081,-3.3081,-3.3081,-3.3081,-3.3081,-3.3081,-3.3341,-3.3814,-3.4323,-3.457,-3.4582,-3.5144,-3.5449,-3.5511,-3.6031,-3.6332,-3.632,-3.6345,-3.6345,-3.6332,-3.632,-3.563,0.0,0.0,-2.6063,-2.3276,0.0,0.0,0.0,0.0,0.0,0.0,0.0,-2.4685,-2.4843,-2.3114,-2.157,-2.1233,-2.0396,-1.9359,0.0,0.0,0.0,0.0,0.0,0.0,0.0,0.0,0.0,-2.5099,-2.4757,-2.575,-2.8498,-2.9784,-3.0847,-3.1929,-3.2386,-3.2749,-3.3101,-3.2765,-3.2288,-3.168,-3.2316,-3.2249,-3.1709,-3.2299,-3.2581,-3.2568,-3.1963,-3.1699,-3.1565,-3.0701,-3.0303,-3.0213,-2.9919,-2.9792,-2.9792,-2.9792,-2.9792,-2.9792,-2.9792,-2.9792,-2.9792,-2.9792,-2.9792,-2.9792,-2.9792,-2.9792,-2.9792,-2.9792,-3.0585,-3.1393,-3.1368,-3.2216,-3.3081,-3.3081,-3.3081,-3.3081,-3.3081,-3.3081,-3.3081,-3.3081,-3.3081,-3.3081,-3.3081,-3.3081,-3.3081,-3.3081,-3.3081,-3.3081,-3.3081,-3.3081,-3.3081,-3.3081,-3.3379,-3.3639,-3.3639,-3.3951,-3.3859,-3.329,-3.3385,-3.3696,-3.4018,-3.4244,-3.4887,-3.6031,-3.632,-3.6358,-3.6358,-3.6358,-3.5966,-3.5078,-3.5078,-3.4872,-2.5649,-2.6013,0.0,-2.369,-2.2749,0.0,-2.0547,0.0,-2.2266,0.0,0.0,0.0,-2.5357,-2.3673,-2.2141,-2.1864,-2.05,-1.8957,0.0,-1.8087,0.0,0.0,0.0,0.0,0.0,-2.2789,-2.3554,-2.3978,-2.3954,-2.5052,0.0,0.0,-3.041,-3.1151,-3.1806,-3.2078,-3.2109,-3.1757,-3.1322,-3.0716,-3.1338,-3.1294,-3.0727,-3.1293,-3.1565,-3.1552,-3.0984,-3.0714,-3.0701,-3.0047,-2.9792,-2.9792,-2.9792,-2.9792,-2.9792,-2.9792,-2.9792,-2.9792,-2.9792,-2.9792,-2.9792,-2.9792,-2.9792,-2.9792,-2.9792,-2.9792,-2.9792,-2.9792,-3.0585,-3.1393,-3.1368,-3.2216,-3.3081,-3.3081,-3.3081,-3.3081,-3.3081,-3.3081,-3.3081,-3.3081,-3.3081,-3.3081,-3.3081,-3.3081,-3.3081,-3.3081,-3.3081,-3.3081,-3.3081,-3.323,-3.3366,-3.3366,-3.3827,-3.4145,-3.4173,-3.4679,-3.466,-3.3883,-3.4004,-3.429,-3.4612,-3.4625,-3.5211,-3.6358,-3.6358,-3.6358,-3.6358,-3.6358,-3.5667,-3.4385,-3.4385,-3.3883]},{"header":{"parameterUnit":"m.s-1","parameterCategory":1,"la1":30.6,"la2":29.2853,"lo1":-89.7004,"lo2":-87.6739,"dy":0.0162,"dx":0.0183,"nx":112,"ny":82,"refTime":"2026-02-21T12:00:00:Z","depth":0,"parameterNumber":3,"parameterNumberName":"V-component_of_WINDS"},"data":[0.0,0.0,0.0,0.0,0.0,0.0,0.0,0.0,0.0,0.0,0.0,0.0,0.0,0.0,0.0,0.0,0.0,0.0,0.0,0.0,0.0,0.0,0.0,0.0,0.0,0.0,0.0,0.0,0.0,0.0,0.0,0.0,0.0,0.0,0.0,0.0,0.0,0.0,0.0,0.0,0.0,0.0,0.0,0.0,0.0,0.0,0.0,0.0,0.0,0.0,0.0,0.0,0.0,0.0,0.0,0.0,0.0,0.0,0.0,0.0,0.0,0.0,0.0,0.0,0.0,0.0,0.0,0.0,0.0,0.0,0.0,0.0,0.0,0.0,0.0,0.0,0.0,0.0,0.0,0.0,0.0,0.0,0.0,0.0,0.0,0.0,0.0,0.0,0.0,0.0,-2.852,-2.8971,-2.9247,-2.9148,-2.8373,-2.7466,-2.5969,-2.3583,0.0,0.0,0.0,0.0,0.0,0.0,0.0,0.0,0.0,0.0,0.0,0.0,0.0,0.0,0.0,0.0,0.0,0.0,0.0,0.0,0.0,0.0,0.0,0.0,0.0,0.0,0.0,0.0,0.0,0.0,0.0,0.0,0.0,0.0,0.0,0.0,0.0,0.0,0.0,0.0,0.0,0.0,0.0,0.0,0.0,0.0,0.0,0.0,0.0,0.0,0.0,0.0,0.0,0.0,0.0,0.0,0.0,0.0,0.0,0.0,0.0,0.0,0.0,0.0,0.0,0.0,0.0,0.0,0.0,0.0,0.0,0.0,0.0,0.0,0.0,0.0,0.0,0.0,0.0,0.0,0.0,0.0,0.0,0.0,0.0,0.0,0.0,0.0,0.0,0.0,0.0,0.0,0.0,0.0,0.0,0.0,0.0,0.0,0.0,0.0,0.0,0.0,0.0,0.0,-2.7203,-3.0012,-2.9468,-2.9011,-2.9364,-2.7958,-2.6472,-2.5175,0.0,0.0,0.0,0.0,0.0,0.0,0.0,0.0,0.0,0.0,0.0,0.0,0.0,0.0,0.0,0.0,0.0,0.0,0.0,0.0,0.0,0.0,0.0,0.0,0.0,0.0,0.0,0.0,0.0,0.0,0.0,0.0,0.0,0.0,0.0,0.0,0.0,0.0,0.0,0.0,0.0,0.0,0.0,0.0,0.0,0.0,0.0,0.0,0.0,0.0,0.0,0.0,0.0,0.0,0.0,0.0,0.0,0.0,0.0,0.0,0.0,0.0,0.0,0.0,0.0,0.0,0.0,0.0,0.0,0.0,0.0,0.0,0.0,0.0,0.0,0.0,0.0,0.0,0.0,0.0,0.0,0.0,0.0,0.0,0.0,0.0,0.0,0.0,0.0,0.0,0.0,0.0,0.0,0.0,0.0,0.0,0.0,0.0,0.0,0.0,0.0,0.0,0.0,-2.7322,-2.8146,-3.0388,-3.0103,-2.9597,-2.9213,-2.8502,-2.7208,-2.5189,-2.3559,0.0,0.0,0.0,0.0,0.0,0.0,0.0,0.0,0.0,0.0,0.0,0.0,0.0,0.0,0.0,0.0,0.0,0.0,0.0,0.0,0.0,0.0,0.0,0.0,0.0,0.0,0.0,0.0,0.0,0.0,0.0,0.0,0.0,0.0,0.0,0.0,0.0,0.0,0.0,0.0,0.0,0.0,0.0,0.0,0.0,0.0,0.0,0.0,0.0,0.0,0.0,0.0,0.0,0.0,0.0,0.0,0.0,0.0,0.0,0.0,0.0,0.0,0.0,0.0,0.0,0.0,0.0,0.0,0.0,0.0,0.0,0.0,0.0,0.0,0.0,0.0,0.0,0.0,0.0,0.0,0.0,0.0,0.0,0.0,0.0,0.0,0.0,0.0,0.0,0.0,0.0,0.0,0.0,0.0,0.0,0.0,0.0,0.0,0.0,0.0,0.0,0.0,-2.9032,-2.9379,-3.0325,-3.0419,-3.0077,-2.9201,-2.8771,-2.756,-2.5349,-2.3664,0.0,0.0,0.0,0.0,0.0,0.0,0.0,0.0,0.0,0.0,0.0,0.0,0.0,0.0,0.0,0.0,0.0,0.0,0.0,0.0,0.0,0.0,0.0,0.0,0.0,0.0,0.0,0.0,0.0,0.0,0.0,0.0,0.0,0.0,0.0,0.0,0.0,0.0,0.0,0.0,0.0,0.0,0.0,0.0,0.0,0.0,0.0,0.0,0.0,0.0,0.0,0.0,0.0,0.0,0.0,0.0,0.0,0.0,0.0,0.0,0.0,0.0,0.0,0.0,0.0,0.0,0.0,0.0,0.0,0.0,0.0,0.0,0.0,0.0,0.0,0.0,0.0,0.0,0.0,0.0,0.0,0.0,0.0,0.0,0.0,0.0,0.0,0.0,0.0,0.0,0.0,0.0,0.0,0.0,0.0,0.0,0.0,0.0,0.0,0.0,0.0,0.0,-2.8758,-3.0017,-2.9844,-2.9854,-2.9842,-2.9764,-2.8324,-2.7135,-2.6421,-2.3403,0.0,0.0,0.0,0.0,0.0,0.0,0.0,0.0,0.0,0.0,0.0,0.0,0.0,0.0,0.0,0.0,0.0,0.0,0.0,0.0,0.0,0.0,0.0,0.0,0.0,0.0,0.0,0.0,0.0,0.0,0.0,0.0,0.0,0.0,0.0,0.0,0.0,0.0,0.0,0.0,0.0,0.0,0.0,0.0,0.0,0.0,0.0,0.0,0.0,0.0,0.0,0.0,0.0,0.0,0.0,0.0,0.0,0.0,0.0,0.0,0.0,0.0,0.0,0.0,0.0,0.0,0.0,0.0,0.0,0.0,0.0,0.0,0.0,0.0,0.0,0.0,0.0,0.0,0.0,0.0,0.0,0.0,0.0,0.0,0.0,0.0,0.0,0.0,0.0,0.0,0.0,0.0,0.0,0.0,0.0,0.0,0.0,0.0,0.0,0.0,0.0,0.0,-2.7722,-2.8821,-2.9693,-2.9792,-2.9792,-2.9792,-2.9214,-2.8009,-2.6038,0.0,0.0,0.0,0.0,0.0,0.0,0.0,0.0,0.0,0.0,0.0,0.0,0.0,0.0,0.0,0.0,0.0,0.0,0.0,0.0,0.0,0.0,0.0,0.0,0.0,0.0,0.0,0.0,0.0,0.0,0.0,0.0,0.0,0.0,0.0,0.0,0.0,0.0,0.0,0.0,0.0,0.0,0.0,0.0,0.0,0.0,0.0,0.0,0.0,0.0,0.0,0.0,0.0,0.0,0.0,0.0,0.0,0.0,0.0,0.0,0.0,0.0,0.0,0.0,0.0,0.0,0.0,0.0,0.0,0.0,0.0,0.0,0.0,0.0,0.0,0.0,0.0,0.0,0.0,0.0,0.0,0.0,0.0,0.0,0.0,0.0,0.0,0.0,0.0,0.0,0.0,0.0,0.0,0.0,0.0,0.0,0.0,0.0,0.0,0.0,0.0,0.0,-2.6122,-2.751,-2.877,-2.9919,-2.9892,-2.9867,-3.0043,-2.9239,-2.777,-2.5485,0.0,0.0,0.0,0.0,0.0,0.0,0.0,0.0,0.0,0.0,0.0,0.0,0.0,0.0,0.0,0.0,0.0,0.0,0.0,0.0,0.0,0.0,0.0,0.0,0.0,0.0,0.0,0.0,0.0,0.0,0.0,0.0,0.0,0.0,0.0,0.0,0.0,0.0,0.0,0.0,0.0,0.0,0.0,0.0,0.0,0.0,0.0,0.0,0.0,0.0,0.0,0.0,0.0,0.0,0.0,0.0,0.0,0.0,0.0,0.0,0.0,0.0,0.0,0.0,0.0,0.0,0.0,0.0,0.0,0.0,0.0,0.0,0.0,0.0,0.0,0.0,0.0,0.0,0.0,0.0,0.0,0.0,0.0,0.0,0.0,0.0,0.0,0.0,0.0,0.0,0.0,0.0,0.0,0.0,0.0,0.0,0.0,0.0,0.0,0.0,0.0,0.0,-2.5643,-2.8346,-3.0268,-3.0561,-3.0118,-3.0018,-3.0557,-2.8072,-2.6013,0.0,0.0,0.0,0.0,0.0,0.0,0.0,0.0,0.0,0.0,0.0,0.0,0.0,0.0,0.0,0.0,0.0,0.0,0.0,0.0,0.0,0.0,0.0,0.0,0.0,0.0,0.0,0.0,0.0,0.0,0.0,0.0,0.0,0.0,0.0,0.0,0.0,0.0,0.0,0.0,0.0,0.0,0.0,0.0,0.0,0.0,0.0,0.0,0.0,0.0,0.0,0.0,0.0,0.0,0.0,0.0,0.0,0.0,0.0,0.0,0.0,0.0,0.0,0.0,0.0,0.0,0.0,0.0,0.0,0.0,0.0,0.0,0.0,0.0,0.0,0.0,0.0,0.0,0.0,0.0,0.0,0.0,0.0,0.0,0.0,0.0,0.0,0.0,0.0,0.0,0.0,0.0,0.0,0.0,0.0,0.0,0.0,0.0,0.0,0.0,0.0,0.0,0.0,-2.5588,-2.7987,-2.9744,-2.9982,-2.9892,-2.9854,-3.0018,-2.8913,-2.7067,-2.4406,0.0,0.0,0.0,0.0,0.0,0.0,0.0,0.0,0.0,0.0,0.0,0.0,0.0,0.0,0.0,0.0,0.0,0.0,0.0,0.0,0.0,0.0,0.0,0.0,0.0,0.0,0.0,0.0,0.0,0.0,0.0,0.0,0.0,0.0,0.0,0.0,0.0,0.0,0.0,0.0,0.0,0.0,0.0,0.0,0.0,0.0,0.0,0.0,0.0,0.0,0.0,0.0,0.0,0.0,0.0,0.0,0.0,0.0,0.0,0.0,0.0,0.0,0.0,0.0,0.0,0.0,0.0,0.0,0.0,0.0,0.0,0.0,0.0,0.0,0.0,0.0,0.0,0.0,0.0,0.0,0.0,0.0,0.0,0.0,0.0,0.0,0.0,0.0,0.0,0.0,0.0,0.0,0.0,0.0,0.0,0.0,0.0,0.0,0.0,0.0,0.0,0.0,-2.5236,-2.7954,-2.9921,-3.0123,-2.993,-2.988,-3.0105,-2.9189,-2.7281,-2.4192,0.0,0.0,0.0,0.0,0.0,0.0,0.0,0.0,0.0,0.0,0.0,0.0,0.0,0.0,0.0,0.0,0.0,0.0,0.0,0.0,0.0,0.0,0.0,0.0,0.0,0.0,0.0,0.0,0.0,0.0,0.0,0.0,0.0,0.0,0.0,0.0,0.0,0.0,0.0,0.0,0.0,0.0,0.0,0.0,0.0,0.0,0.0,0.0,0.0,0.0,0.0,0.0,0.0,0.0,0.0,0.0,0.0,0.0,0.0,0.0,0.0,0.0,0.0,0.0,0.0,0.0,0.0,0.0,0.0,0.0,0.0,0.0,0.0,0.0,0.0,0.0,0.0,0.0,0.0,0.0,0.0,0.0,0.0,0.0,0.0,0.0,0.0,0.0,0.0,0.0,0.0,0.0,0.0,0.0,0.0,0.0,0.0,0.0,0.0,0.0,0.0,0.0,-2.4761,-2.8107,-3.0525,-3.0514,-3.0093,-2.9993,-3.0495,-2.9051,-2.6954,-2.4243,0.0,0.0,0.0,0.0,0.0,0.0,0.0,0.0,0.0,0.0,0.0,0.0,0.0,0.0,0.0,0.0,0.0,0.0,0.0,0.0,0.0,0.0,0.0,0.0,0.0,0.0,0.0,0.0,0.0,0.0,0.0,0.0,0.0,0.0,0.0,0.0,0.0,0.0,0.0,0.0,0.0,0.0,0.0,0.0,0.0,0.0,0.0,0.0,0.0,0.0,0.0,0.0,0.0,0.0,0.0,0.0,0.0,0.0,0.0,0.0,-2.206,0.0,0.0,0.0,0.0,0.0,0.0,0.0,0.0,0.0,0.0,0.0,0.0,0.0,0.0,0.0,0.0,0.0,0.0,0.0,0.0,0.0,0.0,0.0,0.0,0.0,0.0,0.0,0.0,0.0,0.0,0.0,0.0,0.0,0.0,0.0,0.0,0.0,0.0,0.0,0.0,0.0,-2.4705,-2.7611,-2.9751,-2.9984,-2.9867,-2.9842,-2.9955,-2.8825,-2.7118,-2.4795,-2.3075,0.0,0.0,0.0,0.0,0.0,0.0,0.0,0.0,0.0,0.0,0.0,0.0,0.0,0.0,0.0,0.0,0.0,0.0,0.0,0.0,0.0,0.0,0.0,0.0,0.0,0.0,0.0,0.0,0.0,0.0,0.0,0.0,0.0,0.0,0.0,0.0,0.0,0.0,0.0,0.0,0.0,0.0,0.0,0.0,0.0,0.0,0.0,0.0,0.0,0.0,0.0,0.0,0.0,0.0,0.0,0.0,0.0,0.0,0.0,0.0,-2.2803,0.0,0.0,0.0,0.0,0.0,0.0,0.0,0.0,0.0,0.0,0.0,0.0,0.0,0.0,0.0,0.0,0.0,0.0,0.0,0.0,0.0,0.0,0.0,0.0,0.0,0.0,0.0,0.0,0.0,0.0,0.0,0.0,0.0,0.0,0.0,0.0,0.0,0.0,0.0,0.0,-2.4309,-2.7037,-2.9067,-2.9328,-2.9377,-2.949,-2.9767,-2.9001,-2.767,-2.5737,-2.4042,0.0,0.0,0.0,0.0,0.0,0.0,0.0,0.0,0.0,0.0,0.0,0.0,0.0,0.0,0.0,0.0,0.0,0.0,0.0,0.0,0.0,0.0,0.0,0.0,0.0,0.0,0.0,0.0,0.0,0.0,0.0,0.0,0.0,0.0,0.0,0.0,0.0,0.0,0.0,0.0,0.0,0.0,0.0,0.0,0.0,0.0,0.0,0.0,0.0,0.0,0.0,0.0,0.0,-2.5779,-2.6089,-2.5711,-2.6126,-2.664,-2.715,-2.5652,-2.5103,-2.5172,-2.4142,0.0,0.0,0.0,0.0,0.0,0.0,0.0,0.0,0.0,0.0,0.0,0.0,0.0,0.0,0.0,0.0,0.0,0.0,0.0,0.0,0.0,0.0,0.0,0.0,-2.871,-2.7826,-2.59,0.0,0.0,0.0,0.0,0.0,0.0,0.0,0.0,0.0,0.0,0.0,-2.4079,-2.6518,-2.8433,-2.8749,-2.8787,-2.8976,-2.9453,-2.8976,-2.8009,-2.6622,-2.5008,-2.3477,0.0,0.0,0.0,0.0,0.0,0.0,0.0,0.0,0.0,0.0,0.0,0.0,0.0,0.0,0.0,0.0,0.0,0.0,0.0,0.0,0.0,0.0,0.0,0.0,0.0,0.0,0.0,0.0,0.0,0.0,0.0,0.0,-2.7776,-2.6398,0.0,0.0,0.0,0.0,0.0,0.0,0.0,0.0,0.0,0.0,0.0,0.0,0.0,-2.4223,-2.5306,-2.5923,-2.638,-2.688,-2.799,-2.8711,-2.9139,-2.9202,-2.9541,-3.0055,-2.9831,0.0,-2.6904,-2.6289,0.0,0.0,0.0,0.0,0.0,0.0,0.0,0.0,0.0,0.0,0.0,0.0,0.0,0.0,0.0,0.0,0.0,0.0,0.0,0.0,0.0,0.0,-3.1401,-3.0877,-3.0122,-2.943,0.0,-2.5976,-2.31,-2.2344,-2.1423,0.0,0.0,0.0,0.0,0.0,0.0,0.0,-2.4476,-2.6304,-2.765,-2.8147,-2.821,-2.8247,-2.8323,-2.7821,-2.7205,-2.6571,-2.536,-2.4406,-2.3703,-2.2058,0.0,0.0,0.0,0.0,0.0,0.0,0.0,0.0,0.0,0.0,0.0,0.0,0.0,0.0,0.0,0.0,0.0,0.0,0.0,0.0,0.0,0.0,0.0,0.0,0.0,0.0,0.0,0.0,0.0,-2.7566,-2.8185,-2.7391,-2.7355,-2.6413,0.0,0.0,0.0,0.0,0.0,0.0,0.0,0.0,0.0,-2.5428,-2.5678,-2.6225,-2.7109,-2.7915,-2.8612,-2.9164,-2.9641,-3.0168,-3.0696,-3.0696,-3.0984,-3.1512,-3.1512,-3.0959,-2.9942,-2.8461,-2.7055,-2.5737,0.0,0.0,0.0,0.0,-2.5371,-2.6037,-2.7592,-2.7493,-2.6791,-2.6961,0.0,0.0,0.0,0.0,0.0,0.0,0.0,0.0,0.0,0.0,-3.1293,-3.1363,-3.0966,-3.0435,-3.0127,-2.7921,-2.5628,0.0,-2.346,-2.2207,-2.0525,0.0,0.0,0.0,0.0,-2.345,-2.4259,-2.5836,-2.703,-2.7582,-2.7645,-2.777,-2.8084,-2.7883,-2.7507,-2.6954,-2.6176,-2.5485,-2.4921,-2.3615,-2.2372,0.0,0.0,0.0,0.0,0.0,0.0,0.0,0.0,0.0,0.0,0.0,0.0,0.0,0.0,0.0,0.0,0.0,0.0,0.0,0.0,0.0,0.0,0.0,0.0,0.0,0.0,0.0,0.0,-2.8012,-2.8721,-2.8224,-2.8273,-2.7224,0.0,0.0,0.0,0.0,0.0,0.0,-2.5236,-2.479,-2.5435,-2.7356,-2.7595,-2.8077,-2.8938,-2.9779,-3.0482,-3.1022,-3.1022,-3.1298,-3.1813,-3.1813,-3.2039,-3.2441,-3.2441,-3.2441,-3.229,-3.0357,-2.8913,-2.7821,-2.6841,-2.6214,-2.5975,-2.6791,-2.7268,-2.7758,-2.9428,-2.9716,-2.9315,-2.9039,-2.8105,-2.6844,-2.5402,0.0,0.0,0.0,0.0,-2.8425,-2.9241,-2.9956,-3.0635,-3.1373,-3.1156,-3.0716,-3.0325,-2.9206,-2.7893,0.0,-2.5308,-2.3861,-2.1821,0.0,0.0,0.0,0.0,-2.4064,-2.4381,-2.5611,-2.6615,-2.703,-2.7067,-2.7243,-2.7657,-2.7682,-2.7507,-2.7105,-2.6691,-2.6264,-2.5837,-2.4895,-2.3791,-2.2548,0.0,0.0,0.0,0.0,0.0,0.0,0.0,0.0,0.0,0.0,0.0,0.0,0.0,0.0,0.0,0.0,0.0,0.0,0.0,0.0,0.0,0.0,0.0,0.0,0.0,0.0,0.0,0.0,0.0,-2.8451,-2.8836,0.0,0.0,0.0,0.0,-2.389,-2.5406,-2.6401,-2.6388,-2.6299,-2.7215,-2.9541,-2.904,-2.9561,-3.1223,-3.1286,-3.1587,-3.2127,-3.2127,-3.2428,-3.2993,-3.2993,-3.3006,-3.3031,-3.3031,-3.3031,-3.2943,-3.175,-3.0633,-2.9603,-2.9001,-2.875,-2.8725,-2.8787,-2.949,-3.0419,-3.0532,-3.0557,-3.0608,-3.1035,-3.0228,-2.8864,-2.8213,-2.7774,0.0,0.0,-2.9049,-2.9882,-3.1117,-3.0845,-3.0415,-3.1069,-3.0545,-2.9856,-2.9831,-2.9289,-2.8536,0.0,-2.5892,-2.4582,-2.3915,0.0,-2.2359,-2.2849,-2.3514,-2.433,-2.5385,-2.6063,-2.6533,-2.6571,-2.6571,-2.6584,-2.6609,-2.6609,-2.6596,-2.6571,-2.6546,-2.6508,-2.6483,-2.572,-2.463,-2.3065,-2.3057,0.0,0.0,0.0,0.0,0.0,0.0,0.0,0.0,0.0,0.0,0.0,0.0,0.0,0.0,0.0,0.0,0.0,0.0,0.0,0.0,0.0,0.0,0.0,0.0,0.0,0.0,0.0,0.0,-2.9997,-3.0631,0.0,-2.6698,-2.6751,-2.675,-2.6095,-2.7011,-2.8058,-2.9063,-2.8355,-2.8795,-3.0796,-3.0144,-3.0495,-3.1913,-3.229,-3.2579,-3.2767,-3.2767,-3.288,-3.3081,-3.3081,-3.3081,-3.3081,-3.3081,-3.3081,-3.3043,-3.2641,-3.2039,-3.1298,-3.0733,-3.052,-3.052,-3.052,-3.0984,-3.1637,-3.1637,-3.1637,-3.1562,-3.106,-3.0502,-2.9974,-2.9414,-2.9359,-2.9654,-2.9848,-3.0115,-3.0361,-3.0851,-3.0469,-3.0036,-3.0228,-3.0075,-2.9792,-2.9792,-2.9628,-2.9365,-2.8976,-2.7268,-2.5586,-2.4682,-2.4192,-2.374,-2.3153,-2.4217,-2.5172,-2.5548,-2.6101,-2.6533,-2.6533,-2.6533,-2.6533,-2.6533,-2.6533,-2.6514,-2.6489,-2.6489,-2.6534,-2.6475,-2.6244,-2.5871,-2.5318,-2.531,-2.3796,0.0,0.0,0.0,0.0,0.0,0.0,0.0,0.0,0.0,0.0,0.0,0.0,0.0,0.0,0.0,0.0,0.0,0.0,0.0,0.0,0.0,0.0,0.0,0.0,0.0,-3.0688,-3.1678,-3.0836,-3.1854,-3.1376,-2.8326,-2.8376,-2.8549,-2.8447,-2.8913,-2.9779,-3.1085,-3.0022,-3.0169,-3.1938,-3.1149,-3.1245,-3.2503,-3.288,-3.3081,-3.3081,-3.3081,-3.3081,-3.3081,-3.3081,-3.3081,-3.3081,-3.3081,-3.3081,-3.3081,-3.3081,-3.2855,-3.2466,-3.2102,-3.1951,-3.1951,-3.1951,-3.219,-3.2503,-3.2503,-3.2503,-3.2353,-3.1449,-3.116,-3.106,-3.0495,-3.0583,-3.0871,-3.0871,-3.0871,-3.0834,-3.0658,-3.0344,-3.0018,-2.9829,-2.9792,-2.9792,-2.9792,-2.9792,-2.9792,-2.9792,-2.8436,-2.7005,-2.6088,-2.5774,-2.5335,-2.4393,-2.5184,-2.5887,-2.5887,-2.6226,-2.6533,-2.6533,-2.6533,-2.6533,-2.6533,-2.6488,-2.6473,-2.6524,-2.6123,-2.5959,-2.5962,-2.6322,-2.6519,-2.6512,-2.6722,-2.5251,-2.1973,0.0,0.0,0.0,0.0,0.0,0.0,0.0,0.0,0.0,0.0,0.0,0.0,0.0,0.0,0.0,0.0,0.0,0.0,0.0,0.0,0.0,0.0,0.0,-3.006,-3.197,-3.2688,-3.0979,-3.2429,-3.2421,-2.9265,-3.0005,-3.0645,-3.067,-3.1135,-3.165,-3.2215,-3.1089,-3.1245,-3.3056,-3.1865,-3.1777,-3.3081,-3.3081,-3.3081,-3.3081,-3.3081,-3.3081,-3.3081,-3.3081,-3.3081,-3.3081,-3.3081,-3.3081,-3.3081,-3.3081,-3.3081,-3.3081,-3.3081,-3.3081,-3.3081,-3.3081,-3.3081,-3.3081,-3.3081,-3.3081,-3.298,-3.2416,-3.224,-3.2139,-3.1599,-3.1436,-3.1436,-3.1436,-3.1436,-3.1298,-3.0796,-3.0645,-3.0482,-2.9942,-2.9804,-2.9792,-2.9792,-2.9792,-2.9792,-2.9792,-2.934,-2.8787,-2.8235,-2.7657,-2.7105,-2.6634,-2.6533,0.0,-2.6533,-2.6533,-2.6533,-2.6533,-2.6533,-2.6533,-2.6533,-2.6502,-2.6499,-2.6499,-2.5418,-2.4782,-2.477,-2.5816,-2.6425,-2.6414,-2.7179,-2.5062,-1.993,0.0,0.0,0.0,0.0,0.0,0.0,0.0,0.0,0.0,0.0,0.0,0.0,0.0,0.0,0.0,0.0,0.0,0.0,0.0,0.0,0.0,-3.0966,-3.1582,-3.1662,-3.3095,-3.376,-3.2737,-3.355,-3.3455,-3.1448,-3.1223,-3.1336,-3.1738,-3.1901,-3.224,-3.2805,-3.1646,-3.162,-3.3068,-3.1865,-3.1777,-3.3081,-3.3081,-3.3081,-3.3081,-3.3081,-3.3081,-3.3081,-3.3081,-3.3081,-3.3081,-3.3081,-3.3081,-3.3081,-3.3081,-3.3081,-3.3081,-3.3081,-3.3081,-3.3081,-3.3081,-3.3081,-3.3081,-3.3081,-3.3081,-3.3056,-3.2893,-3.2842,-3.2817,-3.2667,-3.2616,-3.2616,-3.2616,-3.2315,-3.1951,-3.1813,-3.1198,-3.057,-3.0432,-3.008,-2.9792,-2.9792,-2.9792,-2.9792,-2.9792,-2.9666,-2.9377,-2.88,-2.7908,-2.7231,-2.708,-2.6716,0.0,-2.6533,-2.6533,-2.6533,-2.6533,-2.6533,-2.6533,-2.6533,-2.6502,-2.6475,-2.6531,-2.4645,-2.3542,-2.3553,-2.3866,-2.4162,-2.4359,-2.6495,-2.6872,0.0,0.0,0.0,0.0,0.0,0.0,0.0,0.0,0.0,0.0,0.0,0.0,0.0,0.0,0.0,0.0,0.0,0.0,0.0,0.0,0.0,0.0,-3.2833,-3.3763,-3.4007,-3.479,-3.523,-3.4804,-3.503,-3.4679,-3.3398,-3.2599,-3.2227,-3.2554,-3.2579,-3.2717,-3.3056,-3.2426,-3.2326,-3.3081,-3.2426,-3.2326,-3.3068,-3.3081,-3.3081,-3.3081,-3.3081,-3.3081,-3.3081,-3.3081,-3.3081,-3.3081,-3.3081,-3.3081,-3.3081,-3.3081,-3.3081,0.0,0.0,0.0,0.0,0.0,-3.3081,-3.3081,-3.3081,-3.3081,-3.3081,-3.3081,-3.3081,-3.3081,-3.3081,-3.3081,-3.3081,-3.3081,-3.283,-3.2516,-3.2277,-3.175,-3.1173,-3.0721,-3.0369,-3.0068,-2.9842,-2.9792,-2.9792,-2.9792,-2.9792,0.0,-2.9352,-2.836,-2.7544,-2.7318,-2.6816,-2.6533,-2.6533,-2.6533,-2.6533,-2.6533,-2.6533,-2.6533,-2.6533,-2.6502,0.0,0.0,0.0,-2.3108,-2.3128,-2.4025,0.0,0.0,0.0,0.0,0.0,0.0,0.0,0.0,-2.2407,-2.2328,0.0,0.0,0.0,0.0,0.0,0.0,0.0,0.0,0.0,0.0,0.0,0.0,0.0,0.0,0.0,0.0,-3.4592,-3.6052,-3.6677,-3.6747,-3.668,-3.6646,-3.6382,-3.5734,-3.4664,-3.3628,-3.3081,-3.3081,-3.3081,-3.3081,-3.3081,0.0,0.0,0.0,0.0,-3.3081,-3.3081,-3.3081,-3.3081,-3.3081,-3.3081,-3.3081,-3.3081,-3.3081,-3.3081,-3.3081,-3.3081,-3.3081,-3.3081,-3.3081,-3.3081,-3.3081,-3.3081,-3.3081,-3.3081,-3.3081,-3.3081,-3.3081,-3.3081,0.0,0.0,-3.3081,-3.3081,-3.3081,-3.3081,-3.3081,-3.3081,-3.3081,-3.3081,-3.2955,-3.2441,-3.2277,-3.2084,-3.1103,-3.0683,-3.0353,-2.9905,-2.9792,-2.9792,-2.9792,-2.9792,-2.9792,-2.9792,-2.89,-2.8009,-2.7457,-2.6904,-2.6596,-2.6533,-2.6533,-2.6533,-2.6533,0.0,0.0,-2.6533,-2.6502,-2.5611,-2.3616,-2.3256,-2.3133,-2.3124,-2.5047,-2.5189,-2.3119,-2.3366,-2.345,-2.3457,-2.3457,-2.347,-2.3568,-2.6224,-2.6048,0.0,0.0,0.0,0.0,0.0,0.0,0.0,0.0,0.0,0.0,0.0,0.0,0.0,0.0,0.0,-3.4505,-3.6124,-3.7476,-3.8087,-3.8113,-3.7428,-3.5773,-3.5931,-3.5507,-3.3543,-3.324,-3.3081,-3.3081,-3.3081,-3.3081,-3.3081,-3.3081,-3.3081,-3.3081,-3.3081,-3.3081,-3.3081,-3.3081,-3.3081,-3.3081,0.0,0.0,-3.3081,-3.3081,-3.3081,-3.3081,-3.3081,-3.3081,-3.3081,-3.3081,-3.3081,-3.3081,-3.3081,-3.3081,-3.3081,-3.3081,-3.3081,-3.3081,-3.3081,-3.3081,-3.3081,-3.3081,-3.3081,-3.3081,-3.3081,-3.3081,0.0,-3.3081,-3.3081,-3.3056,-3.2943,-3.2971,-3.2893,-3.2667,-3.1221,-2.994,-2.9789,-2.9792,-2.9792,-2.9792,-2.9792,-2.9792,-2.9792,-2.9227,-2.8586,-2.8034,-2.7482,-2.6967,-2.6584,-2.6533,-2.6533,-2.6533,-2.6533,-2.6533,-2.6533,-2.6502,-2.6289,-2.5845,-2.4128,-2.3075,-2.3119,-2.3511,-2.3563,-2.3107,-2.4887,-2.5829,-2.5819,-2.5819,-2.5807,-2.5844,-2.6457,-2.6405,0.0,0.0,0.0,0.0,0.0,0.0,0.0,0.0,0.0,0.0,0.0,-3.1679,-3.3051,0.0,-3.5793,-3.6286,-3.7415,-3.8288,-3.8488,-3.8446,-3.7912,-3.6694,-3.6345,-3.5574,-3.4024,-3.3398,-3.3081,-3.3081,-3.3081,-3.3081,-3.3081,-3.3081,-3.3081,-3.3081,-3.3081,-3.3081,-3.3081,-3.3081,-3.3081,-3.3081,-3.3081,-3.3081,-3.3081,-3.3081,-3.3081,-3.3081,-3.3081,-3.3081,-3.3081,-3.3081,-3.3081,-3.3081,-3.3081,-3.3081,-3.3081,-3.3081,-3.3081,-3.3081,-3.3081,-3.3081,-3.3081,-3.3081,-3.3081,-3.3081,-3.3081,-3.3081,-3.3081,-3.3081,-3.3081,-3.3081,-3.3081,-3.3126,-3.3081,-3.3098,-3.182,-3.0455,-2.992,-2.9839,-2.9792,-2.9792,-2.9792,-2.9792,-2.9792,-2.9553,-2.929,-2.8999,-2.7788,-2.6769,-2.6569,-2.6532,-2.6532,-2.6532,-2.6532,-2.6532,-2.6532,-2.6514,-2.6519,-2.6524,-2.5451,-2.4785,-2.4785,-2.4766,-2.4828,-2.4797,-2.5917,-2.6514,-2.6511,-2.6511,-2.6471,-2.6482,-2.6488,-2.6527,0.0,0.0,0.0,0.0,0.0,0.0,0.0,-3.0549,-3.1223,-3.268,-3.3542,-3.4508,-3.6072,-3.7078,-3.7638,-3.7697,-3.8451,-3.8827,-3.8476,-3.8497,-3.8322,-3.7605,-3.6696,-3.5734,-3.4511,-3.3641,-3.3081,-3.3081,-3.3081,-3.3081,-3.3081,-3.2884,-3.2698,-3.2698,-3.2698,-3.2698,-3.2698,-3.2982,-3.3081,-3.3081,-3.3081,-3.3081,-3.3081,-3.3081,-3.3081,-3.3081,-3.3081,-3.3081,-3.3081,-3.3081,-3.3081,-3.3081,-3.3081,-3.3081,-3.3081,-3.3081,-3.3081,-3.3081,-3.3081,-3.3081,-3.3081,-3.3081,-3.3081,-3.3081,-3.3081,-3.3081,-3.3081,-3.3081,-3.3081,-3.3081,-3.3081,-3.3081,-3.3079,-3.3089,-3.2384,-3.1379,-3.0072,-2.9795,-2.9792,-2.9792,-2.9792,-2.9792,-2.9792,-2.9792,-2.9833,-2.9808,-2.83,-2.7005,-2.6554,-2.6518,-2.6651,-2.7115,-2.7127,-2.7127,-2.7127,-2.6734,-2.6466,-2.6493,-2.6523,-2.6489,-2.6514,-2.6501,-2.6483,-2.6523,-2.6523,-2.6515,-2.6488,-2.6946,-2.7157,-2.7127,-2.7127,-2.7151,-3.3077,-3.1525,-3.0679,-3.1256,-3.141,-3.2167,0.0,-3.5435,-3.5571,-3.7209,-3.7624,-3.7775,-3.8001,-3.8476,-3.8572,-3.7817,-3.8806,-3.9377,-3.8536,-3.8916,-3.8532,-3.659,-3.6277,-3.5426,-3.3471,-3.3154,-3.3081,-3.3081,-3.3081,-3.3081,-3.3081,-3.2052,-3.14,-3.14,-3.14,-3.14,-3.14,-3.2513,-3.3081,-3.3081,-3.3081,-3.3081,-3.3081,-3.3081,-3.3081,-3.3081,-3.3081,-3.3081,-3.3081,-3.3081,-3.3081,-3.3081,-3.3081,-3.3081,-3.3081,-3.3081,-3.3081,-3.3081,-3.3081,-3.3081,-3.3081,-3.3081,-3.3081,-3.3081,-3.3081,-3.3081,-3.3081,-3.3081,-3.3081,-3.3081,-3.3081,-3.3081,-3.3079,-3.3089,-3.2969,-3.2354,-3.0214,-2.9795,-2.9792,-2.9792,-2.9792,-2.9792,-2.9792,-2.9792,-2.9833,-2.9808,-2.9567,-2.8687,-2.6724,-2.6518,-2.7249,-2.9237,-2.94,-2.94,-2.94,-2.7665,-2.6505,-2.6505,-2.6493,-2.6481,-2.6528,-2.6516,-2.6468,-2.6493,-2.6493,-2.6542,-2.6469,-2.8502,-2.9434,-2.94,-2.9412,-2.9452,-3.5482,-3.4257,-3.3468,-3.3833,-3.4257,-3.4899,-3.5983,-3.6763,-3.7493,-3.8356,-3.937,-4.0024,-3.9704,-3.9537,-3.9323,-3.9007,-3.8497,-3.8113,-3.8032,-3.796,-3.7089,-3.5058,-3.5537,-3.5233,-3.325,-3.3628,-3.3797,-3.3154,-3.3081,-3.2797,-3.2052,-3.15,-3.0855,-3.0124,-3.0855,-3.1223,-3.1223,-3.1689,-3.1965,-3.1965,-3.1323,-3.0956,-3.0968,-3.1689,-3.2426,-3.3081,-3.3081,-3.3081,-3.3081,-3.3081,-3.3081,-3.3081,-3.3081,-3.3081,-3.3081,-3.3081,-3.3081,-3.3081,-3.3081,-3.3081,-3.3081,-3.3081,-3.3081,-3.3081,-3.3081,-3.3081,-3.3081,-3.3081,-3.3081,-3.3081,-3.3081,-3.3081,-3.3129,-3.3076,-3.3122,-3.2453,-3.0244,-2.9831,-2.9795,-2.9829,-2.9792,-2.9792,-2.9792,-2.9792,-2.9819,-2.9834,-2.9821,-2.9479,-2.8498,-2.8436,-2.88,-2.9719,-2.9833,-2.9769,-2.9789,-2.8961,-2.8448,-2.8394,-2.8381,-2.8381,-2.8381,-2.8381,-2.8381,-2.8381,-2.8381,-2.8409,-2.8449,-2.9361,-2.9804,-2.9833,-2.983,-2.9766,-3.6309,-3.5776,-3.5575,-3.5959,-3.6846,-3.7477,-3.7005,-3.8089,-3.92,-3.9161,-4.0172,-4.0937,-4.0566,-4.0092,-3.9749,-3.9709,-3.8335,-3.7401,-3.7546,-3.7152,-3.6005,-3.386,-3.4994,-3.5077,-3.2853,-3.37,-3.4022,-3.3142,-3.2797,-3.214,-3.1223,-3.0586,-2.9772,-2.8958,-2.9772,-3.0226,-3.0226,-3.0496,-3.0676,-3.0676,-2.9863,-2.9579,-2.9954,-3.1134,-3.2239,-3.3081,-3.3081,-3.3081,-3.3081,-3.3081,-3.3081,-3.3081,-3.3081,-3.3081,-3.3081,-3.3081,-3.3081,-3.3081,-3.3081,-3.3081,-3.3081,-3.3081,-3.3081,-3.3081,-3.3081,-3.3081,-3.3081,-3.3081,-3.3081,-3.3081,-3.3081,-3.3081,-3.3081,-3.3081,-3.3085,-3.2675,-3.1026,-3.0264,-2.9824,-2.9824,-2.9777,-2.9792,-2.9792,-2.9792,-2.9792,-2.9792,-2.9792,-2.9792,-2.9792,-2.9792,-2.9792,-2.9792,-2.9792,-2.9768,-2.9771,-2.9821,-2.9795,-2.9776,-2.9838,-2.9838,-2.9838,-2.9838,-2.9838,-2.9838,-2.9838,-2.9804,-2.9821,-2.9821,-2.9796,-2.9779,-2.9808,-3.0336,-3.4584,-3.4911,-3.5816,-3.7106,-3.869,-3.9811,-3.9471,-4.0488,-4.1249,-4.043,-4.0244,-4.022,-4.022,-3.9905,-3.9617,-3.9424,-3.8742,-3.7901,-3.7157,-3.6878,-3.5864,-3.3341,-3.4803,-3.479,-3.1737,-3.2791,-3.3593,-3.3116,-3.1965,-3.1223,-3.1223,-2.8947,-2.7673,-2.7683,-2.7673,-2.7683,-2.7683,-2.8855,-2.9498,-2.9498,-2.9407,-3.0045,-3.1223,-3.2426,-3.3081,-3.3081,-3.3081,-3.3081,-3.3081,-3.3081,-3.3081,-3.3081,-3.3081,-3.3081,-3.3081,-3.3081,-3.3081,-3.3081,-3.3081,-3.3081,-3.3081,-3.3081,-3.3081,-3.3081,-3.3081,-3.3081,-3.3081,-3.3081,-3.3081,-3.3081,-3.3081,-3.3081,-3.3081,-3.3081,-3.3085,-3.3084,-3.3046,-3.1348,-2.9806,-2.9794,-2.977,-2.9792,-2.9792,-2.9792,-2.9792,-2.9792,-2.9792,-2.9792,-2.9792,-2.9792,-2.9792,-2.9792,-2.9792,-2.9792,-2.9779,-2.9779,-2.9779,-2.9767,-2.9767,-2.9767,-2.9767,-2.9767,-2.9767,-2.9767,-2.9767,-2.9767,-2.9779,-2.9779,-2.9779,-2.9792,-2.9779,-3.1753,-3.6546,-3.7175,-3.8019,-3.9624,-4.0677,-4.1113,-4.0225,-4.0831,-4.1303,-4.024,-4.0015,-4.0047,-4.0167,-3.8977,-3.8162,-3.8623,-3.697,-3.565,-3.5874,-3.5187,-3.4032,-3.2153,-3.3306,-3.3377,-3.1099,-3.229,-3.3008,-3.2537,-3.1331,-3.049,-3.0022,-2.8505,-2.722,-2.639,-2.7125,-2.7589,-2.7589,-2.8049,-2.8226,-2.8226,-2.8226,-2.8866,-3.0045,-3.1323,-3.2326,-3.3081,-3.3081,-3.3081,-3.3081,-3.3081,-3.3081,-3.3081,-3.3081,-3.3081,-3.3081,-3.3081,-3.3081,-3.3081,-3.3081,-3.3081,-3.3081,-3.3081,-3.3081,-3.3081,-3.3081,-3.3081,-3.3081,-3.3081,-3.3081,-3.3081,-3.3081,-3.3081,-3.3081,-3.3081,-3.3079,-3.311,-3.3064,-3.251,-3.1574,-3.0102,-2.9776,-2.9804,-2.9804,-2.9774,-2.9792,-2.9792,-2.9792,-2.9792,-2.9792,-2.9792,-2.9792,-2.9792,-2.9792,-2.9792,-2.9792,-2.9792,-2.9792,-2.9792,-2.9792,-2.9792,-2.9792,-2.9792,-2.9792,-2.9792,-2.9792,-2.9792,-2.9792,-2.9792,-2.9782,-2.9832,-2.9822,-3.0461,-3.8007,-3.8812,-3.9622,-4.1535,-4.2152,-4.1977,-4.0855,-4.1026,-4.0966,-3.9375,-3.9038,-3.898,-3.8819,-3.7456,-3.6652,-3.7649,-3.566,-3.4257,-3.4893,-3.4204,-3.295,-3.1013,-3.181,-3.1721,-2.9755,-3.0515,-3.143,-3.2164,-3.0877,-2.988,-2.9385,-2.7851,-2.6572,-2.5732,-2.6476,-2.6945,-2.6945,-2.6945,-2.7125,-2.7589,-2.8038,-2.8866,-3.0045,-3.1323,-3.2339,-3.3081,-3.3081,-3.3081,-3.3081,-3.3081,-3.3081,-3.3081,-3.3081,-3.3081,-3.3081,-3.3081,-3.3081,-3.3081,-3.3081,-3.3081,-3.3081,-3.3081,-3.3081,-3.3081,-3.3081,-3.3081,-3.3081,-3.3081,-3.3081,-3.3081,-3.3081,-3.3081,-3.3081,-3.3081,-3.3081,-3.3104,-3.306,-3.3089,-3.2688,-3.122,-3.0979,-3.075,-2.9948,-2.977,-2.9792,-2.9792,-2.9792,-2.9792,-2.9792,-2.9792,-2.9792,-2.9792,-2.9792,-2.9792,-2.9792,-2.9792,-2.9792,-2.9792,-2.9792,-2.9792,-2.9792,-2.9792,-2.9792,-2.9792,-2.9792,-2.9792,-2.9792,-2.9792,-2.977,-2.9812,-3.1229,-3.1856,-3.9008,-3.9846,-4.0703,-4.2837,-4.3072,-4.2507,-4.1342,-4.1056,-4.0304,-3.7918,-3.7379,-3.7074,-3.6303,-3.5472,-3.5322,-3.6477,-3.4922,-3.3718,-3.4284,-3.399,-3.2649,-2.9929,-3.0453,-3.0143,-2.7895,-2.7754,-2.8925,-3.1816,0.0,-2.9282,-2.9407,-2.702,-2.5742,-2.5742,-2.5742,-2.5742,-2.5742,-2.5732,-2.638,-2.7589,-2.8866,-3.0135,-3.1223,-3.2513,-3.3081,-3.3081,-3.3081,-3.3081,-3.3081,-3.3081,-3.3081,-3.3081,-3.3081,-3.3081,-3.3081,-3.3081,-3.3081,-3.3081,-3.3081,-3.3081,-3.3081,-3.3081,-3.3081,-3.3081,-3.3081,-3.3081,-3.3081,-3.3081,-3.3081,-3.3081,-3.3081,-3.3081,-3.3081,-3.3081,-3.3081,-3.3081,-3.3081,-3.3085,-3.3122,-3.3122,-3.2985,-3.229,-3.0181,-2.977,-2.9792,-2.9792,-2.9792,-2.9792,-2.9792,-2.9792,-2.9792,-2.9792,-2.9792,-2.9792,-2.9792,-2.9792,-2.9792,-2.9792,-2.9792,-2.9792,-2.9792,-2.9792,-2.9792,-2.9792,-2.9792,-2.9792,-2.9792,-2.9767,-2.9809,-2.9886,-3.3735,-3.5468,-4.1511,-4.2469,-4.3066,-4.4033,-4.3521,-4.2512,-4.1374,-4.0175,-3.8799,-3.6982,-3.5605,-3.4669,-3.4486,-3.4117,-3.4189,-3.511,-3.467,-3.42,-3.4311,-3.3738,-3.2519,-3.0479,-3.0384,-2.9777,-2.7852,-2.8077,-2.8711,0.0,-2.8239,-2.8023,-2.9293,-2.702,-2.5742,-2.5742,-2.5742,-2.5742,-2.5742,-2.6668,-2.7315,-2.7589,-2.9772,-3.0855,-3.1223,-3.2513,-3.3081,-3.3081,-3.3081,-3.3081,-3.3081,-3.3081,-3.3081,-3.3081,-3.3081,-3.3081,-3.3081,-3.3081,-3.3081,-3.3081,-3.3081,-3.3081,-3.3081,-3.3081,-3.3081,-3.3081,-3.3081,-3.3081,-3.3081,-3.3081,-3.3081,-3.3081,-3.3081,-3.3081,-3.3081,-3.3081,-3.3081,-3.3081,-3.3081,-3.3104,-3.3126,-3.3126,-3.1793,-3.0425,-2.9886,-2.9764,-2.9792,-2.9792,-2.9792,-2.9792,-2.9792,-2.9792,-2.9792,-2.9792,-2.9792,-2.9792,-2.9792,-2.9792,-2.9792,-2.9792,-2.9792,-2.9792,-2.9792,-2.9792,-2.9792,-2.9792,-2.9792,-2.9792,-2.9792,-2.9808,-2.9835,-2.9915,-3.369,-3.5481,-4.3162,-4.3885,-4.4218,-4.4518,-4.3577,-4.2149,-4.0441,-3.935,-3.7936,-3.5238,-3.4211,-3.3587,-3.2871,-3.2693,-3.2928,-3.3979,-3.3759,-3.3679,-3.4209,-3.3096,-3.1668,-3.0101,-2.9532,-2.8519,-2.6996,-2.7125,-2.7551,-2.8104,-2.7458,-2.7575,-2.8577,-2.6754,-2.5917,-2.6476,-2.6572,-2.6754,-2.7295,-2.8038,-2.868,-2.9223,-3.0586,-3.15,-3.2052,-3.2797,-3.3081,-3.3081,0.0,-3.3081,-3.3081,-3.3081,-3.3081,-3.3081,-3.3081,-3.3081,-3.3081,-3.3081,-3.3081,-3.3081,-3.3081,-3.3081,-3.3081,-3.3081,-3.3081,-3.3081,-3.3081,-3.3081,-3.3081,-3.3081,-3.3081,-3.3081,-3.3081,-3.3081,-3.3081,-3.3081,-3.3081,-3.3081,-3.3081,-3.3081,-3.3079,-3.3127,-3.1335,-2.9825,-2.9802,-2.9792,-2.9792,-2.9792,-2.9792,-2.9792,-2.9792,-2.9792,-2.9792,-2.9792,-2.9792,-2.9792,-2.9792,-2.9792,-2.9792,-2.9792,-2.9792,-2.9792,-2.9792,-2.9792,-2.9792,-2.9792,-2.9792,-2.9789,-2.977,-2.9809,-3.066,-3.2364,-3.4469,-3.6123,-4.4412,-4.4739,-4.4789,-4.4643,-4.3405,-4.1618,-3.9368,-3.8524,-3.7147,-3.3385,-3.2999,-3.2852,-3.1347,-3.1337,-3.1949,-3.3208,-3.2936,-3.3043,-3.4261,-3.2612,-3.085,-2.9579,-2.8319,-2.7125,-2.583,-2.583,-2.638,-2.7494,-2.7767,-2.7861,-2.7861,-2.6658,-2.6572,-2.7778,-2.7861,-2.8319,-2.9407,-2.959,-3.0135,-3.1223,-3.14,-3.2052,-3.3081,-3.3081,-3.3081,-3.3081,-3.3081,-3.3081,-3.3068,-3.3091,-3.3054,-3.3139,-3.3063,-3.3123,-3.3136,-3.3114,-3.3054,-3.3066,-3.3142,-3.3081,-3.3081,-3.3081,-3.3081,-3.3081,-3.3081,-3.3081,-3.3081,-3.3081,-3.3081,-3.3081,-3.3081,-3.3081,-3.3068,-3.3104,-3.3129,-3.3068,-3.3104,-3.3104,-3.3035,-3.2757,-3.109,-2.9787,-2.9777,-2.9792,-2.9792,-2.9792,-2.9792,-2.9792,-2.9792,-2.9792,-2.9792,-2.9792,-2.9792,-2.9792,-2.9792,-2.9792,-2.9792,-2.9792,-2.9792,-2.9817,-2.9777,-2.9777,-2.9802,-2.9839,-2.9839,-2.9795,-2.9769,-3.0074,-3.2248,-3.6014,-3.6028,-3.7246,-4.622,-4.6241,-4.5784,-4.4827,-4.3137,-4.1393,-4.0013,-3.7588,-3.5045,-3.301,-3.1659,-3.054,-2.9604,-3.0731,-3.2183,-3.3231,-3.3788,-3.4379,-3.5082,-3.3186,-3.1148,-2.9613,-2.8319,-2.7125,-2.583,-2.6668,-2.74,-2.7589,-2.8495,-2.905,-2.905,-2.7945,-2.7861,-2.9039,-2.905,-2.9223,-2.9407,-3.0406,-3.0944,-3.1223,-3.2239,-3.2896,-3.3081,-3.3081,-3.3081,-3.3081,-3.3081,0.0,-3.3129,-3.311,-3.3098,-3.3142,-3.3112,-3.3104,-3.3062,-3.3109,-3.3098,-3.3078,-3.3101,-3.3081,-3.3081,-3.3081,-3.3081,-3.3081,-3.3081,-3.3081,-3.3081,-3.3081,-3.3081,-3.3081,-3.3081,-3.3081,-3.3091,-3.3081,-3.3136,-3.3091,-3.3068,-3.3089,-3.2599,-3.071,-3.0034,-2.9787,-2.9777,-2.9792,-2.9792,-2.9792,-2.9792,-2.9792,-2.9792,-2.9792,-2.9792,-2.9792,-2.9792,-2.9792,-2.9792,-2.9792,-2.9792,-2.9792,-2.9792,-2.9839,-2.9799,-2.9811,-2.9764,-2.9768,-2.9768,-2.9757,-2.9808,-3.1638,-3.4632,-3.8718,-3.8751,-3.8967,-4.7048,-4.6641,-4.5855,-4.5106,-4.3103,-4.0757,-3.8529,-3.6468,-3.4183,-3.1304,-3.0448,-2.9953,-2.914,-3.0585,-3.2063,-3.247,-3.3346,-3.4057,-3.452,-3.2127,-3.011,-2.9432,-2.7767,-2.639,-2.5732,-2.6849,-2.7589,-2.7589,-2.868,-2.9407,-2.9407,-2.9407,-2.9772,-3.0316,-3.0956,-3.1335,-3.1335,-3.1877,-3.2152,-3.2239,-3.2797,-3.3081,-3.3081,-3.3081,-3.3081,-3.3081,-3.3081,-3.3081,-3.3129,-3.3091,-3.3736,-3.4693,-3.4727,-3.4687,-3.4727,-3.4735,-3.4035,-3.3081,-3.3079,-3.3081,-3.3081,-3.3081,-3.3081,-3.3081,-3.3081,-3.3081,-3.3081,-3.3081,-3.3081,-3.3081,-3.3081,-3.3081,-3.3129,-3.3136,-3.3085,-3.3068,-3.3072,-3.2168,-3.1091,-3.0034,-2.9829,-2.9824,-2.9817,-2.9792,-2.9792,-2.9792,-2.9792,-2.9792,-2.9792,-2.9792,-2.9792,-2.9792,-2.9792,-2.9792,-2.9792,-2.9792,-2.9792,-2.9792,-2.9799,-2.9804,-2.9806,-3.0896,-3.1542,-3.1518,-3.1508,-3.1503,-3.1493,-3.4789,-3.7401,-3.9387,-3.9379,-3.9425,-4.743,-4.6803,-4.5959,-4.5338,-4.313,-4.0304,-3.7239,-3.5624,-3.3688,-3.0026,-2.9622,-2.9751,-2.9104,-3.0392,-3.1649,-3.1994,-3.2814,-3.3566,-3.394,-3.1468,-2.9597,-2.9218,-2.761,-2.638,-2.61,-2.7484,-2.8402,-2.8402,-2.9498,-3.0045,-2.9772,-3.0956,-3.1589,-3.1589,-3.2612,-3.3081,-3.3081,-3.3081,-3.3081,-3.3081,-3.3081,-3.3081,-3.3081,-3.3081,-3.3081,-3.3081,-3.3081,-3.3081,-3.3129,-3.3091,-3.4624,-3.688,-3.691,-3.6886,-3.6811,-3.5829,-3.4502,-3.3101,-3.3129,-3.3081,-3.3081,-3.3081,-3.3081,-3.3081,-3.3081,-3.3081,-3.3081,-3.3081,-3.3081,-3.3081,-3.3081,-3.3081,-3.3081,-3.3081,-3.2764,-3.2394,-3.2377,-3.0998,-2.9819,-2.9843,-2.9845,-2.9802,-2.9804,-2.9792,-2.9792,-2.9792,-2.9792,-2.9792,-2.9792,-2.9792,-2.9817,-2.9814,-2.9842,-2.9792,-2.9792,-2.9792,-2.9817,-2.9814,-2.9829,-3.0034,-3.053,-3.2158,-3.3066,-3.3131,-3.3119,-3.3528,-3.4485,-3.7753,-3.9387,-3.937,-3.94,-3.9424,-4.7583,-4.7239,-4.6675,-4.5487,-4.313,-4.0451,-3.7955,-3.5587,-3.3183,-3.0613,-2.9586,-2.9085,-2.8994,-2.974,-3.0925,-3.2619,0.0,-3.3665,-3.4099,-3.301,-3.1293,-2.8922,-2.8865,-2.8588,-2.7494,-2.9498,-3.0855,-3.0855,-3.2052,-3.2239,-3.1134,-3.2239,-3.2896,-3.2896,-3.3068,-3.3081,-3.3081,-3.3081,-3.3081,-3.3081,-3.3081,-3.3081,-3.3081,-3.3081,-3.3081,-3.3081,-3.3081,-3.3081,0.0,-3.3091,-3.5435,-3.9072,-3.9102,-3.9089,-3.8615,-3.4777,-3.3225,-3.311,-3.3076,-3.3081,-3.3081,-3.3081,-3.3081,-3.3081,-3.3081,-3.3081,-3.3081,-3.3081,-3.3081,-3.3081,-3.3081,-3.3081,-3.3081,-3.3081,-3.1612,-3.0109,-3.0085,-2.9905,-2.9842,-2.9757,-2.9794,-2.9829,-2.9764,-2.9792,-2.9792,-2.9792,-2.9792,-2.9792,-2.9792,-2.9792,-2.9827,-2.9811,-2.9811,-2.9792,-2.9792,-2.9792,-2.9761,-2.9824,-2.9794,-3.0667,-3.2733,-3.3014,-3.3125,-3.3109,-3.3077,-3.4981,-3.8783,-3.9218,-3.9417,-3.9412,-3.9367,-3.9424,-4.7457,-4.721,-4.6611,-4.6059,-4.35,-4.0515,-3.8322,-3.5725,-3.3109,-3.0705,-2.9567,-2.8994,-2.8994,-2.9659,-3.0527,0.0,0.0,0.0,-3.2463,-3.1119,-2.9702,-2.8417,-2.7646,-2.7409,-2.7537,-2.9131,-3.0777,-3.2239,-3.2797,-3.2884,-3.2339,-3.2797,-3.3081,-3.3081,-3.3081,-3.3081,-3.3081,-3.3081,-3.3081,-3.3081,-3.3081,-3.3081,-3.3081,-3.3081,-3.3081,-3.3081,-3.3081,-3.3081,0.0,-3.3091,-3.4058,-3.5613,-3.5639,-3.5625,-3.544,-3.3727,-3.3078,-3.3132,-3.3091,-3.3081,-3.3081,-3.3081,-3.3081,-3.3081,-3.3081,-3.3081,-3.3081,-3.3081,-3.3081,-3.3081,-3.3081,-3.3081,-3.3116,-3.3085,-3.2403,-3.1822,-3.1788,-3.1833,-3.1789,-3.1762,-3.0738,-2.9787,-2.9777,-2.9792,-2.9792,-2.9792,-2.9792,-2.9792,-2.9792,-2.9792,-2.9761,-2.9782,-2.9774,-2.9774,-2.9788,-2.9801,-2.9788,-2.9819,-3.1079,-3.2217,-3.3075,-3.3083,-3.427,-3.6847,-3.6915,-3.7682,-3.9396,-3.9372,-3.9415,-3.9424,-3.9424,-3.9424,-4.634,-4.6376,-4.6102,-4.5927,-4.3494,-4.0515,-3.8359,-3.5734,-3.3109,-3.0705,-2.9567,-2.8994,-2.8994,-2.9659,-3.0325,0.0,0.0,-3.1373,-3.1451,-3.0157,-2.8945,-2.8179,-2.7595,-2.7525,-2.8087,-2.9602,-3.1235,-3.2982,-3.3081,-3.3081,-3.3081,-3.3081,-3.3081,-3.3081,-3.3081,-3.3081,-3.3081,-3.3081,-3.3081,-3.3081,-3.3081,-3.3081,-3.3081,-3.3081,-3.3081,-3.3081,-3.3081,-3.3081,0.0,-3.3102,-3.3117,-3.3078,-3.3118,-3.3114,-3.3117,-3.3117,-3.3127,-3.3114,-3.3129,-3.3104,-3.3114,-3.3129,-3.3104,-3.3101,-3.3101,-3.3101,-3.3101,-3.3101,-3.3091,-3.3081,-3.3081,-3.3081,-3.3104,-3.3132,-3.3068,-3.3089,-3.311,-3.3065,-3.3062,-3.3088,-3.1293,-2.9787,-2.9777,-2.9792,-2.9819,-2.9821,-2.9808,-2.9808,-2.9808,-2.9808,-2.9781,-2.9795,-3.0385,-3.0804,-3.0773,-3.0754,-3.0778,-3.0813,-3.1605,-3.2452,-3.3041,-3.4273,-3.6367,-3.9353,-3.9425,-3.9386,-3.9386,-3.9385,-3.9424,-3.9424,-3.9424,-3.9424,-4.393,-4.4661,-4.522,-4.4831,-4.2892,-4.0469,-3.8058,-3.5569,-3.3109,-3.0705,-2.9567,-2.8994,-2.8994,-2.9659,-3.0325,-3.0712,0.0,0.0,-3.1563,-3.1081,-3.0135,-2.8586,-2.9699,-3.0325,-2.9629,-3.1699,-3.3068,-3.3081,-3.3081,0.0,-3.3081,-3.3081,-3.3081,-3.3081,-3.3081,-3.3081,-3.3081,-3.3081,-3.3081,-3.3081,-3.3081,-3.3081,-3.3081,-3.3081,-3.3081,-3.3081,-3.3081,-3.3081,0.0,-3.3068,-3.3068,-3.3068,-3.3056,-3.3056,-3.3068,-3.3068,-3.3123,-3.3064,-3.3139,-3.3123,-3.3064,-3.3139,-3.311,-3.3097,-3.3097,-3.3097,-3.3097,-3.3097,-3.3085,-3.3081,-3.3081,-3.3081,-3.3081,-3.3068,-3.3068,-3.3068,-3.3068,-3.3073,-3.3078,-3.3075,-3.1271,-2.9787,-2.9777,-2.9792,-2.9782,-2.9815,-2.9825,-2.9825,-2.9825,-2.9825,-2.9792,-2.9821,-3.1793,-3.309,-3.3096,-3.3027,-3.3028,-3.3091,-3.1046,-3.0803,-3.3001,-3.7133,-3.9396,-3.9411,-3.9401,-3.9424,-3.9424,-3.9424,-3.9424,-3.9424,-3.9424,-3.9424,-4.1163,-4.1796,-4.2308,-4.1871,-4.0173,-3.8357,-3.7264,-3.5346,-3.344,-3.2118,-3.1201,-3.0467,-2.9934,-3.0243,-3.0864,-3.1706,-3.1716,0.0,-3.1401,-3.0997,-3.0069,-2.8425,-2.9906,-3.0915,-3.0711,-3.213,-3.3081,-3.3081,-3.3081,-3.3081,-3.3081,-3.3081,-3.3081,-3.3081,-3.3081,-3.3081,-3.3081,-3.3081,-3.3081,-3.3081,-3.3081,-3.3081,-3.3081,-3.3081,-3.3081,-3.3081,-3.3081,-3.3081,-3.3081,-3.3081,-3.3081,-3.3081,-3.3081,-3.3081,-3.3081,-3.3081,-3.3104,-3.2842,-3.1406,-3.181,-3.3076,-3.3119,-3.3089,-3.281,-3.1336,-3.0835,-3.117,-3.2675,-3.3073,-3.3081,-3.3081,-3.3081,-3.3079,-3.3135,-3.3129,-3.3129,-3.3129,-3.3122,-3.2688,-3.1111,-3.0311,-2.9824,-2.9809,-2.9838,-2.9815,-2.9777,-3.2037,-3.3729,-3.3729,-3.1379,-2.9829,-2.9799,-3.2746,-3.4293,-3.3198,-3.3065,-3.4367,-3.7211,-3.678,-3.6712,-3.7361,-3.867,-3.9385,-3.9387,-3.9427,-3.9424,-3.9424,-3.9424,-3.9424,-3.9424,-3.9424,-3.9424,-3.8817,-3.9588,-4.0129,-3.983,-3.8623,-3.7345,-3.6756,-3.5161,-3.3568,-3.2779,-3.185,-3.1016,-3.0524,-3.0535,-3.0808,-3.1255,-3.1167,-3.1151,-3.1317,-3.0587,-2.9709,-2.8938,-3.0233,-3.1331,0.0,-3.2488,-3.3081,-3.3081,-3.3081,-3.3081,-3.3081,-3.3081,-3.3081,-3.3081,-3.3081,-3.3081,-3.3081,-3.3081,-3.3081,-3.3081,-3.3081,-3.3081,-3.3081,-3.3081,-3.3081,-3.3081,-3.3081,-3.3081,0.0,-3.3081,-3.3081,-3.3081,-3.3081,-3.3081,-3.3081,-3.3081,-3.3079,-3.2915,-3.1541,-3.192,-3.311,-3.3077,-3.2523,-3.1619,-3.0263,-2.9782,-3.0232,-3.2503,-3.3136,-3.3127,-3.3127,-3.3127,-3.311,-3.3127,-3.4278,-3.5505,-3.552,-3.4232,-3.2486,-3.0265,-3.0995,-3.1522,-3.0072,-3.0963,-3.1979,-3.1942,-3.3959,-3.5476,-3.5476,-3.3382,-3.1956,-3.1949,-3.4115,-3.5053,-3.4116,-3.4924,-3.6623,-3.9247,-3.9396,-3.9386,-3.9382,-3.9399,-3.9367,-3.9395,-3.9395,-3.9369,-3.9403,-3.9364,-3.9424,-3.9424,-3.9424,-3.9424,0.0,-3.7808,-3.8432,-3.8377,-3.779,-3.7019,-3.6285,-3.4908,0.0,-3.2782,-3.1747,-3.0944,-3.0859,-3.0627,-3.0312,-2.9947,-3.0109,-3.0527,-3.1266,-2.9981,-2.9241,-2.9999,-3.0952,-3.1712,-3.2227,-3.2754,-3.3081,-3.3081,-3.3081,-3.3081,-3.3081,-3.3081,-3.3081,-3.3081,-3.3081,-3.3081,-3.3081,-3.3081,-3.3081,-3.3081,-3.3081,-3.3081,-3.3081,-3.3081,-3.3081,0.0,-3.3081,-3.3081,0.0,-3.3081,-3.3056,-3.3129,-3.3129,-3.3129,-3.3129,-3.3129,-3.311,-3.3089,-3.3114,-3.3073,-3.3104,-3.2918,-3.1612,-3.0027,-2.9873,-2.9794,-3.0231,-3.2316,-3.2862,-3.2826,-3.2907,-3.2838,-3.2881,-3.2865,-3.6224,-3.9258,-3.8847,-3.5639,-3.2291,-3.0198,-3.2675,-3.4076,-3.0777,-3.3162,-3.5464,-3.5483,-3.5477,-3.5477,-3.5477,-3.5477,-3.5477,-3.5477,-3.5477,-3.5472,-3.5496,-3.7742,-3.918,-3.9387,-3.9429,-3.9325,-3.9149,-3.9115,-3.9116,-3.9116,-3.9116,-3.923,-3.94,-3.9403,-3.9394,-3.9424,-3.9424,-3.9424,-3.4559,0.0,-3.5734,-3.511,-3.4798,-3.4614,0.0,-3.4082,-3.3652,-3.3154,-3.2828,-3.236,-3.1427,-3.1001,-3.0926,-3.1444,-3.1709,-3.1689,-3.1161,-3.0554,-3.0855,-3.2619,-3.281,-3.2729,-3.2867,-3.3006,-3.3081,-3.3081,-3.3081,-3.3081,-3.3081,-3.3081,-3.3081,-3.3081,-3.3081,-3.3081,-3.3081,-3.3081,-3.3081,-3.3081,-3.3081,-3.3081,-3.3081,-3.3081,-3.3081,-3.3081,-3.3081,-3.3081,-3.3081,-3.3081,-3.3101,-3.3127,-3.3127,-3.3127,-3.3127,-3.3127,-3.3073,-3.3101,-3.3107,-3.3098,-3.2846,-3.1134,-3.137,-3.2032,-3.0274,-2.9766,-2.9905,-3.0419,-3.0592,-3.0548,-3.0611,-3.0602,-3.0569,-3.0577,-3.5099,-3.8064,-3.3143,-3.1291,-3.0381,-2.9907,-3.0572,-3.1775,-3.383,-3.4928,-3.5468,-3.5481,-3.5472,-3.5472,-3.5472,-3.5472,-3.5472,-3.5472,-3.5472,-3.5523,-3.5478,-3.6075,-3.7252,-3.9273,-3.9382,-3.8499,-3.6507,-3.6389,-3.6428,-3.6428,-3.6428,-3.7401,-3.94,-3.9405,-3.9414,-3.9424,-3.9424,-3.9424,-3.3807,-3.4688,-3.5495,-3.5055,-3.4945,-3.4945,-3.4945,-3.4229,-3.3465,-3.3243,-3.2642,-3.1969,-3.1305,-3.0692,-3.0474,-3.1278,-3.1351,-3.1247,-3.1013,-3.1347,-3.1947,-3.2959,-3.3127,-3.3081,0.0,-3.3081,-3.3081,-3.3081,-3.3081,-3.3081,-3.3081,-3.3081,-3.3081,-3.3081,-3.3081,-3.3081,-3.3081,-3.3081,-3.3081,-3.3081,-3.3081,-3.3081,-3.3081,-3.3081,-3.3081,-3.3081,-3.3081,-3.3081,-3.3081,-3.3081,-3.3054,-3.3022,-3.2015,-3.16,-3.1734,-3.2739,-3.3085,-3.3085,-3.3077,-3.3606,-3.3741,-3.0795,-3.0608,-3.1345,-3.0118,-2.9829,-2.9764,-2.9763,-3.0512,-3.1115,-3.0066,-3.1133,-3.221,-3.1487,-3.3977,-3.5283,-3.0775,-2.9804,-2.9796,-2.9782,-3.1188,-3.3038,-3.5132,-3.5533,-3.5474,-3.5484,-3.5504,-3.5504,-3.5504,-3.5504,-3.5504,-3.5504,-3.5504,-3.5523,-3.5495,-3.5503,-3.6104,-3.7533,-3.7608,-3.7005,-3.5569,-3.5492,-3.5502,-3.5502,-3.5481,-3.6215,-3.7579,-3.8837,-3.9403,-3.9424,-3.9424,-3.9424,-3.41,-3.5404,-3.6541,-3.6046,-3.6072,-3.6124,-3.5868,-3.4407,-3.3045,-3.2867,-3.1881,-3.1038,-3.0974,-3.0316,-3.0021,-3.0828,-3.0689,-3.0765,-3.1542,-3.2266,-3.272,-3.2586,-3.2852,0.0,-3.3081,-3.3081,-3.3081,-3.3081,-3.3081,-3.3081,-3.3081,-3.3081,-3.3154,-3.3313,-3.3154,-3.3129,-3.3126,-3.3129,-3.3081,-3.3081,-3.3081,-3.3081,-3.3081,-3.3081,-3.3081,-3.3081,0.0,0.0,-3.3081,-3.3081,-3.3129,-3.293,-3.1064,-3.0274,-3.0529,-3.2375,-3.3085,-3.3046,-3.2727,-3.3496,-3.4099,-3.0846,-2.9774,-2.9764,-2.9816,-2.9824,-2.9836,-3.0198,-3.1675,-3.2657,-3.082,-3.2489,-3.4462,-3.3634,-3.3049,-3.2066,-3.019,-2.9781,-2.9767,-2.9768,-3.2388,-3.4783,-3.5381,-3.5472,-3.5504,-3.5504,-3.5504,-3.5519,-3.5499,-3.5499,-3.5514,-3.5493,-3.5493,-3.5511,-3.5503,-3.5283,-3.5427,-3.606,-3.6129,-3.6065,-3.6091,-3.6094,-3.6114,-3.6114,-3.6128,-3.612,-3.6093,-3.8317,-3.9379,-3.9424,-3.9424,-3.9424,-3.5532,-3.7092,-3.7661,-3.4871,-3.4954,-3.5331,-3.3991,-3.3113,-3.2331,-3.1431,-3.1528,-3.1639,-3.1399,-3.1203,-3.1559,-3.2809,-3.2499,-3.2759,-3.4437,-3.3302,-3.2765,-3.4136,0.0,-3.3081,-3.3081,-3.3081,-3.3081,-3.3081,-3.3081,-3.3081,-3.3081,-3.3081,-3.3556,-3.4428,-3.3556,-3.311,-3.3085,-3.311,-3.3081,-3.3081,-3.3081,-3.3081,-3.3081,-3.3081,-3.3081,-3.3081,0.0,-3.3081,-3.3081,-3.3081,-3.3089,-3.3077,-3.2756,-3.2622,-3.2634,-3.2942,-3.3135,-3.2842,-3.0925,-3.0495,-3.0598,-2.9973,-2.9758,-2.9804,-2.9777,-2.9789,-3.0161,-3.2069,-3.287,-3.3049,-3.2654,-3.1655,-3.1439,-3.4436,-3.2648,-3.0202,-2.9866,-2.9811,-2.982,-2.9781,-3.0283,-3.1676,-3.4911,-3.5533,-3.5504,-3.5504,-3.5504,-3.5514,-3.5489,-3.5518,-3.5526,-3.5492,-3.5507,-3.5497,-3.5477,-3.4243,-3.4994,-3.8562,-3.878,-3.8812,-3.8773,-3.8812,-3.8796,-3.8796,-3.8827,-3.8825,-3.8772,-3.9184,-3.9384,-3.9424,-3.9424,-3.9424,-3.4422,-3.5892,-3.6777,-3.4785,-3.6185,-3.7719,-3.6251,-3.4874,-3.3652,-3.2773,-3.2376,-3.2139,-3.1989,-3.2252,-3.2751,-3.335,-3.3007,-3.2884,-3.3554,-3.2759,-3.2584,0.0,0.0,-3.3081,-3.3081,-3.3081,-3.3081,-3.3081,-3.3081,-3.3081,-3.3081,-3.3081,-3.3556,-3.4664,-3.4373,-3.3828,-3.3135,-3.3073,-3.3081,-3.3081,-3.3081,-3.3081,-3.3081,-3.3081,-3.3081,-3.3081,0.0,-3.3081,-3.3081,-3.3081,-3.3079,-3.311,-3.311,-3.3081,-3.3142,-3.3127,-3.2337,-3.1185,-3.0146,-2.9806,-2.9831,-2.9834,-2.9834,-2.9792,-2.9792,-2.9839,-2.999,-3.1022,-3.2149,-3.3091,-3.3098,-3.2952,-3.2831,-3.2475,-3.1065,-2.9768,-2.9799,-2.9827,-2.9806,-2.9809,-2.9825,-3.0996,-3.4854,-3.5525,-3.5501,-3.5501,-3.5465,-3.5518,-3.5501,-3.6701,-3.7609,-3.7593,-3.7608,-3.7635,-3.7644,-3.6969,-3.7352,-3.9254,-3.9375,-3.939,-3.939,-3.939,-3.939,-3.939,-3.939,-3.938,-3.9429,-3.9429,-3.9433,-3.9424,-3.9424,-3.9424,-3.3764,-3.4775,-3.5633,-3.522,-3.7108,-3.8851,-3.7931,-3.6113,-3.4502,-3.3861,-3.3294,-3.2732,-3.2282,-3.3013,0.0,-3.3344,-3.3218,-3.3088,-3.2521,-3.2416,-3.2579,-3.3031,-3.3081,-3.3081,-3.3081,-3.3081,-3.3081,-3.3081,-3.3081,-3.3081,-3.3081,-3.3081,-3.3556,-3.4664,-3.4999,-3.4686,-3.3602,-3.3221,-3.3081,-3.3081,-3.3081,-3.3081,-3.3081,-3.3081,-3.3081,-3.3081,-3.3081,-3.3081,-3.3081,-3.3081,-3.3116,-3.3139,-3.3139,-3.2798,-3.2339,-3.2349,-3.1284,-2.9769,-2.9827,-2.9792,-2.9792,-2.9792,-2.9792,-2.9792,-2.9792,-2.9811,-2.9833,-2.9808,-3.1698,-3.3676,-3.3652,-3.4538,-3.4534,-3.0721,-2.9828,-2.9782,-2.9781,-2.9792,-2.9792,-2.9792,-2.977,-3.076,-3.3635,-3.4169,-3.4679,-3.6222,-3.6398,-3.6374,-3.6433,-3.8151,-3.9405,-3.9412,-3.9412,-3.939,-3.9415,-3.9376,-3.9365,-3.9365,-3.9433,-3.9424,-3.9424,-3.9424,-3.9424,-3.9424,-3.9424,-3.9424,-3.9424,-3.9424,-3.9424,-3.9424,-3.9424,-3.9424,-3.5403,-3.5421,-3.5208,-3.6142,-3.6063,-3.581,-3.6168,-3.4748,-3.3237,-3.293,-3.3591,-3.3698,-3.1907,-3.3082,-3.4032,-3.3037,-3.3793,-3.4241,-3.3164,0.0,-3.3031,-3.3068,-3.3081,-3.3081,-3.3081,-3.3081,-3.3081,-3.3081,-3.3081,-3.3081,-3.3081,-3.3081,-3.3556,-3.4664,-3.4999,-3.5162,-3.5083,-3.3764,-3.3081,-3.3081,-3.3081,-3.3081,-3.3081,-3.3081,-3.3081,-3.3081,-3.3081,-3.3081,-3.3081,-3.3081,-3.3063,-3.3122,-3.3122,-3.1818,-3.0025,-3.0029,-2.9948,-2.9769,-2.9827,-2.9792,-2.9792,-2.9792,-2.9792,-2.9792,-2.9792,-2.9804,-2.9806,-2.983,-3.2475,-3.5339,-3.5331,-3.5433,-3.4575,-3.0725,-2.9783,-2.9831,-2.9779,-2.9792,-2.9792,-2.9792,-2.977,-2.9879,-3.0151,-3.023,-3.222,-3.8246,-3.9103,-3.9139,-3.9103,-3.9309,-3.9405,-3.9406,-3.9436,-3.9379,-3.9367,-3.9409,-3.9394,-3.9394,-3.9409,-3.9424,-3.9424,-3.9424,-3.9424,-3.9424,-3.9424,-3.9424,-3.9424,-3.9424,-3.9424,-3.9424,-3.9424,-3.9424,-3.3979,-3.4054,-3.4167,-3.5037,-3.534,-3.5661,-3.6718,-3.59,-3.5003,-3.521,-3.4759,-3.4155,-3.3398,-3.3349,-3.3392,-3.345,-3.3576,-3.3556,-3.3154,-3.3081,-3.3081,-3.3081,-3.3081,-3.3081,-3.3081,-3.3081,-3.3081,-3.3081,-3.3081,-3.3081,-3.3081,-3.3081,-3.3556,-3.4664,-3.4198,-3.4237,-3.4921,-3.3666,-3.3081,-3.3081,-3.3081,-3.3081,-3.3081,-3.3081,-3.3081,-3.3081,-3.3081,-3.3081,-3.3056,-3.311,-3.3073,-3.2962,-3.1564,-3.0548,-2.9782,-2.9791,-2.9824,-2.9799,-2.9842,-2.9792,-2.9792,-2.9792,-2.9792,-2.9792,-2.9792,-2.9792,-2.9768,-2.9804,-3.0861,-3.2515,-3.4909,-3.3712,-3.1585,-3.0141,-2.9821,-2.9792,-2.9792,-2.9792,-2.9777,-2.982,-2.9786,-2.9817,-2.9817,-3.0966,-3.3592,-3.8663,-3.9376,-3.9425,-3.9388,-3.9403,-3.9361,-3.9409,-3.9424,-3.9424,-3.9424,-3.9424,-3.9424,-3.9424,-3.9424,-3.9424,-3.9424,-3.9424,-3.9424,-3.9424,-3.9424,-3.9424,-3.9424,-3.9424,-3.9424,-3.9424,-3.9424,-3.9424,-3.256,-3.2652,-3.2933,-3.3632,-3.4425,-3.5493,-3.7097,-3.6838,-3.6369,-3.7068,-3.5471,-3.3909,-3.3878,-3.3198,-3.2771,0.0,-3.3173,-3.3081,-3.3081,-3.3081,-3.3081,-3.3081,-3.3081,-3.3081,-3.3081,-3.3081,-3.3081,-3.3081,-3.3081,-3.3081,-3.3081,-3.3081,-3.3484,-3.4191,-3.3471,-3.3484,-3.4191,-3.3471,-3.3081,-3.3081,-3.3081,-3.3081,-3.3081,-3.3081,-3.3081,-3.3081,-3.3081,-3.3081,-3.3142,-3.3068,-3.311,-3.2899,-3.0686,-2.9843,-2.9791,-2.9802,-2.9792,-2.9792,-2.9792,-2.9792,-2.9792,-2.9792,-2.9792,-2.9792,-2.9792,-2.9792,-2.9806,-2.977,-2.9819,-3.0387,-3.2987,-3.1757,-2.9776,-2.9781,-2.9783,-2.9792,-2.9792,-2.9792,-2.9814,-2.9824,-3.0361,-3.0842,-3.082,-3.3169,-3.6087,-3.8958,-3.94,-3.9424,-3.9424,-3.9424,-3.9424,-3.9424,-3.9424,-3.9424,-3.9424,-3.9424,-3.9424,-3.9424,-3.9424,-3.9424,-3.9424,-3.9424,-3.9424,-3.9424,-3.9424,-3.9424,-3.9424,-3.9424,-3.9424,-3.9424,-3.9424,-3.9424,-3.1662,-3.1438,-3.1532,-3.2183,-3.3357,-3.4937,-3.6936,-3.7022,-3.6896,-3.785,-3.5384,-3.3056,-3.2816,-3.2457,-3.2215,-3.2215,-3.2704,-3.3081,-3.3081,-3.3081,-3.3081,-3.3081,-3.3081,-3.3081,-3.3081,-3.3081,-3.3081,-3.3081,-3.3081,-3.3081,-3.3081,-3.3081,-3.3081,-3.3081,-3.3081,-3.3081,-3.3081,-3.3081,-3.3081,-3.3081,-3.3081,-3.3081,-3.3081,-3.3081,-3.3081,-3.3068,-3.3068,-3.3068,-3.3129,-3.3043,-3.3032,-3.2829,-3.0673,-2.9792,-2.9792,-2.9792,-2.9792,-2.9792,-2.9792,-2.9792,-2.9792,-2.9792,-2.9792,-2.9792,-2.9792,-2.9792,-2.9792,-2.9792,-2.9792,-2.9792,-2.9792,-2.9808,-2.9792,-2.9833,-2.9792,-2.9792,-2.9792,-2.9792,-2.9814,-2.9836,-3.1596,-3.3079,-3.3104,-3.6596,-3.9401,-3.9425,-3.9387,-3.9424,-3.9424,-3.9424,-3.9424,-3.9424,-3.9424,-3.9424,-3.9424,-3.9424,-3.9424,-3.9424,-3.9424,-3.9424,-3.9424,-3.9424,-3.9424,-3.9424,-3.9424,-3.9424,-3.9424,-3.9424,-3.9424,-3.9424,-3.9424,-3.9424,-3.1117,-3.1444,-3.2266,-3.2897,-3.4834,-3.6893,-3.8446,-3.7477,-3.6069,-3.5306,-3.4053,-3.2928,-3.2492,-3.2256,-3.2215,-3.2215,-3.2704,-3.3081,-3.3081,-3.3081,-3.3081,-3.3081,-3.3081,-3.3081,-3.3081,-3.3081,-3.3081,-3.3081,-3.3081,-3.3081,-3.3081,-3.3081,-3.3081,-3.3081,-3.3081,-3.3081,-3.3081,-3.3081,-3.3081,-3.3081,-3.3081,-3.3081,-3.3081,-3.3081,-3.3114,-3.3068,-3.3068,-3.311,-3.2995,-3.1422,-3.0748,-3.0724,-3.0036,-2.977,-2.9792,-2.9792,-2.9792,-2.9792,-2.9792,-2.9792,-2.9792,-2.9792,-2.9792,-2.9792,-2.9792,-2.9792,-2.9792,-2.9792,-2.9792,-2.9792,-2.9792,-2.9756,-2.977,-2.9831,-2.9792,-2.9792,-2.9792,-2.9792,-2.9799,-2.9775,-3.1621,-3.3106,-3.3133,-3.662,-3.9413,-3.9431,-3.9369,-3.9424,-3.9424,-3.9424,-3.9424,-3.9424,-3.9424,-3.9424,-3.9424,-3.9424,-3.9424,-3.9424,-3.9424,-3.9424,-3.9424,-3.9424,-3.9424,-3.9424,-3.9424,-3.9424,-3.9424,-3.9424,-3.9424,-3.9424,-3.9424,-3.9424,-3.0994,-3.1867,-3.3069,-3.4013,-3.5857,-3.76,-3.8323,-3.7862,-3.6685,-3.4895,-3.411,-3.3558,-3.2993,-3.2704,0.0,-3.2554,-3.2855,-3.3081,-3.3081,-3.3081,-3.3081,-3.3081,-3.3081,-3.3081,-3.3081,-3.3081,-3.3081,-3.3081,-3.3081,-3.3081,-3.3081,-3.3081,-3.3081,-3.3081,-3.3081,-3.3081,-3.3081,-3.3081,-3.3081,-3.3081,-3.3081,-3.3081,-3.3081,-3.3081,-3.3063,-3.3071,-3.2147,-3.1757,-3.1661,-3.0381,-2.9782,-2.9817,-2.977,-2.9811,-2.9792,-2.9792,-2.9792,-2.9792,-2.9792,-2.9792,-2.9792,-2.9792,-2.9792,-2.9792,-2.9792,-2.9792,-2.9792,-2.9792,-2.9792,-2.9792,-2.9792,-2.9792,-2.9792,-2.9792,-2.9792,-2.9792,-2.9792,-2.9814,-2.9766,-2.9825,-3.1596,-3.366,-3.5338,-3.7682,-3.937,-3.9427,-3.9424,-3.9424,-3.9424,-3.9424,-3.9424,-3.9424,-3.9424,-3.9424,-3.9424,-3.9424,-3.9424,-3.9424,-3.9424,-3.9424,-3.9424,-3.9424,-3.9424,-3.9424,-3.9424,-3.9424,-3.9424,-3.9424,-3.9424,-3.9424,-3.9424,-3.9424,-3.1106,-3.2437,-3.3844,-3.525,-3.6596,-3.7485,-3.7233,-3.7951,-3.8111,-3.5823,-3.5002,-3.4474,-3.3922,-3.342,-3.3081,-3.3081,-3.3081,-3.3081,-3.3081,-3.3081,-3.3081,-3.3081,-3.3081,-3.3081,-3.3081,-3.3081,-3.3081,-3.3081,-3.3081,-3.3081,-3.3081,-3.3081,-3.3081,-3.3081,-3.3081,-3.3081,-3.3081,-3.3081,-3.3081,-3.3081,-3.3081,-3.3081,-3.3081,-3.3081,-3.3,-3.2688,-3.0708,-2.98,-2.9769,-2.9769,-2.9833,-2.9792,-2.9792,-2.9792,-2.9792,-2.9792,-2.9792,-2.9792,-2.9792,-2.9792,-2.9792,-2.9792,-2.9792,-2.9792,-2.9792,-2.9792,-2.9792,-2.9792,-2.9792,-2.9792,-2.9792,-2.9792,-2.9779,-2.9819,-2.9831,-2.9792,-2.9792,-2.9783,-2.9878,-3.0052,-3.2044,-3.4896,-3.8754,-3.9427,-3.9386,-3.9427,-3.9424,-3.9424,-3.9424,-3.9424,-3.9424,-3.9424,-3.9424,-3.9424,-3.9424,-3.9424,-3.9424,-3.9424,-3.9424,-3.9424,-3.9424,-3.9424,-3.9424,-3.9424,-3.9424,-3.9424,-3.9424,-3.9424,-3.9424,-3.9424,-3.9424,-3.9424,-3.0507,-3.2078,0.0,-3.5818,-3.7644,-3.8738,-3.7959,-3.7607,-3.6877,-3.4666,-3.4161,-3.3909,-3.3357,-3.3156,-3.3081,-3.3081,-3.3081,-3.3081,-3.3081,-3.3081,-3.3081,-3.3081,-3.3081,-3.3081,-3.3081,-3.3081,-3.3081,-3.3081,-3.3081,-3.3081,-3.3081,-3.3081,-3.3081,-3.3081,-3.3081,-3.3081,-3.3081,-3.3081,-3.3081,0.0,-3.3081,-3.3081,-3.3081,-3.3081,-3.2112,-3.0446,-3.0047,-2.9799,-2.9827,-2.9827,-2.9777,-2.9792,-2.9792,-2.9792,-2.9792,-2.9792,-2.9792,-2.9792,-2.9792,-2.9792,-2.9792,-2.9792,-2.9792,-2.9792,-2.9792,-2.9792,-2.9792,-2.9792,-2.9792,-2.9792,-2.9792,-2.9792,-2.9768,-2.9769,-2.9821,-2.9792,-2.9792,-2.9806,-3.033,-3.2085,-3.5412,-3.8289,-3.9218,-3.9432,-3.9414,-3.9439,-3.9424,-3.9424,-3.9424,-3.9424,-3.9424,-3.9424,-3.9424,-3.9424,-3.9424,-3.9424,-3.9424,-3.9424,-3.9424,-3.9424,-3.9424,-3.9424,-3.9424,-3.9424,-3.9424,-3.9424,-3.9424,-3.9424,-3.9424,-3.9424,-3.9424,-3.9424,-3.0567,-3.2691,0.0,-3.7315,0.0,-3.8938,-3.8082,-3.7251,-3.6373,-3.5252,-3.4439,-3.3809,-3.352,-3.3257,-3.3081,-3.3081,-3.3081,-3.3081,-3.3081,-3.3081,-3.3081,-3.3081,-3.3081,-3.3081,-3.3081,-3.3081,-3.3081,-3.3081,-3.3081,-3.3081,-3.3081,-3.3081,-3.3081,-3.3081,-3.3081,-3.3081,-3.3081,-3.3081,-3.3081,-3.3081,-3.3081,-3.3081,-3.3068,-3.3089,-3.1897,-2.9833,-2.9782,-2.9791,-2.9792,-2.9792,-2.9792,-2.9792,-2.9792,-2.9792,-2.9792,-2.9792,-2.9792,-2.9792,-2.9792,-2.9792,-2.9792,-2.9792,-2.9792,-2.9792,-2.9792,-2.9792,-2.9792,-2.9792,-2.9792,-2.9792,-2.9792,-2.977,-2.9833,-2.9789,-2.9781,-2.9833,-2.9766,-2.9781,-3.1042,-3.5325,-3.7895,-3.9417,-3.9402,-3.9385,-3.9424,-3.9424,-3.9424,-3.9424,-3.9424,-3.9424,-3.9424,-3.9424,-3.9424,-3.9424,-3.9424,-3.9424,-3.9424,-3.9424,-3.9424,-3.9424,-3.9424,-3.9424,-3.9424,-3.9424,-3.9424,-3.9424,-3.9424,-3.9424,-3.9424,-3.9424,-3.9424,-3.9424,-3.0372,0.0,-3.6133,-3.8766,-3.918,0.0,-3.8088,-3.7183,-3.6448,-3.6277,-3.502,-3.3996,-3.3996,-3.3543,-3.3081,-3.3081,-3.3081,-3.3081,-3.3081,-3.3081,-3.3081,-3.3081,-3.3081,-3.3081,-3.3081,-3.3081,-3.3081,-3.3081,-3.324,-3.3398,-3.3398,-3.3398,-3.3398,-3.3398,-3.324,-3.3081,-3.3081,-3.3081,-3.3081,-3.3081,-3.3081,-3.3081,-3.3068,-3.3132,-3.2077,-3.0384,-2.9979,-2.9836,-2.9802,-2.9802,-2.9764,-2.9792,-2.9792,-2.9792,-2.9792,-2.9792,-2.9792,-2.9792,-2.9792,-2.9792,-2.9792,-2.9792,-2.9792,-2.9792,-2.9792,-2.9792,-2.9792,-2.9792,-2.9806,-2.982,-2.982,-2.9832,-2.9969,-3.0619,-3.0784,-3.0791,-3.0793,-3.0752,-3.2529,-3.8278,-3.9416,-3.9417,-3.9427,-3.9424,-3.9424,-3.9424,-3.9424,-3.9424,-3.9424,-3.9424,-3.9424,-3.9424,-3.9424,-3.9424,-3.9424,-3.9424,-3.9424,-3.9424,-3.9424,-3.9424,-3.9424,-3.9424,-3.9424,-3.9424,-3.9424,-3.9424,-3.9424,-3.9424,-3.9424,-3.9424,-3.9424,-3.9424,-2.8577,0.0,-3.6133,0.0,-3.9324,-3.9195,0.0,0.0,-3.7343,0.0,-3.5345,-3.4629,-3.4629,-3.3764,-3.3081,-3.3081,-3.3081,-3.3081,-3.3081,-3.3081,-3.3081,-3.3081,-3.3081,-3.3081,-3.3081,-3.3081,-3.3081,-3.3081,-3.3953,-3.4511,-3.4511,-3.4511,-3.4511,-3.4511,-3.3556,-3.3081,-3.3081,-3.3081,-3.3081,-3.3081,-3.3081,-3.3081,-3.3081,-3.3116,-3.2937,-3.2541,-3.0636,-2.98,-2.9824,-2.9824,-2.982,-2.9792,-2.9792,-2.9792,-2.9792,-2.9792,-2.9792,-2.9792,-2.9792,-2.9792,-2.9792,-2.9792,-2.9792,-2.9792,-2.9792,-2.9792,-2.9792,-2.9792,-2.9783,-2.9841,-2.9841,-2.9788,-3.0646,-3.3941,-3.4721,-3.4711,-3.474,-3.4739,-3.5669,-3.8788,-3.9409,-3.9427,-3.9424,-3.9424,-3.9424,-3.9424,-3.9424,-3.9424,-3.9424,-3.9424,-3.9424,-3.9424,-3.9424,-3.9424,-3.9424,-3.9424,-3.9424,-3.9424,-3.9424,-3.9424,-3.9424,-3.9424,-3.9424,-3.9424,-3.9424,-3.9424,-3.9424,-3.9424,-3.9424,-3.9424,-3.9424,-3.9424,-2.9924,-3.2826,-3.5564,0.0,-3.9125,-3.9339,-3.915,-3.8914,-3.8546,-3.813,-3.719,-3.6094,-3.491,-3.3797,-3.3313,-3.3869,-3.4037,-3.4037,-3.4037,-3.4037,-3.3797,-3.3154,-3.3081,-3.3081,-3.3081,-3.3641,-3.4037,-3.4037,-3.4966,-3.5507,-3.5507,-3.4979,-3.4664,-3.4664,-3.3628,-3.3081,-3.3081,-3.3081,-3.3081,-3.3081,-3.3081,-3.3081,-3.3081,-3.3081,-3.289,-3.2483,-3.1922,-3.1322,-3.0633,-3.0077,-2.9779,-2.9792,-2.9792,-2.9792,-2.9792,-2.9792,-2.9792,-2.9792,-2.9792,-2.9792,-2.9792,-2.9792,-2.9792,-2.9819,-2.9771,-2.9833,-2.9782,-2.9825,-2.9813,-3.0303,-3.2468,-3.3012,-3.3438,-3.5099,-3.5481,-3.5868,-3.7352,-3.6553,-3.6299,-3.8877,-3.9394,-3.9424,-3.9424,-3.9424,-3.9424,-3.9424,-3.9424,-3.9424,-3.9424,-3.9424,-3.9424,-3.9424,-3.9424,-3.9424,-3.9424,-3.9424,-3.9424,-3.9424,-3.9424,-3.9424,-3.9424,-3.9424,-3.9424,-3.9424,-3.9424,-3.9424,-3.9424,-3.9424,-3.9424,-3.9424,-3.9424,-3.9424,0.0,0.0,-3.3649,-3.6447,-3.8033,-3.8945,0.0,0.0,-3.9424,0.0,-3.8546,-3.7357,-3.5775,-3.4428,-3.3797,-3.4594,-3.4664,-3.4828,-3.5047,-3.5047,-3.4815,-3.4024,-3.3869,-3.3869,-3.3869,-3.4568,-3.5047,-3.5047,-3.6067,-3.6604,-3.6604,-3.5682,-3.5047,-3.5047,-3.3784,-3.3081,-3.3081,-3.3081,-3.3081,-3.3081,-3.3081,-3.3081,-3.3081,-3.3081,-3.2742,-3.2093,-3.2794,-3.2517,-3.1487,-3.0276,-2.9762,-2.9792,-2.9792,-2.9792,-2.9792,-2.9792,-2.9792,-2.9792,-2.9792,-2.9792,-2.9792,-2.9792,-2.9781,-2.977,-2.9779,-3.0464,-3.1249,-3.1263,-3.1287,-3.1942,-3.4738,-3.5488,-3.5638,-3.6365,-3.6507,-3.701,-3.8994,-3.7874,-3.7075,-3.8996,-3.9424,-3.9424,-3.9424,-3.9424,-3.9424,-3.9424,-3.9424,-3.9424,-3.9424,-3.9424,-3.9424,-3.9424,-3.9424,-3.9424,-3.9424,-3.9424,-3.9424,-3.9424,-3.9424,-3.9424,-3.9424,-3.9424,-3.9424,-3.9424,-3.9424,-3.9424,-3.9424,-3.9424,-3.9424,-3.9424,-3.9424,-3.9424,0.0,-2.8353,0.0,-3.2931,-3.5639,-3.7674,0.0,0.0,-3.9424,-3.9424,-3.8546,-3.7753,-3.7677,-3.6015,-3.4664,-3.4664,-3.4664,-3.5047,-3.5974,-3.6119,-3.6119,-3.6053,-3.6053,-3.6053,-3.6053,-3.6132,-3.6119,-3.6119,-3.7098,-3.7753,-3.7753,-3.6682,-3.6119,-3.6119,-3.4178,-3.3081,-3.3081,-3.3081,-3.3081,-3.3081,-3.3081,-3.3081,-3.3081,-3.3081,-3.2754,-3.224,-3.2805,-3.2672,-3.1889,-3.0392,-2.9788,-2.9792,-2.9792,-2.9792,-2.9792,-2.9792,-2.9792,-2.9792,-2.9792,-2.9792,-2.9792,-2.9792,-2.9783,-2.9776,-2.9825,-3.235,-3.5196,-3.5168,-3.5189,-3.5229,-3.5468,-3.5486,-3.6097,-3.8595,-3.9192,-3.9209,-3.937,-3.9254,-3.9259,-3.9349,-3.9424,-3.9424,-3.9424,-3.9424,-3.9424,-3.9424,-3.9424,-3.9424,-3.9424,-3.9424,-3.9424,-3.9424,-3.9424,-3.9424,-3.9424,-3.9424,-3.9424,-3.9424,-3.9424,-3.9424,-3.9424,-3.9424,-3.9424,-3.9424,-3.9424,-3.9424,-3.9424,-3.9424,-3.9424,-3.9424,-3.9424,-3.9424,-2.5241,0.0,0.0,-3.0971,-3.3245,-3.519,-3.6282,-3.7689,-3.8751,-3.8751,-3.8792,-3.862,-3.7919,-3.6632,-3.5908,-3.6568,-3.6724,-3.6802,-3.719,-3.7266,-3.6944,-3.6277,-3.6198,-3.6198,-3.6198,-3.6852,-3.7266,-3.7266,-3.8219,-3.8546,-3.7829,-3.6774,-3.5894,-3.5292,-3.3869,-3.3081,-3.3081,-3.3081,-3.3081,-3.3081,-3.3081,-3.3081,-3.3068,-3.2692,-3.2403,-3.2202,-3.2051,-3.1997,-3.1877,-3.0375,-2.9799,-2.9792,-2.9792,-2.9792,-2.9792,-2.9792,-2.9792,-2.9792,-2.9792,-2.9792,-2.9819,-2.9808,-2.9804,-3.0272,-3.2706,-3.4423,-3.5521,-3.5486,-3.5481,-3.5495,-3.5495,-3.5488,-3.6168,-3.8807,-3.941,-3.9403,-3.9403,-3.9403,-3.9433,-3.9394,-3.9424,-3.9424,-3.9424,-3.9424,-3.9424,-3.9424,-3.9424,-3.9424,-3.9424,-3.9424,-3.9424,-3.9424,-3.9424,-3.9424,-3.9424,-3.9424,-3.9424,-3.9424,-3.9424,-3.9424,-3.9424,-3.9424,-3.9424,-3.9424,-3.9424,-3.9424,-3.9424,-3.9424,-3.9424,-3.9424,-3.9424,-3.9424,-2.358,-2.5076,0.0,0.0,0.0,-3.2542,-3.5235,0.0,-3.733,-3.8212,-3.8751,-3.8909,-3.8428,-3.7738,-3.7405,-3.7753,-3.7829,-3.7919,-3.8308,-3.8308,-3.8055,-3.7329,-3.7238,-3.7238,-3.7238,-3.7904,-3.8308,-3.8308,-3.9017,0.0,-3.7829,-3.6774,-3.5588,-3.4191,-3.3471,-3.324,-3.3641,-3.3326,-3.3326,-3.3641,-3.324,-3.2968,-3.2767,-3.239,-3.2014,-3.1662,-3.1286,-3.1246,-3.1452,-3.0478,-2.9999,-2.9792,-2.9792,-2.9792,-2.9792,-2.9792,-2.9792,-2.9792,-2.9792,-2.9756,-2.9796,-2.9766,-3.0645,-3.2154,-3.4741,-3.5486,-3.5511,-3.5529,-3.5499,-3.5508,-3.5508,-3.6149,-3.7223,-3.8994,-3.9424,-3.9424,-3.9424,-3.9424,-3.9424,-3.9424,-3.9424,-3.9424,-3.9424,-3.9424,-3.9424,-3.9424,-3.9424,-3.9424,-3.9424,-3.9424,-3.9424,-3.9424,-3.9424,-3.9424,-3.9424,-3.9424,-3.9424,-3.9424,-3.9424,-3.9424,-3.9424,-3.9424,-3.9424,-3.9424,-3.9424,-3.9424,-3.9424,-3.9424,-3.9424,-3.9424,-3.9424,-3.9424,0.0,0.0,0.0,0.0,0.0,0.0,-3.504,0.0,-3.5085,-3.7734,-3.8287,-3.8527,-3.926,-3.9409,-3.9031,-3.7994,-3.7829,-3.8234,-3.9265,-3.9424,-3.9424,-3.9424,-3.9424,-3.9424,-3.9424,-3.9424,-3.9424,-3.9337,-3.9337,-3.887,-3.7753,-3.6696,-3.5251,-3.3215,-3.3129,-3.3687,-3.4693,-3.3674,-3.3577,-3.4611,-3.359,-3.2729,-3.219,-3.2177,-3.1599,-3.062,-3.0595,-3.0595,-3.0595,-3.0595,-3.0281,-2.9792,-2.9792,-2.9792,-2.9792,-2.9792,-2.9792,-2.9792,-2.9792,-2.9771,-2.9812,-2.9925,-3.2451,-3.5521,-3.5521,-3.5533,-3.5504,-3.5504,-3.5502,-3.5526,-3.5585,-3.7479,-3.9405,-3.9421,-3.9424,-3.9424,-3.9424,-3.9424,-3.9424,-3.9424,-3.9424,-3.9424,-3.9424,-3.9424,-3.9424,-3.9424,-3.9424,-3.9424,-3.9424,-3.9424,-3.9424,-3.9424,-3.9424,-3.9424,-3.9424,-3.9424,-3.9424,-3.9424,-3.9424,-3.9424,-3.9424,-3.9424,-3.9424,-3.9424,-3.9424,-3.9424,-3.9424,-3.9424,-3.9424,-3.9424,-3.9424,-3.9424,-2.1874,0.0,0.0,0.0,0.0,0.0,0.0,0.0,-3.1824,-3.4921,-3.5953,-3.6791,-3.8377,-3.908,-3.9265,-3.9017,-3.8943,-3.9031,-3.9337,-3.9424,-3.9424,-3.9424,-3.9424,-3.9424,-3.9424,-3.9424,-3.9104,0.0,-3.8234,-3.7434,-3.5615,-3.5292,-3.4629,-3.3593,-3.4272,-3.4616,-3.4417,-3.3397,-3.2997,-3.3304,-3.2319,-3.1775,-3.1599,-3.1223,-3.0896,-3.0595,-3.0193,-3.0018,-3.0018,-3.0018,-2.993,-2.9792,-2.9792,-2.9792,-2.9792,-2.9792,-2.9792,-2.9792,-2.9792,-2.9771,-3.0251,-3.3046,-3.4652,-3.5463,-3.5474,-3.5478,-3.5504,-3.5504,-3.5502,-3.5918,-3.7803,-3.8837,-3.9405,-3.9421,-3.9424,-3.9424,-3.9424,-3.9424,-3.9424,-3.9424,-3.9424,-3.9424,-3.9424,-3.9424,-3.9424,-3.9424,-3.9424,-3.9424,-3.9424,-3.9424,-3.9424,-3.9424,-3.9424,-3.9424,-3.9424,-3.9424,-3.9424,-3.9424,-3.9424,-3.9424,-3.9424,-3.9424,-3.9424,-3.9424,-3.9424,-3.9424,-3.9424,-3.9424,-3.9424,-3.9424,-3.9424,-3.9424,-2.2428,-2.3056,-2.4073,-2.4268,0.0,0.0,-2.7979,-2.8547,0.0,0.0,-3.4382,-3.5265,-3.7225,-3.7928,-3.8362,-3.8901,-3.899,-3.9095,-3.9379,-3.9424,-3.9424,-3.9424,-3.9424,-3.9424,-3.9424,-3.9017,-3.8472,-3.7829,-3.742,-3.6521,-3.5022,-3.4929,-3.466,-3.4003,-3.4599,-3.4879,-3.498,-3.3517,-3.3052,-3.3426,-3.2076,-3.1273,-3.106,-3.0863,-3.052,-3.0256,-2.993,-2.9792,-2.9792,-2.9792,-2.9792,-2.9792,-2.9792,-2.9792,-2.9792,-2.9792,-2.9792,-2.9767,-2.9783,-2.9779,-3.0454,-3.4228,-3.5488,-3.5533,-3.5529,-3.5504,-3.5504,-3.5504,-3.6304,-3.7496,-3.8993,-3.9384,-3.9414,-3.9379,-3.9424,-3.9424,-3.9424,-3.9424,-3.9424,-3.9424,-3.9424,-3.9424,-3.9424,-3.9424,-3.9424,-3.9424,-3.9424,-3.9424,-3.9424,-3.9424,-3.9424,-3.9424,-3.9424,-3.9424,-3.9424,-3.9424,-3.9424,-3.9424,-3.9424,-3.9424,-3.9424,-3.9424,-3.9424,-3.9424,-3.9424,-3.9424,-3.9424,-3.9424,-3.9424,-3.9424,-3.9424,-3.9424,-2.3475,-2.3849,-2.4986,-2.6004,-2.4178,0.0,-2.8487,-2.7949,-2.759,0.0,-3.2781,-3.3455,-3.5459,-3.5953,-3.6387,-3.7449,-3.7868,-3.8392,-3.929,-3.9424,-3.9424,-3.9424,-3.9424,-3.9424,-3.9424,-3.8472,-3.7753,-3.7663,-3.6549,-3.5696,-3.5209,-3.5322,-3.5045,-3.4375,-3.4497,-3.4913,-3.5669,-3.3772,-3.3225,-3.4046,-3.2109,-3.0972,-3.0532,-3.0687,-3.0398,-2.9792,-2.9792,-2.9792,-2.9792,-2.9792,-2.9792,-2.9792,-2.9792,-2.9792,-2.9792,-2.9806,-2.9781,-2.9795,-2.9828,-3.0066,-3.0956,-3.4373,-3.5481,-3.5504,-3.5504,-3.5504,-3.5504,-3.5469,-3.7352,-3.9421,-3.9373,-3.9394,-3.9424,-3.9424,-3.9424,-3.9424,-3.9424,-3.9424,-3.9424,-3.9424,-3.9424,-3.9424,-3.9424,-3.9424,-3.9424,-3.9424,-3.9424,-3.9424,-3.9424,-3.9424,-3.9424,-3.9424,-3.9424,-3.9424,-3.9424,-3.9424,-3.9424,-3.9424,-3.9424,-3.9424,-3.9424,-3.9424,-3.9424,-3.9424,-3.9424,-3.9424,-3.9424,-3.9424,-3.9424,-3.9424,-3.9424,-3.9424,-2.5136,-2.5226,-2.5211,-2.4388,-2.4507,0.0,-2.4298,-2.4627,-2.557,0.0,-2.8368,-2.9325,-3.1315,-3.2557,-3.32,-3.2916,-3.4666,-3.6851,-3.911,-3.9424,-3.9424,-3.9424,-3.9424,-3.9424,-3.9424,-3.8472,-3.742,-3.6604,-3.5074,-3.4258,-3.4499,-3.531,-3.5481,-3.4782,-3.5642,-3.5531,-3.4401,-3.3239,-3.2372,-3.1795,-3.0676,-3.0055,-2.9955,-2.998,-2.9905,-2.9792,-2.9792,-2.9792,-2.9792,-2.9792,-2.9792,-2.9792,-2.9792,-2.9792,-2.9819,-2.9808,-2.9804,-2.9815,-2.9777,-3.183,-3.4485,-3.5297,-3.5481,-3.5504,-3.5504,-3.5504,-3.5484,-3.5495,-3.7353,-3.9429,-3.9415,-3.9388,-3.9424,-3.9424,-3.9424,-3.9424,-3.9424,-3.9424,-3.9424,-3.9424,-3.9424,-3.9424,-3.9424,-3.9424,-3.9424,-3.9424,-3.9424,-3.9424,-3.9424,-3.9424,-3.9424,-3.9424,-3.9424,-3.9424,-3.9424,-3.9424,-3.9424,-3.9424,-3.9424,-3.9424,-3.9424,-3.9424,-3.9424,-3.9424,-3.9424,-3.9424,-3.9424,-3.9424,-3.9424,-3.9424,-3.9424,-3.9424,-2.6273,-2.6093,-2.6019,-2.5659,-2.5091,0.0,0.0,-2.4118,-2.4313,-2.6602,-2.6557,-2.6811,-2.9131,-2.9819,-3.0372,-3.1317,-3.2931,-3.4711,-3.6671,-3.7793,-3.8407,-3.8407,-3.8407,-3.8195,-3.7723,-3.7201,-3.6418,-3.5328,-3.4989,-3.4713,-3.4632,-3.5637,-3.5864,-3.5219,-3.5257,-3.4864,-3.4027,-3.2593,-3.1669,-3.118,-3.0279,-2.9792,-2.9792,-2.9792,-2.9792,-2.9792,-2.9792,-2.9792,-2.9792,-2.9792,-2.9795,-2.9834,-2.9768,-2.9795,-2.977,-2.9828,-3.1016,-3.2622,-3.2653,-3.3882,-3.5492,-3.5526,-3.5502,-3.5504,-3.5504,-3.5504,-3.5499,-3.5503,-3.6439,-3.7743,-3.9058,-3.9414,-3.9424,-3.9424,-3.9424,-3.9424,-3.9424,-3.9424,-3.9424,-3.9424,-3.9424,-3.9424,-3.9424,-3.9424,-3.9424,-3.9424,-3.9424,-3.9424,-3.9424,-3.9424,-3.9424,-3.9424,-3.9424,-3.9424,-3.9424,-3.9424,-3.9424,-3.9424,-3.9424,-3.9424,-3.9424,-3.9424,-3.9424,-3.9424,-3.9424,-3.9424,-3.9424,-4.0689,-4.0658,-3.9424,-3.9424,-3.9619,-2.75,-2.735,-2.7515,-2.741,-2.6138,-2.5045,0.0,0.0,0.0,0.0,0.0,0.0,0.0,0.0,0.0,0.0,0.0,0.0,0.0,-3.4756,0.0,-3.6791,-3.6805,-3.6552,-3.5854,-3.5382,-3.4909,-3.4488,-3.4838,-3.5107,-3.5001,-3.5866,-3.5977,-3.5228,-3.4394,-3.3808,-3.3449,-3.196,-3.1106,-3.0895,-3.0139,-2.9792,-2.9792,-2.9792,-2.9792,-2.9792,-2.9792,-2.9792,-2.9779,-2.9768,-2.9796,-2.9776,-2.9796,-2.9808,-2.993,-3.0605,-3.2839,-3.5478,-3.5497,-3.5472,-3.548,-3.5493,-3.5504,-3.5504,-3.5504,-3.5504,-3.5484,-3.5495,-3.5524,-3.609,-3.8732,-3.9369,-3.9424,-3.9424,-3.9424,-3.9424,-3.9424,-3.9424,-3.9424,-3.9424,-3.9424,-3.9424,-3.9424,-3.9424,-3.9424,-3.9424,-3.9424,-3.9424,-3.9424,-3.9424,-3.9424,-3.9424,-3.9424,-3.9424,-3.9424,-3.9424,-3.9424,-3.9424,-3.9424,-3.9424,-3.9424,-3.9397,-3.9427,-3.9427,-3.9901,-4.0154,-4.0169,-4.2132,-4.1891,-3.9649,-3.9798,-4.0246,-2.943,-3.0088,-3.0283,-2.741,-2.8233,-2.839,-2.34,0.0,-2.3937,-2.1955,0.0,0.0,0.0,0.0,0.0,0.0,0.0,0.0,-2.7545,-2.9684,-3.2168,-3.4532,-3.4677,-3.4748,0.0,-3.3213,-3.2821,-3.4668,-3.3254,-3.3245,-3.5338,-3.5544,-3.5141,-3.4177,-3.4095,-3.3171,-3.1536,-3.1315,-3.0758,-2.9934,-2.9869,-2.9792,-2.9792,-2.9792,-2.9792,-2.9792,-2.9792,-2.9792,-2.9831,-2.9782,-2.9789,-2.9812,-2.9802,-2.9826,-3.0201,-3.3563,-3.5107,-3.5468,-3.5481,-3.5514,-3.5514,-3.5519,-3.5504,-3.5504,-3.5504,-3.5504,-3.5504,-3.5469,-3.5511,-3.6114,-3.8713,-3.9375,-3.9424,-3.9424,-3.9424,-3.9424,-3.9424,-3.9424,-3.9424,-3.9424,-3.9424,-3.9424,-3.9424,-3.9424,-3.9424,-3.9424,-3.9424,-3.9424,-3.9424,-3.9424,-3.9424,-3.9424,-3.9424,-3.9424,-3.9424,-3.9424,-3.9424,-3.9424,-3.9424,-3.9424,-3.9424,-3.943,-3.9402,-3.9402,-4.1715,-4.2849,-4.2849,-4.2365,-4.1625,-4.0531,-4.137,-4.1565,-2.919,-2.9684,-2.9879,-2.7694,-2.741,-2.6723,-2.3196,-2.2393,-2.2214,0.0,0.0,0.0,0.0,0.0,0.0,0.0,-2.4499,0.0,0.0,0.0,-2.9086,0.0,0.0,0.0,0.0,0.0,0.0,0.0,-3.2937,-3.3037,-3.4831,-3.5295,-3.5052,-3.4027,-3.3449,-3.2522,-3.118,-3.062,-3.0482,-3.0633,-3.0075,-2.9795,-2.9833,-2.982,-2.9792,-2.9779,-2.9796,-2.982,-2.9782,-2.9826,-3.1079,-3.31,-3.31,-3.3115,-3.3295,-3.4932,-3.5495,-3.551,-3.5514,-3.5504,-3.5504,-3.5504,-3.5504,-3.5504,-3.5504,-3.5504,-3.5504,-3.5504,-3.5496,-3.6114,-3.8736,-3.943,-3.9424,-3.9424,-3.9424,-3.9424,-3.9424,-3.9424,-3.9424,-3.9424,-3.9424,-3.9424,-3.9424,-3.9424,-3.9424,-3.9424,-3.9424,-3.9424,-3.9424,-3.9424,-3.9424,-3.9424,-3.9424,-3.9424,-3.9424,-3.9424,-3.9424,-3.9424,-3.9365,-3.9385,-3.941,-3.9388,-4.0094,-4.1641,-4.2728,-4.3046,-4.2516,-4.2682,-4.2363,-4.1685,-4.1625,-4.176,-2.9295,0.0,0.0,0.0,0.0,0.0,0.0,0.0,-2.1226,-2.1533,0.0,0.0,0.0,0.0,-2.167,-2.2292,0.0,-2.4283,0.0,-2.4911,0.0,0.0,0.0,0.0,0.0,0.0,0.0,-3.2989,-3.2123,-3.2332,-3.4367,-3.4743,-3.4449,-3.3656,-3.2961,-3.2177,-3.118,-3.0771,-3.0921,-3.1609,-3.0693,-3.0121,-2.9779,-2.9768,-2.9783,-2.9833,-2.9774,-3.0393,-3.1389,-3.1351,-3.2974,-3.5521,-3.5524,-3.548,-3.548,-3.548,-3.5474,-3.5504,-3.5504,-3.5504,-3.5504,-3.5504,-3.5504,-3.5504,-3.5504,-3.5504,-3.5504,-3.5504,-3.5496,-3.6114,-3.8736,-3.943,-3.9424,-3.9424,-3.9424,-3.9424,-3.9424,-3.9424,-3.9424,-3.9424,-3.9424,-3.9424,-3.9424,-3.9424,-3.9424,-3.9424,-3.9424,-3.9424,-3.9424,-3.9424,-3.9424,-3.9424,-3.9424,-3.9424,-3.9424,-3.9424,-3.9382,-3.9384,-4.0284,-4.0836,-4.0837,-4.0633,-4.1349,-4.3275,-4.3305,-4.3015,-4.2331,-4.298,-4.3037,-4.2611,-4.2147,-4.2316,0.0,0.0,0.0,-2.6797,0.0,0.0,0.0,0.0,-2.2032,0.0,-2.2024,-2.2815,-2.1741,-2.2525,-2.3013,-2.1835,-2.274,0.0,0.0,0.0,0.0,0.0,0.0,0.0,0.0,-2.7483,-2.8047,0.0,-3.0178,-3.0417,-3.4262,-3.3688,-3.3004,-3.265,-3.2593,-3.2177,-3.118,-3.2105,-3.2536,-3.2522,-3.1949,-3.1003,-2.9789,-2.9802,-2.9816,-2.9816,-2.9802,-3.1921,-3.5353,-3.531,-3.5424,-3.5492,-3.5502,-3.5519,-3.5519,-3.5519,-3.5519,-3.5504,-3.5504,-3.5504,-3.5504,-3.5504,-3.5504,-3.5504,-3.5504,-3.5504,-3.5504,-3.5504,-3.5496,-3.6114,-3.8736,-3.943,-3.9424,-3.9424,-3.9424,-3.9424,-3.9424,-3.9424,-3.9424,-3.9424,-3.9424,-3.9424,-3.9424,-3.9424,-3.9424,-3.9424,-3.9424,-3.9424,-3.9424,-3.9424,-3.9424,-3.9424,-3.9424,-3.9424,-3.9424,-3.9424,-3.9384,-3.9417,-4.2575,-4.4447,-4.4463,-4.3594,-4.3195,-4.327,-4.3322,-4.3299,-4.3284,-4.3314,-4.3314,-4.3299,-4.3284,-4.3804,0.0,0.0,-3.1061,-2.7739,0.0,0.0,0.0,0.0,0.0,0.0,0.0,-2.3838,-2.2467,-2.3013,-2.3335,-2.2473,-2.3054,-2.3071,0.0,0.0,0.0,0.0,0.0,0.0,0.0,0.0,0.0,-2.9779,-2.9505,-3.0149,-3.2211,-3.2789,-3.2791,-3.2069,-3.2386,-3.2464,-3.2105,-3.2058,-3.2429,-3.3239,-3.1344,-3.1553,-3.3561,-3.3593,-3.3592,-3.3578,-3.3536,-3.4292,-3.5521,-3.5473,-3.5481,-3.5532,-3.5499,-3.5504,-3.5504,-3.5504,-3.5504,-3.5504,-3.5504,-3.5504,-3.5504,-3.5504,-3.5504,-3.5504,-3.5504,-3.5504,-3.5504,-3.5504,-3.5496,-3.6114,-3.8736,-3.943,-3.9424,-3.9424,-3.9424,-3.9424,-3.9424,-3.9424,-3.9424,-3.9424,-3.9424,-3.9424,-3.9424,-3.9424,-3.9424,-3.9424,-3.9424,-3.9424,-3.9424,-3.9424,-3.9424,-3.9424,-3.9429,-3.9387,-3.9387,-3.9402,-4.0173,-4.1851,-4.3117,-4.3716,-4.3738,-4.3438,-4.3275,-4.3322,-4.3284,-4.3329,-4.3329,-4.3329,-4.363,-4.4297,-4.4297,-4.4434,-3.0567,-3.1001,0.0,-2.8233,-2.7111,0.0,-2.292,0.0,-2.3567,0.0,0.0,0.0,-2.438,-2.4301,-2.4057,-2.3141,-2.3171,-2.2592,0.0,-2.0088,0.0,0.0,0.0,0.0,0.0,-2.5421,-2.6623,-2.845,-2.8547,-2.9332,0.0,0.0,-3.2611,-3.2258,-3.2793,-3.3073,-3.2961,-3.303,-3.3443,-3.4263,-3.2593,-3.3121,-3.5503,-3.5527,-3.5521,-3.5507,-3.5486,-3.5488,-3.5473,-3.5493,-3.5504,-3.5504,-3.5504,-3.5504,-3.5504,-3.5504,-3.5504,-3.5504,-3.5504,-3.5504,-3.5504,-3.5504,-3.5504,-3.5504,-3.5504,-3.5504,-3.5504,-3.5504,-3.5496,-3.6114,-3.8736,-3.943,-3.9424,-3.9424,-3.9424,-3.9424,-3.9424,-3.9424,-3.9424,-3.9424,-3.9424,-3.9424,-3.9424,-3.9424,-3.9424,-3.9424,-3.9424,-3.9424,-3.9424,-3.9427,-3.9414,-3.9414,-3.9432,-3.9802,-4.0726,-4.0784,-4.149,-4.3174,-4.3328,-4.3302,-4.3319,-4.3335,-4.3289,-4.3329,-4.3329,-4.3329,-4.3329,-4.3329,-4.3849,-4.4812,-4.4812,-4.5169]}]]